<?xml version="1.0" encoding="UTF-8" standalone="no" ?>
<gpx xmlns="http://www.topografix.com/GPX/1/1" xmlns:xsi="http://www.w3.org/2001/XMLSchema-instance" xsi:schemaLocation="http://www.topografix.com/GPX/1/1 http://www.topografix.com/GPX/1/1/gpx.xsd" version="1.1" creator="VisuGPX - https://www.visugpx.com">
  <metadata>
    <name>rando des 70</name>
    <desc><![CDATA[guéret auphelle meilhards]]></desc>
  </metadata>
  <trk>
    <name><![CDATA[ACTIVE LOG]]></name>
    <trkseg>
      <trkpt lat="46.16178" lon="1.8768">
        <ele>491.852</ele>
        <time>2015-06-21T04:53:28Z</time>
      </trkpt>
      <trkpt lat="46.16191" lon="1.87692">
        <ele>486.084</ele>
        <time>2015-06-21T05:01:11Z</time>
      </trkpt>
      <trkpt lat="46.16217" lon="1.87742">
        <ele>488.968</ele>
        <time>2015-06-21T05:01:39Z</time>
      </trkpt>
      <trkpt lat="46.162" lon="1.87789">
        <ele>495.216</ele>
        <time>2015-06-21T05:02:07Z</time>
      </trkpt>
      <trkpt lat="46.16157" lon="1.87808">
        <ele>501.465</ele>
        <time>2015-06-21T05:02:37Z</time>
      </trkpt>
      <trkpt lat="46.16112" lon="1.87823">
        <ele>507.714</ele>
        <time>2015-06-21T05:03:06Z</time>
      </trkpt>
      <trkpt lat="46.16067" lon="1.8783">
        <ele>514.443</ele>
        <time>2015-06-21T05:03:36Z</time>
      </trkpt>
      <trkpt lat="46.16028" lon="1.87873">
        <ele>514.443</ele>
        <time>2015-06-21T05:03:58Z</time>
      </trkpt>
      <trkpt lat="46.16017" lon="1.87933">
        <ele>513.481</ele>
        <time>2015-06-21T05:04:18Z</time>
      </trkpt>
      <trkpt lat="46.16058" lon="1.87969">
        <ele>518.769</ele>
        <time>2015-06-21T05:04:40Z</time>
      </trkpt>
      <trkpt lat="46.16075" lon="1.88036">
        <ele>516.846</ele>
        <time>2015-06-21T05:04:58Z</time>
      </trkpt>
      <trkpt lat="46.16037" lon="1.88076">
        <ele>516.846</ele>
        <time>2015-06-21T05:05:21Z</time>
      </trkpt>
      <trkpt lat="46.15985" lon="1.88109">
        <ele>530.785</ele>
        <time>2015-06-21T05:05:48Z</time>
      </trkpt>
      <trkpt lat="46.15966" lon="1.88164">
        <ele>525.978</ele>
        <time>2015-06-21T05:06:09Z</time>
      </trkpt>
      <trkpt lat="46.15989" lon="1.88225">
        <ele>522.614</ele>
        <time>2015-06-21T05:06:23Z</time>
      </trkpt>
      <trkpt lat="46.15968" lon="1.88257">
        <ele>521.653</ele>
        <time>2015-06-21T05:06:41Z</time>
      </trkpt>
      <trkpt lat="46.15921" lon="1.88246">
        <ele>522.133</ele>
        <time>2015-06-21T05:06:59Z</time>
      </trkpt>
      <trkpt lat="46.15878" lon="1.88231">
        <ele>525.017</ele>
        <time>2015-06-21T05:07:18Z</time>
      </trkpt>
      <trkpt lat="46.15839" lon="1.88197">
        <ele>527.42</ele>
        <time>2015-06-21T05:07:37Z</time>
      </trkpt>
      <trkpt lat="46.15801" lon="1.88162">
        <ele>529.343</ele>
        <time>2015-06-21T05:07:56Z</time>
      </trkpt>
      <trkpt lat="46.15762" lon="1.88128">
        <ele>529.824</ele>
        <time>2015-06-21T05:08:16Z</time>
      </trkpt>
      <trkpt lat="46.15723" lon="1.88092">
        <ele>531.266</ele>
        <time>2015-06-21T05:08:35Z</time>
      </trkpt>
      <trkpt lat="46.15683" lon="1.88053">
        <ele>532.708</ele>
        <time>2015-06-21T05:08:53Z</time>
      </trkpt>
      <trkpt lat="46.15648" lon="1.88008">
        <ele>533.188</ele>
        <time>2015-06-21T05:09:10Z</time>
      </trkpt>
      <trkpt lat="46.15618" lon="1.87956">
        <ele>532.708</ele>
        <time>2015-06-21T05:09:26Z</time>
      </trkpt>
      <trkpt lat="46.15586" lon="1.87911">
        <ele>533.669</ele>
        <time>2015-06-21T05:09:42Z</time>
      </trkpt>
      <trkpt lat="46.15552" lon="1.87868">
        <ele>537.995</ele>
        <time>2015-06-21T05:09:59Z</time>
      </trkpt>
      <trkpt lat="46.15513" lon="1.87825">
        <ele>540.879</ele>
        <time>2015-06-21T05:10:16Z</time>
      </trkpt>
      <trkpt lat="46.15474" lon="1.87785">
        <ele>540.398</ele>
        <time>2015-06-21T05:10:33Z</time>
      </trkpt>
      <trkpt lat="46.15438" lon="1.87744">
        <ele>542.802</ele>
        <time>2015-06-21T05:10:50Z</time>
      </trkpt>
      <trkpt lat="46.15402" lon="1.87701">
        <ele>547.608</ele>
        <time>2015-06-21T05:11:08Z</time>
      </trkpt>
      <trkpt lat="46.15363" lon="1.87654">
        <ele>550.973</ele>
        <time>2015-06-21T05:11:31Z</time>
      </trkpt>
      <trkpt lat="46.15324" lon="1.87611">
        <ele>555.299</ele>
        <time>2015-06-21T05:11:51Z</time>
      </trkpt>
      <trkpt lat="46.15281" lon="1.87583">
        <ele>555.779</ele>
        <time>2015-06-21T05:12:08Z</time>
      </trkpt>
      <trkpt lat="46.15236" lon="1.87568">
        <ele>560.586</ele>
        <time>2015-06-21T05:12:27Z</time>
      </trkpt>
      <trkpt lat="46.15187" lon="1.87553">
        <ele>569.719</ele>
        <time>2015-06-21T05:12:50Z</time>
      </trkpt>
      <trkpt lat="46.15135" lon="1.87549">
        <ele>569.719</ele>
        <time>2015-06-21T05:13:08Z</time>
      </trkpt>
      <trkpt lat="46.15084" lon="1.87553">
        <ele>570.199</ele>
        <time>2015-06-21T05:13:24Z</time>
      </trkpt>
      <trkpt lat="46.15037" lon="1.87557">
        <ele>568.757</ele>
        <time>2015-06-21T05:13:40Z</time>
      </trkpt>
      <trkpt lat="46.15" lon="1.87519">
        <ele>567.796</ele>
        <time>2015-06-21T05:13:58Z</time>
      </trkpt>
      <trkpt lat="46.14994" lon="1.8745">
        <ele>573.564</ele>
        <time>2015-06-21T05:14:23Z</time>
      </trkpt>
      <trkpt lat="46.14992" lon="1.8736">
        <ele>583.657</ele>
        <time>2015-06-21T05:14:53Z</time>
      </trkpt>
      <trkpt lat="46.14983" lon="1.87263">
        <ele>581.254</ele>
        <time>2015-06-21T05:15:25Z</time>
      </trkpt>
      <trkpt lat="46.14974" lon="1.87169">
        <ele>575.967</ele>
        <time>2015-06-21T05:15:56Z</time>
      </trkpt>
      <trkpt lat="46.14947" lon="1.87107">
        <ele>571.641</ele>
        <time>2015-06-21T05:16:14Z</time>
      </trkpt>
      <trkpt lat="46.14893" lon="1.871">
        <ele>571.16</ele>
        <time>2015-06-21T05:16:35Z</time>
      </trkpt>
      <trkpt lat="46.14841" lon="1.87062">
        <ele>561.547</ele>
        <time>2015-06-21T05:17:15Z</time>
      </trkpt>
      <trkpt lat="46.14811" lon="1.86999">
        <ele>552.895</ele>
        <time>2015-06-21T05:17:32Z</time>
      </trkpt>
      <trkpt lat="46.1476" lon="1.86963">
        <ele>546.647</ele>
        <time>2015-06-21T05:17:55Z</time>
      </trkpt>
      <trkpt lat="46.14719" lon="1.86907">
        <ele>536.553</ele>
        <time>2015-06-21T05:18:13Z</time>
      </trkpt>
      <trkpt lat="46.14685" lon="1.86841">
        <ele>534.15</ele>
        <time>2015-06-21T05:18:23Z</time>
      </trkpt>
      <trkpt lat="46.14657" lon="1.86798">
        <ele>546.647</ele>
        <time>2015-06-21T05:18:35Z</time>
      </trkpt>
      <trkpt lat="46.14616" lon="1.86759">
        <ele>556.741</ele>
        <time>2015-06-21T05:18:54Z</time>
      </trkpt>
      <trkpt lat="46.14571" lon="1.86733">
        <ele>562.509</ele>
        <time>2015-06-21T05:19:14Z</time>
      </trkpt>
      <trkpt lat="46.14524" lon="1.86714">
        <ele>563.47</ele>
        <time>2015-06-21T05:19:33Z</time>
      </trkpt>
      <trkpt lat="46.14479" lon="1.86697">
        <ele>564.431</ele>
        <time>2015-06-21T05:19:49Z</time>
      </trkpt>
      <trkpt lat="46.14429" lon="1.8668">
        <ele>562.028</ele>
        <time>2015-06-21T05:20:00Z</time>
      </trkpt>
      <trkpt lat="46.14391" lon="1.86645">
        <ele>560.586</ele>
        <time>2015-06-21T05:20:09Z</time>
      </trkpt>
      <trkpt lat="46.14344" lon="1.86635">
        <ele>560.586</ele>
        <time>2015-06-21T05:20:21Z</time>
      </trkpt>
      <trkpt lat="46.14296" lon="1.8663">
        <ele>563.95</ele>
        <time>2015-06-21T05:20:35Z</time>
      </trkpt>
      <trkpt lat="46.14247" lon="1.86643">
        <ele>562.509</ele>
        <time>2015-06-21T05:20:49Z</time>
      </trkpt>
      <trkpt lat="46.14196" lon="1.8665">
        <ele>560.105</ele>
        <time>2015-06-21T05:21:02Z</time>
      </trkpt>
      <trkpt lat="46.14146" lon="1.86637">
        <ele>560.586</ele>
        <time>2015-06-21T05:21:15Z</time>
      </trkpt>
      <trkpt lat="46.14099" lon="1.86624">
        <ele>561.547</ele>
        <time>2015-06-21T05:21:28Z</time>
      </trkpt>
      <trkpt lat="46.14052" lon="1.86626">
        <ele>564.912</ele>
        <time>2015-06-21T05:21:40Z</time>
      </trkpt>
      <trkpt lat="46.14002" lon="1.86615">
        <ele>566.834</ele>
        <time>2015-06-21T05:21:52Z</time>
      </trkpt>
      <trkpt lat="46.13955" lon="1.86598">
        <ele>568.276</ele>
        <time>2015-06-21T05:22:04Z</time>
      </trkpt>
      <trkpt lat="46.13904" lon="1.86598">
        <ele>572.603</ele>
        <time>2015-06-21T05:22:24Z</time>
      </trkpt>
      <trkpt lat="46.13861" lon="1.8663">
        <ele>572.122</ele>
        <time>2015-06-21T05:22:35Z</time>
      </trkpt>
      <trkpt lat="46.13814" lon="1.86658">
        <ele>571.641</ele>
        <time>2015-06-21T05:22:45Z</time>
      </trkpt>
      <trkpt lat="46.13766" lon="1.86667">
        <ele>572.603</ele>
        <time>2015-06-21T05:22:55Z</time>
      </trkpt>
      <trkpt lat="46.13717" lon="1.86677">
        <ele>571.641</ele>
        <time>2015-06-21T05:23:05Z</time>
      </trkpt>
      <trkpt lat="46.13674" lon="1.86712">
        <ele>571.16</ele>
        <time>2015-06-21T05:23:15Z</time>
      </trkpt>
      <trkpt lat="46.13633" lon="1.86742">
        <ele>567.315</ele>
        <time>2015-06-21T05:23:25Z</time>
      </trkpt>
      <trkpt lat="46.13588" lon="1.86765">
        <ele>562.989</ele>
        <time>2015-06-21T05:23:35Z</time>
      </trkpt>
      <trkpt lat="46.13541" lon="1.86791">
        <ele>562.509</ele>
        <time>2015-06-21T05:23:45Z</time>
      </trkpt>
      <trkpt lat="46.13496" lon="1.86804">
        <ele>562.509</ele>
        <time>2015-06-21T05:23:56Z</time>
      </trkpt>
      <trkpt lat="46.13449" lon="1.86802">
        <ele>562.509</ele>
        <time>2015-06-21T05:24:08Z</time>
      </trkpt>
      <trkpt lat="46.13402" lon="1.86798">
        <ele>563.47</ele>
        <time>2015-06-21T05:24:22Z</time>
      </trkpt>
      <trkpt lat="46.13352" lon="1.86802">
        <ele>567.796</ele>
        <time>2015-06-21T05:24:35Z</time>
      </trkpt>
      <trkpt lat="46.13307" lon="1.86828">
        <ele>564.431</ele>
        <time>2015-06-21T05:24:49Z</time>
      </trkpt>
      <trkpt lat="46.13266" lon="1.86864">
        <ele>562.989</ele>
        <time>2015-06-21T05:25:03Z</time>
      </trkpt>
      <trkpt lat="46.13226" lon="1.86898">
        <ele>566.354</ele>
        <time>2015-06-21T05:25:16Z</time>
      </trkpt>
      <trkpt lat="46.13185" lon="1.86933">
        <ele>568.276</ele>
        <time>2015-06-21T05:25:28Z</time>
      </trkpt>
      <trkpt lat="46.1314" lon="1.86963">
        <ele>565.393</ele>
        <time>2015-06-21T05:25:42Z</time>
      </trkpt>
      <trkpt lat="46.13095" lon="1.86991">
        <ele>566.834</ele>
        <time>2015-06-21T05:25:56Z</time>
      </trkpt>
      <trkpt lat="46.1305" lon="1.87014">
        <ele>566.354</ele>
        <time>2015-06-21T05:26:10Z</time>
      </trkpt>
      <trkpt lat="46.12998" lon="1.87023">
        <ele>564.431</ele>
        <time>2015-06-21T05:26:27Z</time>
      </trkpt>
      <trkpt lat="46.12947" lon="1.87027">
        <ele>562.989</ele>
        <time>2015-06-21T05:26:42Z</time>
      </trkpt>
      <trkpt lat="46.12895" lon="1.87038">
        <ele>563.47</ele>
        <time>2015-06-21T05:26:56Z</time>
      </trkpt>
      <trkpt lat="46.12846" lon="1.87029">
        <ele>567.315</ele>
        <time>2015-06-21T05:27:10Z</time>
      </trkpt>
      <trkpt lat="46.12797" lon="1.87016">
        <ele>575.006</ele>
        <time>2015-06-21T05:27:24Z</time>
      </trkpt>
      <trkpt lat="46.12754" lon="1.8704">
        <ele>579.812</ele>
        <time>2015-06-21T05:27:38Z</time>
      </trkpt>
      <trkpt lat="46.1273" lon="1.87098">
        <ele>580.774</ele>
        <time>2015-06-21T05:27:51Z</time>
      </trkpt>
      <trkpt lat="46.12726" lon="1.87165">
        <ele>585.58</ele>
        <time>2015-06-21T05:28:03Z</time>
      </trkpt>
      <trkpt lat="46.12747" lon="1.87222">
        <ele>591.829</ele>
        <time>2015-06-21T05:28:16Z</time>
      </trkpt>
      <trkpt lat="46.12782" lon="1.87268">
        <ele>593.751</ele>
        <time>2015-06-21T05:28:29Z</time>
      </trkpt>
      <trkpt lat="46.12818" lon="1.87308">
        <ele>592.31</ele>
        <time>2015-06-21T05:28:39Z</time>
      </trkpt>
      <trkpt lat="46.12842" lon="1.87371">
        <ele>591.348</ele>
        <time>2015-06-21T05:28:49Z</time>
      </trkpt>
      <trkpt lat="46.12831" lon="1.87437">
        <ele>593.271</ele>
        <time>2015-06-21T05:29:01Z</time>
      </trkpt>
      <trkpt lat="46.12801" lon="1.87489">
        <ele>593.751</ele>
        <time>2015-06-21T05:29:15Z</time>
      </trkpt>
      <trkpt lat="46.12767" lon="1.87536">
        <ele>594.713</ele>
        <time>2015-06-21T05:29:34Z</time>
      </trkpt>
      <trkpt lat="46.12732" lon="1.87581">
        <ele>596.155</ele>
        <time>2015-06-21T05:29:53Z</time>
      </trkpt>
      <trkpt lat="46.12698" lon="1.8763">
        <ele>599.519</ele>
        <time>2015-06-21T05:30:11Z</time>
      </trkpt>
      <trkpt lat="46.12661" lon="1.87673">
        <ele>600</ele>
        <time>2015-06-21T05:30:28Z</time>
      </trkpt>
      <trkpt lat="46.12627" lon="1.8772">
        <ele>602.403</ele>
        <time>2015-06-21T05:30:46Z</time>
      </trkpt>
      <trkpt lat="46.12599" lon="1.87774">
        <ele>603.845</ele>
        <time>2015-06-21T05:31:05Z</time>
      </trkpt>
      <trkpt lat="46.12569" lon="1.87825">
        <ele>605.287</ele>
        <time>2015-06-21T05:31:23Z</time>
      </trkpt>
      <trkpt lat="46.12526" lon="1.87858">
        <ele>605.768</ele>
        <time>2015-06-21T05:31:42Z</time>
      </trkpt>
      <trkpt lat="46.12483" lon="1.87886">
        <ele>608.652</ele>
        <time>2015-06-21T05:32:00Z</time>
      </trkpt>
      <trkpt lat="46.12438" lon="1.87913">
        <ele>611.536</ele>
        <time>2015-06-21T05:32:18Z</time>
      </trkpt>
      <trkpt lat="46.124" lon="1.8795">
        <ele>613.939</ele>
        <time>2015-06-21T05:32:36Z</time>
      </trkpt>
      <trkpt lat="46.12374" lon="1.88006">
        <ele>615.862</ele>
        <time>2015-06-21T05:32:54Z</time>
      </trkpt>
      <trkpt lat="46.1235" lon="1.88064">
        <ele>614.9</ele>
        <time>2015-06-21T05:33:12Z</time>
      </trkpt>
      <trkpt lat="46.12327" lon="1.88117">
        <ele>616.823</ele>
        <time>2015-06-21T05:33:30Z</time>
      </trkpt>
      <trkpt lat="46.12286" lon="1.88152">
        <ele>618.746</ele>
        <time>2015-06-21T05:33:45Z</time>
      </trkpt>
      <trkpt lat="46.12241" lon="1.88173">
        <ele>616.823</ele>
        <time>2015-06-21T05:33:57Z</time>
      </trkpt>
      <trkpt lat="46.12194" lon="1.88179">
        <ele>619.707</ele>
        <time>2015-06-21T05:34:24Z</time>
      </trkpt>
      <trkpt lat="46.12144" lon="1.88156">
        <ele>623.072</ele>
        <time>2015-06-21T05:34:42Z</time>
      </trkpt>
      <trkpt lat="46.12103" lon="1.88107">
        <ele>623.072</ele>
        <time>2015-06-21T05:34:53Z</time>
      </trkpt>
      <trkpt lat="46.12067" lon="1.88055">
        <ele>619.226</ele>
        <time>2015-06-21T05:35:01Z</time>
      </trkpt>
      <trkpt lat="46.12039" lon="1.87984">
        <ele>611.536</ele>
        <time>2015-06-21T05:35:11Z</time>
      </trkpt>
      <trkpt lat="46.12" lon="1.8792">
        <ele>606.729</ele>
        <time>2015-06-21T05:35:28Z</time>
      </trkpt>
      <trkpt lat="46.11958" lon="1.87871">
        <ele>593.271</ele>
        <time>2015-06-21T05:35:45Z</time>
      </trkpt>
      <trkpt lat="46.11915" lon="1.87821">
        <ele>589.906</ele>
        <time>2015-06-21T05:35:59Z</time>
      </trkpt>
      <trkpt lat="46.11885" lon="1.87755">
        <ele>595.193</ele>
        <time>2015-06-21T05:36:26Z</time>
      </trkpt>
      <trkpt lat="46.11855" lon="1.87673">
        <ele>610.574</ele>
        <time>2015-06-21T05:36:58Z</time>
      </trkpt>
      <trkpt lat="46.11812" lon="1.87671">
        <ele>619.226</ele>
        <time>2015-06-21T05:37:29Z</time>
      </trkpt>
      <trkpt lat="46.11784" lon="1.87619">
        <ele>622.591</ele>
        <time>2015-06-21T05:37:59Z</time>
      </trkpt>
      <trkpt lat="46.11764" lon="1.87549">
        <ele>622.591</ele>
        <time>2015-06-21T05:38:22Z</time>
      </trkpt>
      <trkpt lat="46.11728" lon="1.87516">
        <ele>626.917</ele>
        <time>2015-06-21T05:39:38Z</time>
      </trkpt>
      <trkpt lat="46.11683" lon="1.87501">
        <ele>624.033</ele>
        <time>2015-06-21T05:39:47Z</time>
      </trkpt>
      <trkpt lat="46.11636" lon="1.87491">
        <ele>617.784</ele>
        <time>2015-06-21T05:39:59Z</time>
      </trkpt>
      <trkpt lat="46.11586" lon="1.87497">
        <ele>610.094</ele>
        <time>2015-06-21T05:40:12Z</time>
      </trkpt>
      <trkpt lat="46.11537" lon="1.87516">
        <ele>603.845</ele>
        <time>2015-06-21T05:40:23Z</time>
      </trkpt>
      <trkpt lat="46.11488" lon="1.87544">
        <ele>604.326</ele>
        <time>2015-06-21T05:40:35Z</time>
      </trkpt>
      <trkpt lat="46.11443" lon="1.87574">
        <ele>600.961</ele>
        <time>2015-06-21T05:41:04Z</time>
      </trkpt>
      <trkpt lat="46.11395" lon="1.87615">
        <ele>592.31</ele>
        <time>2015-06-21T05:41:16Z</time>
      </trkpt>
      <trkpt lat="46.11355" lon="1.87667">
        <ele>586.542</ele>
        <time>2015-06-21T05:41:28Z</time>
      </trkpt>
      <trkpt lat="46.11316" lon="1.87716">
        <ele>578.851</ele>
        <time>2015-06-21T05:41:38Z</time>
      </trkpt>
      <trkpt lat="46.11275" lon="1.87772">
        <ele>574.044</ele>
        <time>2015-06-21T05:41:49Z</time>
      </trkpt>
      <trkpt lat="46.11237" lon="1.87825">
        <ele>572.603</ele>
        <time>2015-06-21T05:41:58Z</time>
      </trkpt>
      <trkpt lat="46.112" lon="1.87866">
        <ele>574.044</ele>
        <time>2015-06-21T05:42:08Z</time>
      </trkpt>
      <trkpt lat="46.11166" lon="1.87924">
        <ele>572.122</ele>
        <time>2015-06-21T05:42:28Z</time>
      </trkpt>
      <trkpt lat="46.11119" lon="1.87954">
        <ele>574.525</ele>
        <time>2015-06-21T05:42:41Z</time>
      </trkpt>
      <trkpt lat="46.11076" lon="1.87937">
        <ele>578.851</ele>
        <time>2015-06-21T05:43:02Z</time>
      </trkpt>
      <trkpt lat="46.11028" lon="1.87905">
        <ele>570.199</ele>
        <time>2015-06-21T05:44:17Z</time>
      </trkpt>
      <trkpt lat="46.1099" lon="1.87933">
        <ele>564.431</ele>
        <time>2015-06-21T05:44:23Z</time>
      </trkpt>
      <trkpt lat="46.10975" lon="1.87997">
        <ele>559.625</ele>
        <time>2015-06-21T05:44:34Z</time>
      </trkpt>
      <trkpt lat="46.10951" lon="1.88057">
        <ele>555.299</ele>
        <time>2015-06-21T05:44:46Z</time>
      </trkpt>
      <trkpt lat="46.10951" lon="1.88122">
        <ele>553.376</ele>
        <time>2015-06-21T05:44:55Z</time>
      </trkpt>
      <trkpt lat="46.10934" lon="1.88179">
        <ele>553.376</ele>
        <time>2015-06-21T05:45:07Z</time>
      </trkpt>
      <trkpt lat="46.10891" lon="1.88158">
        <ele>551.934</ele>
        <time>2015-06-21T05:45:22Z</time>
      </trkpt>
      <trkpt lat="46.10846" lon="1.88149">
        <ele>550.973</ele>
        <time>2015-06-21T05:45:41Z</time>
      </trkpt>
      <trkpt lat="46.10812" lon="1.8819">
        <ele>554.818</ele>
        <time>2015-06-21T05:46:03Z</time>
      </trkpt>
      <trkpt lat="46.10767" lon="1.88214">
        <ele>548.089</ele>
        <time>2015-06-21T05:46:21Z</time>
      </trkpt>
      <trkpt lat="46.1073" lon="1.88261">
        <ele>549.531</ele>
        <time>2015-06-21T05:46:39Z</time>
      </trkpt>
      <trkpt lat="46.10685" lon="1.88276">
        <ele>558.663</ele>
        <time>2015-06-21T05:47:07Z</time>
      </trkpt>
      <trkpt lat="46.10642" lon="1.88274">
        <ele>563.47</ele>
        <time>2015-06-21T05:47:32Z</time>
      </trkpt>
      <trkpt lat="46.10599" lon="1.88242">
        <ele>564.431</ele>
        <time>2015-06-21T05:48:03Z</time>
      </trkpt>
      <trkpt lat="46.10556" lon="1.88205">
        <ele>568.757</ele>
        <time>2015-06-21T05:48:35Z</time>
      </trkpt>
      <trkpt lat="46.10513" lon="1.88184">
        <ele>575.967</ele>
        <time>2015-06-21T05:49:07Z</time>
      </trkpt>
      <trkpt lat="46.10471" lon="1.8816">
        <ele>581.254</ele>
        <time>2015-06-21T05:49:42Z</time>
      </trkpt>
      <trkpt lat="46.10428" lon="1.88128">
        <ele>582.696</ele>
        <time>2015-06-21T05:50:16Z</time>
      </trkpt>
      <trkpt lat="46.10391" lon="1.88083">
        <ele>582.696</ele>
        <time>2015-06-21T05:50:46Z</time>
      </trkpt>
      <trkpt lat="46.1035" lon="1.88044">
        <ele>584.619</ele>
        <time>2015-06-21T05:51:13Z</time>
      </trkpt>
      <trkpt lat="46.10307" lon="1.88023">
        <ele>589.906</ele>
        <time>2015-06-21T05:51:45Z</time>
      </trkpt>
      <trkpt lat="46.10267" lon="1.87997">
        <ele>590.387</ele>
        <time>2015-06-21T05:52:14Z</time>
      </trkpt>
      <trkpt lat="46.10222" lon="1.87976">
        <ele>594.232</ele>
        <time>2015-06-21T05:52:44Z</time>
      </trkpt>
      <trkpt lat="46.10179" lon="1.87952">
        <ele>601.442</ele>
        <time>2015-06-21T05:53:11Z</time>
      </trkpt>
      <trkpt lat="46.10132" lon="1.87952">
        <ele>605.768</ele>
        <time>2015-06-21T05:53:37Z</time>
      </trkpt>
      <trkpt lat="46.10097" lon="1.87995">
        <ele>608.171</ele>
        <time>2015-06-21T05:54:03Z</time>
      </trkpt>
      <trkpt lat="46.10059" lon="1.8801">
        <ele>614.9</ele>
        <time>2015-06-21T05:54:34Z</time>
      </trkpt>
      <trkpt lat="46.10013" lon="1.88038">
        <ele>611.055</ele>
        <time>2015-06-21T05:55:02Z</time>
      </trkpt>
      <trkpt lat="46.09956" lon="1.88061">
        <ele>616.342</ele>
        <time>2015-06-21T05:55:29Z</time>
      </trkpt>
      <trkpt lat="46.099" lon="1.88068">
        <ele>617.304</ele>
        <time>2015-06-21T05:55:53Z</time>
      </trkpt>
      <trkpt lat="46.09846" lon="1.88096">
        <ele>617.784</ele>
        <time>2015-06-21T05:56:09Z</time>
      </trkpt>
      <trkpt lat="46.09803" lon="1.88139">
        <ele>612.497</ele>
        <time>2015-06-21T05:56:19Z</time>
      </trkpt>
      <trkpt lat="46.09758" lon="1.88188">
        <ele>608.171</ele>
        <time>2015-06-21T05:56:29Z</time>
      </trkpt>
      <trkpt lat="46.09692" lon="1.8824">
        <ele>607.21</ele>
        <time>2015-06-21T05:56:53Z</time>
      </trkpt>
      <trkpt lat="46.09649" lon="1.88278">
        <ele>601.442</ele>
        <time>2015-06-21T05:57:14Z</time>
      </trkpt>
      <trkpt lat="46.09586" lon="1.88321">
        <ele>587.983</ele>
        <time>2015-06-21T05:57:52Z</time>
      </trkpt>
      <trkpt lat="46.09526" lon="1.88353">
        <ele>583.177</ele>
        <time>2015-06-21T05:58:20Z</time>
      </trkpt>
      <trkpt lat="46.09475" lon="1.88409">
        <ele>580.774</ele>
        <time>2015-06-21T05:58:44Z</time>
      </trkpt>
      <trkpt lat="46.09421" lon="1.88431">
        <ele>580.774</ele>
        <time>2015-06-21T05:59:01Z</time>
      </trkpt>
      <trkpt lat="46.09365" lon="1.88431">
        <ele>584.619</ele>
        <time>2015-06-21T05:59:16Z</time>
      </trkpt>
      <trkpt lat="46.09303" lon="1.88424">
        <ele>595.193</ele>
        <time>2015-06-21T05:59:45Z</time>
      </trkpt>
      <trkpt lat="46.09247" lon="1.8839">
        <ele>599.039</ele>
        <time>2015-06-21T06:00:10Z</time>
      </trkpt>
      <trkpt lat="46.0919" lon="1.88358">
        <ele>604.807</ele>
        <time>2015-06-21T06:00:38Z</time>
      </trkpt>
      <trkpt lat="46.09127" lon="1.88319">
        <ele>601.442</ele>
        <time>2015-06-21T06:01:03Z</time>
      </trkpt>
      <trkpt lat="46.09071" lon="1.88285">
        <ele>598.077</ele>
        <time>2015-06-21T06:01:17Z</time>
      </trkpt>
      <trkpt lat="46.09016" lon="1.88257">
        <ele>595.674</ele>
        <time>2015-06-21T06:01:26Z</time>
      </trkpt>
      <trkpt lat="46.08971" lon="1.88203">
        <ele>599.039</ele>
        <time>2015-06-21T06:02:56Z</time>
      </trkpt>
      <trkpt lat="46.08945" lon="1.88147">
        <ele>600</ele>
        <time>2015-06-21T06:03:10Z</time>
      </trkpt>
      <trkpt lat="46.08902" lon="1.88124">
        <ele>600</ele>
        <time>2015-06-21T06:03:25Z</time>
      </trkpt>
      <trkpt lat="46.08855" lon="1.88132">
        <ele>599.519</ele>
        <time>2015-06-21T06:03:40Z</time>
      </trkpt>
      <trkpt lat="46.08812" lon="1.88156">
        <ele>600.481</ele>
        <time>2015-06-21T06:03:57Z</time>
      </trkpt>
      <trkpt lat="46.08767" lon="1.88179">
        <ele>600.481</ele>
        <time>2015-06-21T06:04:18Z</time>
      </trkpt>
      <trkpt lat="46.08722" lon="1.88207">
        <ele>599.519</ele>
        <time>2015-06-21T06:04:47Z</time>
      </trkpt>
      <trkpt lat="46.08677" lon="1.88248">
        <ele>605.768</ele>
        <time>2015-06-21T06:05:25Z</time>
      </trkpt>
      <trkpt lat="46.08614" lon="1.8825">
        <ele>608.171</ele>
        <time>2015-06-21T06:05:52Z</time>
      </trkpt>
      <trkpt lat="46.08559" lon="1.88237">
        <ele>606.729</ele>
        <time>2015-06-21T06:06:11Z</time>
      </trkpt>
      <trkpt lat="46.08509" lon="1.88197">
        <ele>605.287</ele>
        <time>2015-06-21T06:06:57Z</time>
      </trkpt>
      <trkpt lat="46.08466" lon="1.88156">
        <ele>593.271</ele>
        <time>2015-06-21T06:07:12Z</time>
      </trkpt>
      <trkpt lat="46.08413" lon="1.88128">
        <ele>577.89</ele>
        <time>2015-06-21T06:07:30Z</time>
      </trkpt>
      <trkpt lat="46.08363" lon="1.88081">
        <ele>581.254</ele>
        <time>2015-06-21T06:07:51Z</time>
      </trkpt>
      <trkpt lat="46.08312" lon="1.88042">
        <ele>586.542</ele>
        <time>2015-06-21T06:08:11Z</time>
      </trkpt>
      <trkpt lat="46.08269" lon="1.88014">
        <ele>588.945</ele>
        <time>2015-06-21T06:08:30Z</time>
      </trkpt>
      <trkpt lat="46.0823" lon="1.87973">
        <ele>589.906</ele>
        <time>2015-06-21T06:08:53Z</time>
      </trkpt>
      <trkpt lat="46.08194" lon="1.87931">
        <ele>588.464</ele>
        <time>2015-06-21T06:09:10Z</time>
      </trkpt>
      <trkpt lat="46.08172" lon="1.87871">
        <ele>584.619</ele>
        <time>2015-06-21T06:09:21Z</time>
      </trkpt>
      <trkpt lat="46.08166" lon="1.87802">
        <ele>581.735</ele>
        <time>2015-06-21T06:09:31Z</time>
      </trkpt>
      <trkpt lat="46.08136" lon="1.87742">
        <ele>579.812</ele>
        <time>2015-06-21T06:09:38Z</time>
      </trkpt>
      <trkpt lat="46.08097" lon="1.87697">
        <ele>576.448</ele>
        <time>2015-06-21T06:09:44Z</time>
      </trkpt>
      <trkpt lat="46.08057" lon="1.87662">
        <ele>573.564</ele>
        <time>2015-06-21T06:09:49Z</time>
      </trkpt>
      <trkpt lat="46.0802" lon="1.87619">
        <ele>570.68</ele>
        <time>2015-06-21T06:09:54Z</time>
      </trkpt>
      <trkpt lat="46.0799" lon="1.87562">
        <ele>567.796</ele>
        <time>2015-06-21T06:09:59Z</time>
      </trkpt>
      <trkpt lat="46.07945" lon="1.87531">
        <ele>564.431</ele>
        <time>2015-06-21T06:10:04Z</time>
      </trkpt>
      <trkpt lat="46.07896" lon="1.87512">
        <ele>561.547</ele>
        <time>2015-06-21T06:10:09Z</time>
      </trkpt>
      <trkpt lat="46.07855" lon="1.87465">
        <ele>558.183</ele>
        <time>2015-06-21T06:10:14Z</time>
      </trkpt>
      <trkpt lat="46.07814" lon="1.87422">
        <ele>555.779</ele>
        <time>2015-06-21T06:10:19Z</time>
      </trkpt>
      <trkpt lat="46.07765" lon="1.87396">
        <ele>552.895</ele>
        <time>2015-06-21T06:10:24Z</time>
      </trkpt>
      <trkpt lat="46.07718" lon="1.87371">
        <ele>550.011</ele>
        <time>2015-06-21T06:10:29Z</time>
      </trkpt>
      <trkpt lat="46.07677" lon="1.87336">
        <ele>547.127</ele>
        <time>2015-06-21T06:10:35Z</time>
      </trkpt>
      <trkpt lat="46.07638" lon="1.873">
        <ele>544.244</ele>
        <time>2015-06-21T06:10:46Z</time>
      </trkpt>
      <trkpt lat="46.07599" lon="1.87259">
        <ele>542.321</ele>
        <time>2015-06-21T06:10:54Z</time>
      </trkpt>
      <trkpt lat="46.07569" lon="1.87207">
        <ele>540.398</ele>
        <time>2015-06-21T06:11:01Z</time>
      </trkpt>
      <trkpt lat="46.07542" lon="1.87158">
        <ele>540.879</ele>
        <time>2015-06-21T06:11:13Z</time>
      </trkpt>
      <trkpt lat="46.07497" lon="1.87154">
        <ele>540.398</ele>
        <time>2015-06-21T06:11:22Z</time>
      </trkpt>
      <trkpt lat="46.07449" lon="1.87139">
        <ele>540.879</ele>
        <time>2015-06-21T06:11:31Z</time>
      </trkpt>
      <trkpt lat="46.07404" lon="1.87111">
        <ele>541.84</ele>
        <time>2015-06-21T06:11:40Z</time>
      </trkpt>
      <trkpt lat="46.07361" lon="1.87081">
        <ele>541.359</ele>
        <time>2015-06-21T06:11:49Z</time>
      </trkpt>
      <trkpt lat="46.07323" lon="1.87049">
        <ele>541.359</ele>
        <time>2015-06-21T06:11:57Z</time>
      </trkpt>
      <trkpt lat="46.07282" lon="1.87016">
        <ele>541.84</ele>
        <time>2015-06-21T06:12:05Z</time>
      </trkpt>
      <trkpt lat="46.07239" lon="1.86976">
        <ele>541.359</ele>
        <time>2015-06-21T06:12:13Z</time>
      </trkpt>
      <trkpt lat="46.07203" lon="1.86937">
        <ele>540.879</ele>
        <time>2015-06-21T06:12:20Z</time>
      </trkpt>
      <trkpt lat="46.07164" lon="1.86892">
        <ele>538.476</ele>
        <time>2015-06-21T06:12:28Z</time>
      </trkpt>
      <trkpt lat="46.07125" lon="1.86843">
        <ele>536.553</ele>
        <time>2015-06-21T06:12:36Z</time>
      </trkpt>
      <trkpt lat="46.07093" lon="1.86793">
        <ele>535.111</ele>
        <time>2015-06-21T06:12:43Z</time>
      </trkpt>
      <trkpt lat="46.07059" lon="1.86742">
        <ele>533.669</ele>
        <time>2015-06-21T06:12:50Z</time>
      </trkpt>
      <trkpt lat="46.07031" lon="1.86688">
        <ele>530.785</ele>
        <time>2015-06-21T06:12:56Z</time>
      </trkpt>
      <trkpt lat="46.07003" lon="1.86632">
        <ele>527.901</ele>
        <time>2015-06-21T06:13:02Z</time>
      </trkpt>
      <trkpt lat="46.06975" lon="1.8657">
        <ele>524.536</ele>
        <time>2015-06-21T06:13:08Z</time>
      </trkpt>
      <trkpt lat="46.06947" lon="1.86517">
        <ele>521.653</ele>
        <time>2015-06-21T06:13:13Z</time>
      </trkpt>
      <trkpt lat="46.06915" lon="1.86465">
        <ele>518.769</ele>
        <time>2015-06-21T06:13:18Z</time>
      </trkpt>
      <trkpt lat="46.06874" lon="1.8642">
        <ele>515.885</ele>
        <time>2015-06-21T06:13:23Z</time>
      </trkpt>
      <trkpt lat="46.06829" lon="1.86379">
        <ele>513.001</ele>
        <time>2015-06-21T06:13:28Z</time>
      </trkpt>
      <trkpt lat="46.06786" lon="1.86343">
        <ele>510.597</ele>
        <time>2015-06-21T06:13:33Z</time>
      </trkpt>
      <trkpt lat="46.06741" lon="1.86302">
        <ele>508.675</ele>
        <time>2015-06-21T06:13:39Z</time>
      </trkpt>
      <trkpt lat="46.067" lon="1.86263">
        <ele>508.194</ele>
        <time>2015-06-21T06:13:45Z</time>
      </trkpt>
      <trkpt lat="46.06662" lon="1.86229">
        <ele>506.752</ele>
        <time>2015-06-21T06:13:51Z</time>
      </trkpt>
      <trkpt lat="46.06619" lon="1.86195">
        <ele>505.791</ele>
        <time>2015-06-21T06:13:58Z</time>
      </trkpt>
      <trkpt lat="46.0657" lon="1.86171">
        <ele>505.791</ele>
        <time>2015-06-21T06:14:06Z</time>
      </trkpt>
      <trkpt lat="46.0652" lon="1.86158">
        <ele>506.271</ele>
        <time>2015-06-21T06:14:15Z</time>
      </trkpt>
      <trkpt lat="46.06471" lon="1.86156">
        <ele>509.155</ele>
        <time>2015-06-21T06:14:25Z</time>
      </trkpt>
      <trkpt lat="46.06424" lon="1.86156">
        <ele>511.078</ele>
        <time>2015-06-21T06:14:37Z</time>
      </trkpt>
      <trkpt lat="46.06379" lon="1.86154">
        <ele>511.559</ele>
        <time>2015-06-21T06:14:49Z</time>
      </trkpt>
      <trkpt lat="46.06331" lon="1.86154">
        <ele>512.039</ele>
        <time>2015-06-21T06:15:00Z</time>
      </trkpt>
      <trkpt lat="46.06284" lon="1.86154">
        <ele>512.039</ele>
        <time>2015-06-21T06:15:10Z</time>
      </trkpt>
      <trkpt lat="46.06239" lon="1.86154">
        <ele>512.039</ele>
        <time>2015-06-21T06:15:19Z</time>
      </trkpt>
      <trkpt lat="46.0619" lon="1.86152">
        <ele>512.039</ele>
        <time>2015-06-21T06:15:29Z</time>
      </trkpt>
      <trkpt lat="46.06143" lon="1.86152">
        <ele>513.001</ele>
        <time>2015-06-21T06:15:40Z</time>
      </trkpt>
      <trkpt lat="46.06095" lon="1.86152">
        <ele>515.885</ele>
        <time>2015-06-21T06:15:52Z</time>
      </trkpt>
      <trkpt lat="46.0605" lon="1.86152">
        <ele>517.807</ele>
        <time>2015-06-21T06:16:05Z</time>
      </trkpt>
      <trkpt lat="46.06005" lon="1.86152">
        <ele>520.691</ele>
        <time>2015-06-21T06:16:19Z</time>
      </trkpt>
      <trkpt lat="46.0596" lon="1.8615">
        <ele>523.095</ele>
        <time>2015-06-21T06:16:34Z</time>
      </trkpt>
      <trkpt lat="46.05913" lon="1.8615">
        <ele>525.978</ele>
        <time>2015-06-21T06:16:49Z</time>
      </trkpt>
      <trkpt lat="46.05868" lon="1.8615">
        <ele>526.94</ele>
        <time>2015-06-21T06:17:02Z</time>
      </trkpt>
      <trkpt lat="46.05823" lon="1.8615">
        <ele>528.863</ele>
        <time>2015-06-21T06:17:15Z</time>
      </trkpt>
      <trkpt lat="46.05773" lon="1.8615">
        <ele>529.343</ele>
        <time>2015-06-21T06:17:28Z</time>
      </trkpt>
      <trkpt lat="46.05726" lon="1.86147">
        <ele>528.863</ele>
        <time>2015-06-21T06:17:40Z</time>
      </trkpt>
      <trkpt lat="46.05677" lon="1.86147">
        <ele>527.901</ele>
        <time>2015-06-21T06:17:53Z</time>
      </trkpt>
      <trkpt lat="46.05632" lon="1.86147">
        <ele>526.459</ele>
        <time>2015-06-21T06:18:03Z</time>
      </trkpt>
      <trkpt lat="46.05585" lon="1.86147">
        <ele>523.575</ele>
        <time>2015-06-21T06:18:13Z</time>
      </trkpt>
      <trkpt lat="46.05535" lon="1.86145">
        <ele>521.172</ele>
        <time>2015-06-21T06:18:23Z</time>
      </trkpt>
      <trkpt lat="46.05488" lon="1.86145">
        <ele>520.691</ele>
        <time>2015-06-21T06:18:32Z</time>
      </trkpt>
      <trkpt lat="46.05443" lon="1.86145">
        <ele>520.211</ele>
        <time>2015-06-21T06:18:40Z</time>
      </trkpt>
      <trkpt lat="46.05396" lon="1.86152">
        <ele>519.249</ele>
        <time>2015-06-21T06:18:49Z</time>
      </trkpt>
      <trkpt lat="46.05346" lon="1.86162">
        <ele>518.288</ele>
        <time>2015-06-21T06:18:58Z</time>
      </trkpt>
      <trkpt lat="46.05301" lon="1.8618">
        <ele>518.288</ele>
        <time>2015-06-21T06:19:07Z</time>
      </trkpt>
      <trkpt lat="46.05256" lon="1.86197">
        <ele>519.249</ele>
        <time>2015-06-21T06:19:17Z</time>
      </trkpt>
      <trkpt lat="46.05211" lon="1.86212">
        <ele>519.249</ele>
        <time>2015-06-21T06:19:27Z</time>
      </trkpt>
      <trkpt lat="46.05164" lon="1.86218">
        <ele>520.211</ele>
        <time>2015-06-21T06:19:38Z</time>
      </trkpt>
      <trkpt lat="46.05117" lon="1.86218">
        <ele>521.172</ele>
        <time>2015-06-21T06:19:49Z</time>
      </trkpt>
      <trkpt lat="46.05072" lon="1.8621">
        <ele>522.133</ele>
        <time>2015-06-21T06:20:00Z</time>
      </trkpt>
      <trkpt lat="46.05027" lon="1.86195">
        <ele>523.095</ele>
        <time>2015-06-21T06:20:11Z</time>
      </trkpt>
      <trkpt lat="46.04982" lon="1.86173">
        <ele>523.575</ele>
        <time>2015-06-21T06:20:23Z</time>
      </trkpt>
      <trkpt lat="46.04939" lon="1.8615">
        <ele>524.536</ele>
        <time>2015-06-21T06:20:35Z</time>
      </trkpt>
      <trkpt lat="46.04892" lon="1.86126">
        <ele>525.978</ele>
        <time>2015-06-21T06:20:47Z</time>
      </trkpt>
      <trkpt lat="46.04849" lon="1.86102">
        <ele>526.94</ele>
        <time>2015-06-21T06:20:59Z</time>
      </trkpt>
      <trkpt lat="46.04804" lon="1.86079">
        <ele>526.94</ele>
        <time>2015-06-21T06:21:11Z</time>
      </trkpt>
      <trkpt lat="46.04759" lon="1.86057">
        <ele>527.901</ele>
        <time>2015-06-21T06:21:23Z</time>
      </trkpt>
      <trkpt lat="46.04718" lon="1.86036">
        <ele>529.343</ele>
        <time>2015-06-21T06:21:35Z</time>
      </trkpt>
      <trkpt lat="46.04711" lon="1.85987">
        <ele>532.708</ele>
        <time>2015-06-21T06:21:58Z</time>
      </trkpt>
      <trkpt lat="46.04739" lon="1.85935">
        <ele>538.956</ele>
        <time>2015-06-21T06:22:23Z</time>
      </trkpt>
      <trkpt lat="46.04778" lon="1.85899">
        <ele>540.398</ele>
        <time>2015-06-21T06:22:53Z</time>
      </trkpt>
      <trkpt lat="46.04743" lon="1.85926">
        <ele>540.398</ele>
        <time>2015-06-21T06:23:34Z</time>
      </trkpt>
      <trkpt lat="46.04711" lon="1.85974">
        <ele>537.995</ele>
        <time>2015-06-21T06:23:44Z</time>
      </trkpt>
      <trkpt lat="46.04681" lon="1.86019">
        <ele>534.15</ele>
        <time>2015-06-21T06:23:51Z</time>
      </trkpt>
      <trkpt lat="46.04638" lon="1.85995">
        <ele>534.15</ele>
        <time>2015-06-21T06:23:59Z</time>
      </trkpt>
      <trkpt lat="46.04591" lon="1.85969">
        <ele>533.188</ele>
        <time>2015-06-21T06:24:08Z</time>
      </trkpt>
      <trkpt lat="46.0455" lon="1.85941">
        <ele>531.266</ele>
        <time>2015-06-21T06:24:16Z</time>
      </trkpt>
      <trkpt lat="46.04507" lon="1.85909">
        <ele>530.785</ele>
        <time>2015-06-21T06:24:24Z</time>
      </trkpt>
      <trkpt lat="46.04467" lon="1.85875">
        <ele>529.343</ele>
        <time>2015-06-21T06:24:32Z</time>
      </trkpt>
      <trkpt lat="46.04419" lon="1.85886">
        <ele>527.901</ele>
        <time>2015-06-21T06:24:41Z</time>
      </trkpt>
      <trkpt lat="46.0437" lon="1.85899">
        <ele>525.978</ele>
        <time>2015-06-21T06:24:49Z</time>
      </trkpt>
      <trkpt lat="46.04323" lon="1.85918">
        <ele>524.056</ele>
        <time>2015-06-21T06:24:57Z</time>
      </trkpt>
      <trkpt lat="46.04276" lon="1.85907">
        <ele>520.691</ele>
        <time>2015-06-21T06:25:07Z</time>
      </trkpt>
      <trkpt lat="46.04226" lon="1.85896">
        <ele>517.807</ele>
        <time>2015-06-21T06:25:16Z</time>
      </trkpt>
      <trkpt lat="46.04194" lon="1.85948">
        <ele>513.481</ele>
        <time>2015-06-21T06:25:26Z</time>
      </trkpt>
      <trkpt lat="46.04145" lon="1.85974">
        <ele>514.443</ele>
        <time>2015-06-21T06:25:39Z</time>
      </trkpt>
      <trkpt lat="46.04093" lon="1.8598">
        <ele>521.172</ele>
        <time>2015-06-21T06:25:58Z</time>
      </trkpt>
      <trkpt lat="46.04046" lon="1.85991">
        <ele>528.863</ele>
        <time>2015-06-21T06:26:22Z</time>
      </trkpt>
      <trkpt lat="46.04001" lon="1.85976">
        <ele>531.746</ele>
        <time>2015-06-21T06:26:40Z</time>
      </trkpt>
      <trkpt lat="46.03958" lon="1.85961">
        <ele>532.708</ele>
        <time>2015-06-21T06:26:59Z</time>
      </trkpt>
      <trkpt lat="46.03911" lon="1.85961">
        <ele>534.15</ele>
        <time>2015-06-21T06:27:19Z</time>
      </trkpt>
      <trkpt lat="46.03864" lon="1.85963">
        <ele>533.669</ele>
        <time>2015-06-21T06:27:36Z</time>
      </trkpt>
      <trkpt lat="46.03819" lon="1.85976">
        <ele>533.188</ele>
        <time>2015-06-21T06:27:52Z</time>
      </trkpt>
      <trkpt lat="46.03771" lon="1.85974">
        <ele>532.227</ele>
        <time>2015-06-21T06:28:04Z</time>
      </trkpt>
      <trkpt lat="46.03733" lon="1.85939">
        <ele>529.824</ele>
        <time>2015-06-21T06:28:17Z</time>
      </trkpt>
      <trkpt lat="46.03705" lon="1.85879">
        <ele>521.172</ele>
        <time>2015-06-21T06:28:31Z</time>
      </trkpt>
      <trkpt lat="46.03688" lon="1.85815">
        <ele>519.249</ele>
        <time>2015-06-21T06:28:47Z</time>
      </trkpt>
      <trkpt lat="46.03668" lon="1.85746">
        <ele>523.095</ele>
        <time>2015-06-21T06:29:04Z</time>
      </trkpt>
      <trkpt lat="46.03645" lon="1.85667">
        <ele>522.614</ele>
        <time>2015-06-21T06:29:23Z</time>
      </trkpt>
      <trkpt lat="46.03623" lon="1.85581">
        <ele>519.73</ele>
        <time>2015-06-21T06:29:44Z</time>
      </trkpt>
      <trkpt lat="46.0358" lon="1.8556">
        <ele>529.343</ele>
        <time>2015-06-21T06:30:00Z</time>
      </trkpt>
      <trkpt lat="46.03542" lon="1.85572">
        <ele>536.072</ele>
        <time>2015-06-21T06:30:19Z</time>
      </trkpt>
      <trkpt lat="46.03495" lon="1.85583">
        <ele>539.437</ele>
        <time>2015-06-21T06:30:38Z</time>
      </trkpt>
      <trkpt lat="46.03452" lon="1.85609">
        <ele>540.879</ele>
        <time>2015-06-21T06:30:54Z</time>
      </trkpt>
      <trkpt lat="46.03426" lon="1.85553">
        <ele>539.437</ele>
        <time>2015-06-21T06:31:08Z</time>
      </trkpt>
      <trkpt lat="46.03417" lon="1.85482">
        <ele>541.359</ele>
        <time>2015-06-21T06:31:24Z</time>
      </trkpt>
      <trkpt lat="46.03428" lon="1.85416">
        <ele>542.802</ele>
        <time>2015-06-21T06:31:40Z</time>
      </trkpt>
      <trkpt lat="46.03465" lon="1.85364">
        <ele>546.166</ele>
        <time>2015-06-21T06:31:56Z</time>
      </trkpt>
      <trkpt lat="46.03488" lon="1.85304">
        <ele>548.569</ele>
        <time>2015-06-21T06:32:11Z</time>
      </trkpt>
      <trkpt lat="46.03458" lon="1.85259">
        <ele>548.089</ele>
        <time>2015-06-21T06:32:27Z</time>
      </trkpt>
      <trkpt lat="46.03413" lon="1.8524">
        <ele>546.166</ele>
        <time>2015-06-21T06:32:41Z</time>
      </trkpt>
      <trkpt lat="46.03368" lon="1.85218">
        <ele>545.686</ele>
        <time>2015-06-21T06:32:55Z</time>
      </trkpt>
      <trkpt lat="46.03321" lon="1.85195">
        <ele>543.282</ele>
        <time>2015-06-21T06:33:05Z</time>
      </trkpt>
      <trkpt lat="46.0328" lon="1.85158">
        <ele>540.879</ele>
        <time>2015-06-21T06:33:13Z</time>
      </trkpt>
      <trkpt lat="46.03246" lon="1.85111">
        <ele>539.918</ele>
        <time>2015-06-21T06:33:20Z</time>
      </trkpt>
      <trkpt lat="46.03246" lon="1.85042">
        <ele>538.476</ele>
        <time>2015-06-21T06:33:27Z</time>
      </trkpt>
      <trkpt lat="46.03267" lon="1.84978">
        <ele>535.111</ele>
        <time>2015-06-21T06:33:34Z</time>
      </trkpt>
      <trkpt lat="46.03244" lon="1.84916">
        <ele>531.746</ele>
        <time>2015-06-21T06:33:41Z</time>
      </trkpt>
      <trkpt lat="46.03196" lon="1.84896">
        <ele>529.343</ele>
        <time>2015-06-21T06:33:47Z</time>
      </trkpt>
      <trkpt lat="46.03151" lon="1.84879">
        <ele>527.42</ele>
        <time>2015-06-21T06:33:53Z</time>
      </trkpt>
      <trkpt lat="46.03117" lon="1.84845">
        <ele>525.978</ele>
        <time>2015-06-21T06:34:08Z</time>
      </trkpt>
      <trkpt lat="46.03074" lon="1.84843">
        <ele>526.459</ele>
        <time>2015-06-21T06:34:25Z</time>
      </trkpt>
      <trkpt lat="46.03027" lon="1.84862">
        <ele>525.017</ele>
        <time>2015-06-21T06:34:36Z</time>
      </trkpt>
      <trkpt lat="46.02982" lon="1.84884">
        <ele>523.095</ele>
        <time>2015-06-21T06:34:46Z</time>
      </trkpt>
      <trkpt lat="46.02937" lon="1.84905">
        <ele>521.172</ele>
        <time>2015-06-21T06:35:02Z</time>
      </trkpt>
      <trkpt lat="46.0289" lon="1.8492">
        <ele>519.73</ele>
        <time>2015-06-21T06:35:59Z</time>
      </trkpt>
      <trkpt lat="46.02842" lon="1.84927">
        <ele>519.249</ele>
        <time>2015-06-21T06:36:08Z</time>
      </trkpt>
      <trkpt lat="46.02795" lon="1.84927">
        <ele>517.807</ele>
        <time>2015-06-21T06:36:15Z</time>
      </trkpt>
      <trkpt lat="46.02748" lon="1.84914">
        <ele>515.885</ele>
        <time>2015-06-21T06:36:22Z</time>
      </trkpt>
      <trkpt lat="46.02701" lon="1.8489">
        <ele>514.443</ele>
        <time>2015-06-21T06:36:29Z</time>
      </trkpt>
      <trkpt lat="46.0266" lon="1.8486">
        <ele>513.001</ele>
        <time>2015-06-21T06:36:35Z</time>
      </trkpt>
      <trkpt lat="46.02617" lon="1.84817">
        <ele>511.559</ele>
        <time>2015-06-21T06:36:42Z</time>
      </trkpt>
      <trkpt lat="46.02581" lon="1.84778">
        <ele>510.117</ele>
        <time>2015-06-21T06:36:48Z</time>
      </trkpt>
      <trkpt lat="46.02544" lon="1.84736">
        <ele>509.636</ele>
        <time>2015-06-21T06:36:54Z</time>
      </trkpt>
      <trkpt lat="46.02508" lon="1.84684">
        <ele>508.675</ele>
        <time>2015-06-21T06:37:01Z</time>
      </trkpt>
      <trkpt lat="46.02473" lon="1.84633">
        <ele>508.675</ele>
        <time>2015-06-21T06:37:08Z</time>
      </trkpt>
      <trkpt lat="46.02439" lon="1.84579">
        <ele>508.675</ele>
        <time>2015-06-21T06:37:16Z</time>
      </trkpt>
      <trkpt lat="46.02402" lon="1.84534">
        <ele>508.194</ele>
        <time>2015-06-21T06:37:24Z</time>
      </trkpt>
      <trkpt lat="46.02364" lon="1.84497">
        <ele>507.714</ele>
        <time>2015-06-21T06:37:32Z</time>
      </trkpt>
      <trkpt lat="46.02319" lon="1.84474">
        <ele>507.714</ele>
        <time>2015-06-21T06:37:41Z</time>
      </trkpt>
      <trkpt lat="46.02289" lon="1.84433">
        <ele>507.233</ele>
        <time>2015-06-21T06:37:50Z</time>
      </trkpt>
      <trkpt lat="46.02293" lon="1.84366">
        <ele>508.675</ele>
        <time>2015-06-21T06:38:02Z</time>
      </trkpt>
      <trkpt lat="46.02287" lon="1.84332">
        <ele>508.675</ele>
        <time>2015-06-21T06:38:27Z</time>
      </trkpt>
      <trkpt lat="46.0225" lon="1.84289">
        <ele>509.636</ele>
        <time>2015-06-21T06:38:44Z</time>
      </trkpt>
      <trkpt lat="46.02216" lon="1.8424">
        <ele>510.117</ele>
        <time>2015-06-21T06:38:58Z</time>
      </trkpt>
      <trkpt lat="46.02177" lon="1.84203">
        <ele>507.714</ele>
        <time>2015-06-21T06:39:11Z</time>
      </trkpt>
      <trkpt lat="46.02143" lon="1.84163">
        <ele>506.752</ele>
        <time>2015-06-21T06:39:23Z</time>
      </trkpt>
      <trkpt lat="46.02117" lon="1.84105">
        <ele>507.233</ele>
        <time>2015-06-21T06:39:37Z</time>
      </trkpt>
      <trkpt lat="46.02108" lon="1.84038">
        <ele>507.233</ele>
        <time>2015-06-21T06:39:51Z</time>
      </trkpt>
      <trkpt lat="46.02117" lon="1.83969">
        <ele>508.675</ele>
        <time>2015-06-21T06:40:05Z</time>
      </trkpt>
      <trkpt lat="46.02115" lon="1.83903">
        <ele>509.155</ele>
        <time>2015-06-21T06:40:22Z</time>
      </trkpt>
      <trkpt lat="46.02083" lon="1.83856">
        <ele>513.001</ele>
        <time>2015-06-21T06:40:41Z</time>
      </trkpt>
      <trkpt lat="46.02068" lon="1.83791">
        <ele>515.885</ele>
        <time>2015-06-21T06:40:58Z</time>
      </trkpt>
      <trkpt lat="46.02053" lon="1.83729">
        <ele>516.365</ele>
        <time>2015-06-21T06:41:12Z</time>
      </trkpt>
      <trkpt lat="46.02025" lon="1.83676">
        <ele>515.885</ele>
        <time>2015-06-21T06:41:24Z</time>
      </trkpt>
      <trkpt lat="46.01995" lon="1.83624">
        <ele>514.923</ele>
        <time>2015-06-21T06:41:35Z</time>
      </trkpt>
      <trkpt lat="46.01982" lon="1.83553">
        <ele>513.481</ele>
        <time>2015-06-21T06:41:44Z</time>
      </trkpt>
      <trkpt lat="46.01969" lon="1.83489">
        <ele>511.078</ele>
        <time>2015-06-21T06:41:51Z</time>
      </trkpt>
      <trkpt lat="46.01973" lon="1.83424">
        <ele>509.636</ele>
        <time>2015-06-21T06:41:58Z</time>
      </trkpt>
      <trkpt lat="46.01988" lon="1.8336">
        <ele>507.233</ele>
        <time>2015-06-21T06:42:05Z</time>
      </trkpt>
      <trkpt lat="46.02001" lon="1.83302">
        <ele>503.868</ele>
        <time>2015-06-21T06:42:14Z</time>
      </trkpt>
      <trkpt lat="46.01954" lon="1.83311">
        <ele>500.984</ele>
        <time>2015-06-21T06:42:24Z</time>
      </trkpt>
      <trkpt lat="46.01913" lon="1.83339">
        <ele>498.581</ele>
        <time>2015-06-21T06:42:32Z</time>
      </trkpt>
      <trkpt lat="46.0187" lon="1.83369">
        <ele>498.1</ele>
        <time>2015-06-21T06:42:41Z</time>
      </trkpt>
      <trkpt lat="46.01827" lon="1.8339">
        <ele>500.504</ele>
        <time>2015-06-21T06:42:54Z</time>
      </trkpt>
      <trkpt lat="46.01784" lon="1.83405">
        <ele>504.829</ele>
        <time>2015-06-21T06:43:12Z</time>
      </trkpt>
      <trkpt lat="46.01739" lon="1.83427">
        <ele>506.752</ele>
        <time>2015-06-21T06:43:30Z</time>
      </trkpt>
      <trkpt lat="46.01696" lon="1.83467">
        <ele>501.946</ele>
        <time>2015-06-21T06:43:41Z</time>
      </trkpt>
      <trkpt lat="46.01658" lon="1.83508">
        <ele>500.023</ele>
        <time>2015-06-21T06:43:49Z</time>
      </trkpt>
      <trkpt lat="46.01617" lon="1.83542">
        <ele>498.581</ele>
        <time>2015-06-21T06:43:58Z</time>
      </trkpt>
      <trkpt lat="46.01576" lon="1.83581">
        <ele>495.697</ele>
        <time>2015-06-21T06:44:07Z</time>
      </trkpt>
      <trkpt lat="46.01536" lon="1.8362">
        <ele>490.89</ele>
        <time>2015-06-21T06:44:16Z</time>
      </trkpt>
      <trkpt lat="46.01536" lon="1.83682">
        <ele>488.487</ele>
        <time>2015-06-21T06:44:27Z</time>
      </trkpt>
      <trkpt lat="46.01553" lon="1.83744">
        <ele>488.968</ele>
        <time>2015-06-21T06:44:38Z</time>
      </trkpt>
      <trkpt lat="46.01525" lon="1.83783">
        <ele>487.526</ele>
        <time>2015-06-21T06:44:49Z</time>
      </trkpt>
      <trkpt lat="46.01478" lon="1.83791">
        <ele>484.161</ele>
        <time>2015-06-21T06:44:59Z</time>
      </trkpt>
      <trkpt lat="46.01433" lon="1.83789">
        <ele>481.758</ele>
        <time>2015-06-21T06:45:08Z</time>
      </trkpt>
      <trkpt lat="46.01398" lon="1.83832">
        <ele>479.835</ele>
        <time>2015-06-21T06:45:17Z</time>
      </trkpt>
      <trkpt lat="46.01362" lon="1.83877">
        <ele>477.432</ele>
        <time>2015-06-21T06:45:26Z</time>
      </trkpt>
      <trkpt lat="46.01325" lon="1.83922">
        <ele>481.758</ele>
        <time>2015-06-21T06:45:40Z</time>
      </trkpt>
      <trkpt lat="46.01282" lon="1.83942">
        <ele>483.68</ele>
        <time>2015-06-21T06:45:55Z</time>
      </trkpt>
      <trkpt lat="46.01235" lon="1.83933">
        <ele>482.719</ele>
        <time>2015-06-21T06:46:06Z</time>
      </trkpt>
      <trkpt lat="46.01186" lon="1.83929">
        <ele>480.316</ele>
        <time>2015-06-21T06:46:19Z</time>
      </trkpt>
      <trkpt lat="46.01128" lon="1.83931">
        <ele>478.874</ele>
        <time>2015-06-21T06:46:37Z</time>
      </trkpt>
      <trkpt lat="46.01074" lon="1.83924">
        <ele>476.951</ele>
        <time>2015-06-21T06:46:47Z</time>
      </trkpt>
      <trkpt lat="46.01023" lon="1.83916">
        <ele>477.432</ele>
        <time>2015-06-21T06:47:00Z</time>
      </trkpt>
      <trkpt lat="46.00982" lon="1.83967">
        <ele>479.354</ele>
        <time>2015-06-21T06:47:39Z</time>
      </trkpt>
      <trkpt lat="46.00943" lon="1.84023">
        <ele>484.642</ele>
        <time>2015-06-21T06:48:02Z</time>
      </trkpt>
      <trkpt lat="46.00928" lon="1.84098">
        <ele>497.139</ele>
        <time>2015-06-21T06:48:26Z</time>
      </trkpt>
      <trkpt lat="46.009" lon="1.84169">
        <ele>501.946</ele>
        <time>2015-06-21T06:48:50Z</time>
      </trkpt>
      <trkpt lat="46.0086" lon="1.84208">
        <ele>499.542</ele>
        <time>2015-06-21T06:49:12Z</time>
      </trkpt>
      <trkpt lat="46.00812" lon="1.84242">
        <ele>501.465</ele>
        <time>2015-06-21T06:49:41Z</time>
      </trkpt>
      <trkpt lat="46.00757" lon="1.84263">
        <ele>503.868</ele>
        <time>2015-06-21T06:50:05Z</time>
      </trkpt>
      <trkpt lat="46.00709" lon="1.84253">
        <ele>505.791</ele>
        <time>2015-06-21T06:50:26Z</time>
      </trkpt>
      <trkpt lat="46.00673" lon="1.84218">
        <ele>503.868</ele>
        <time>2015-06-21T06:50:46Z</time>
      </trkpt>
      <trkpt lat="46.00652" lon="1.84158">
        <ele>502.907</ele>
        <time>2015-06-21T06:50:56Z</time>
      </trkpt>
      <trkpt lat="46.00634" lon="1.84092">
        <ele>500.504</ele>
        <time>2015-06-21T06:51:06Z</time>
      </trkpt>
      <trkpt lat="46.00619" lon="1.84027">
        <ele>497.139</ele>
        <time>2015-06-21T06:51:17Z</time>
      </trkpt>
      <trkpt lat="46.00602" lon="1.83967">
        <ele>491.371</ele>
        <time>2015-06-21T06:51:33Z</time>
      </trkpt>
      <trkpt lat="46.00572" lon="1.83912">
        <ele>484.642</ele>
        <time>2015-06-21T06:51:47Z</time>
      </trkpt>
      <trkpt lat="46.00525" lon="1.83897">
        <ele>482.719</ele>
        <time>2015-06-21T06:51:59Z</time>
      </trkpt>
      <trkpt lat="46.00486" lon="1.83922">
        <ele>480.797</ele>
        <time>2015-06-21T06:52:09Z</time>
      </trkpt>
      <trkpt lat="46.00452" lon="1.83972">
        <ele>479.354</ele>
        <time>2015-06-21T06:52:18Z</time>
      </trkpt>
      <trkpt lat="46.00413" lon="1.84006">
        <ele>479.835</ele>
        <time>2015-06-21T06:52:31Z</time>
      </trkpt>
      <trkpt lat="46.00366" lon="1.84025">
        <ele>478.393</ele>
        <time>2015-06-21T06:52:44Z</time>
      </trkpt>
      <trkpt lat="46.00321" lon="1.84051">
        <ele>473.106</ele>
        <time>2015-06-21T06:52:52Z</time>
      </trkpt>
      <trkpt lat="46.00274" lon="1.84081">
        <ele>466.857</ele>
        <time>2015-06-21T06:52:59Z</time>
      </trkpt>
      <trkpt lat="46.00224" lon="1.84113">
        <ele>460.609</ele>
        <time>2015-06-21T06:53:05Z</time>
      </trkpt>
      <trkpt lat="46.00182" lon="1.84133">
        <ele>455.802</ele>
        <time>2015-06-21T06:53:12Z</time>
      </trkpt>
      <trkpt lat="46.00145" lon="1.84173">
        <ele>454.841</ele>
        <time>2015-06-21T06:53:20Z</time>
      </trkpt>
      <trkpt lat="46.00111" lon="1.84227">
        <ele>453.88</ele>
        <time>2015-06-21T06:53:28Z</time>
      </trkpt>
      <trkpt lat="46.00076" lon="1.84278">
        <ele>453.399</ele>
        <time>2015-06-21T06:53:36Z</time>
      </trkpt>
      <trkpt lat="46.00046" lon="1.8433">
        <ele>453.399</ele>
        <time>2015-06-21T06:53:45Z</time>
      </trkpt>
      <trkpt lat="46.00025" lon="1.8439">
        <ele>452.918</ele>
        <time>2015-06-21T06:53:56Z</time>
      </trkpt>
      <trkpt lat="46.00016" lon="1.84454">
        <ele>451.476</ele>
        <time>2015-06-21T06:54:05Z</time>
      </trkpt>
      <trkpt lat="46.00006" lon="1.84523">
        <ele>450.996</ele>
        <time>2015-06-21T06:54:15Z</time>
      </trkpt>
      <trkpt lat="45.99988" lon="1.84587">
        <ele>450.034</ele>
        <time>2015-06-21T06:54:25Z</time>
      </trkpt>
      <trkpt lat="45.99961" lon="1.84641">
        <ele>450.034</ele>
        <time>2015-06-21T06:54:35Z</time>
      </trkpt>
      <trkpt lat="45.99928" lon="1.84693">
        <ele>450.034</ele>
        <time>2015-06-21T06:54:46Z</time>
      </trkpt>
      <trkpt lat="45.99888" lon="1.84723">
        <ele>450.515</ele>
        <time>2015-06-21T06:54:57Z</time>
      </trkpt>
      <trkpt lat="45.99843" lon="1.84742">
        <ele>452.438</ele>
        <time>2015-06-21T06:55:10Z</time>
      </trkpt>
      <trkpt lat="45.99797" lon="1.84761">
        <ele>452.438</ele>
        <time>2015-06-21T06:55:23Z</time>
      </trkpt>
      <trkpt lat="45.99752" lon="1.84778">
        <ele>452.918</ele>
        <time>2015-06-21T06:55:38Z</time>
      </trkpt>
      <trkpt lat="45.9971" lon="1.84787">
        <ele>452.918</ele>
        <time>2015-06-21T06:55:53Z</time>
      </trkpt>
      <trkpt lat="45.99682" lon="1.84729">
        <ele>452.438</ele>
        <time>2015-06-21T06:56:03Z</time>
      </trkpt>
      <trkpt lat="45.99649" lon="1.84678">
        <ele>452.438</ele>
        <time>2015-06-21T06:56:14Z</time>
      </trkpt>
      <trkpt lat="45.99634" lon="1.84645">
        <ele>451.476</ele>
        <time>2015-06-21T07:01:47Z</time>
      </trkpt>
      <trkpt lat="45.996" lon="1.84602">
        <ele>450.996</ele>
        <time>2015-06-21T07:02:37Z</time>
      </trkpt>
      <trkpt lat="45.99561" lon="1.84626">
        <ele>452.918</ele>
        <time>2015-06-21T07:02:55Z</time>
      </trkpt>
      <trkpt lat="45.99527" lon="1.84678">
        <ele>449.554</ele>
        <time>2015-06-21T07:03:07Z</time>
      </trkpt>
      <trkpt lat="45.99491" lon="1.84718">
        <ele>448.112</ele>
        <time>2015-06-21T07:03:20Z</time>
      </trkpt>
      <trkpt lat="45.99454" lon="1.84759">
        <ele>447.631</ele>
        <time>2015-06-21T07:03:35Z</time>
      </trkpt>
      <trkpt lat="45.99416" lon="1.848">
        <ele>447.631</ele>
        <time>2015-06-21T07:03:49Z</time>
      </trkpt>
      <trkpt lat="45.99383" lon="1.84847">
        <ele>447.15</ele>
        <time>2015-06-21T07:04:02Z</time>
      </trkpt>
      <trkpt lat="45.99351" lon="1.84901">
        <ele>445.708</ele>
        <time>2015-06-21T07:04:14Z</time>
      </trkpt>
      <trkpt lat="45.99315" lon="1.84939">
        <ele>449.073</ele>
        <time>2015-06-21T07:04:30Z</time>
      </trkpt>
      <trkpt lat="45.9927" lon="1.84967">
        <ele>459.648</ele>
        <time>2015-06-21T07:04:47Z</time>
      </trkpt>
      <trkpt lat="45.99218" lon="1.84997">
        <ele>457.725</ele>
        <time>2015-06-21T07:05:00Z</time>
      </trkpt>
      <trkpt lat="45.99173" lon="1.85038">
        <ele>454.841</ele>
        <time>2015-06-21T07:05:18Z</time>
      </trkpt>
      <trkpt lat="45.99128" lon="1.85085">
        <ele>451.957</ele>
        <time>2015-06-21T07:05:41Z</time>
      </trkpt>
      <trkpt lat="45.99092" lon="1.85133">
        <ele>455.322</ele>
        <time>2015-06-21T07:06:12Z</time>
      </trkpt>
      <trkpt lat="45.99044" lon="1.85175">
        <ele>452.438</ele>
        <time>2015-06-21T07:07:28Z</time>
      </trkpt>
      <trkpt lat="45.98989" lon="1.85212">
        <ele>450.996</ele>
        <time>2015-06-21T07:08:00Z</time>
      </trkpt>
      <trkpt lat="45.98935" lon="1.85291">
        <ele>460.128</ele>
        <time>2015-06-21T07:08:37Z</time>
      </trkpt>
      <trkpt lat="45.98868" lon="1.85334">
        <ele>464.454</ele>
        <time>2015-06-21T07:09:10Z</time>
      </trkpt>
      <trkpt lat="45.98789" lon="1.85345">
        <ele>468.299</ele>
        <time>2015-06-21T07:09:34Z</time>
      </trkpt>
      <trkpt lat="45.98744" lon="1.85332">
        <ele>463.973</ele>
        <time>2015-06-21T07:10:01Z</time>
      </trkpt>
      <trkpt lat="45.98699" lon="1.85315">
        <ele>465.416</ele>
        <time>2015-06-21T07:10:27Z</time>
      </trkpt>
      <trkpt lat="45.98665" lon="1.8527">
        <ele>471.183</ele>
        <time>2015-06-21T07:10:57Z</time>
      </trkpt>
      <trkpt lat="45.98622" lon="1.85251">
        <ele>475.99</ele>
        <time>2015-06-21T07:11:27Z</time>
      </trkpt>
      <trkpt lat="45.98577" lon="1.85261">
        <ele>480.316</ele>
        <time>2015-06-21T07:11:58Z</time>
      </trkpt>
      <trkpt lat="45.98536" lon="1.85287">
        <ele>481.758</ele>
        <time>2015-06-21T07:12:27Z</time>
      </trkpt>
      <trkpt lat="45.98495" lon="1.85308">
        <ele>481.758</ele>
        <time>2015-06-21T07:13:52Z</time>
      </trkpt>
      <trkpt lat="45.98461" lon="1.85354">
        <ele>479.835</ele>
        <time>2015-06-21T07:14:03Z</time>
      </trkpt>
      <trkpt lat="45.98433" lon="1.85409">
        <ele>478.874</ele>
        <time>2015-06-21T07:14:14Z</time>
      </trkpt>
      <trkpt lat="45.98394" lon="1.85431">
        <ele>483.2</ele>
        <time>2015-06-21T07:14:36Z</time>
      </trkpt>
      <trkpt lat="45.98364" lon="1.85381">
        <ele>486.084</ele>
        <time>2015-06-21T07:14:57Z</time>
      </trkpt>
      <trkpt lat="45.98351" lon="1.85319">
        <ele>488.006</ele>
        <time>2015-06-21T07:15:18Z</time>
      </trkpt>
      <trkpt lat="45.98373" lon="1.85268">
        <ele>492.332</ele>
        <time>2015-06-21T07:15:44Z</time>
      </trkpt>
      <trkpt lat="45.98386" lon="1.85197">
        <ele>493.774</ele>
        <time>2015-06-21T07:16:24Z</time>
      </trkpt>
      <trkpt lat="45.98383" lon="1.85124">
        <ele>500.504</ele>
        <time>2015-06-21T07:16:56Z</time>
      </trkpt>
      <trkpt lat="45.98368" lon="1.85062">
        <ele>504.829</ele>
        <time>2015-06-21T07:17:25Z</time>
      </trkpt>
      <trkpt lat="45.98358" lon="1.84997">
        <ele>510.117</ele>
        <time>2015-06-21T07:17:58Z</time>
      </trkpt>
      <trkpt lat="45.98358" lon="1.84933">
        <ele>513.962</ele>
        <time>2015-06-21T07:18:37Z</time>
      </trkpt>
      <trkpt lat="45.98321" lon="1.84888">
        <ele>523.095</ele>
        <time>2015-06-21T07:19:11Z</time>
      </trkpt>
      <trkpt lat="45.98295" lon="1.84836">
        <ele>523.575</ele>
        <time>2015-06-21T07:19:34Z</time>
      </trkpt>
      <trkpt lat="45.98313" lon="1.84774">
        <ele>522.614</ele>
        <time>2015-06-21T07:19:58Z</time>
      </trkpt>
      <trkpt lat="45.98334" lon="1.84716">
        <ele>524.056</ele>
        <time>2015-06-21T07:20:26Z</time>
      </trkpt>
      <trkpt lat="45.98349" lon="1.8465">
        <ele>525.017</ele>
        <time>2015-06-21T07:20:54Z</time>
      </trkpt>
      <trkpt lat="45.98353" lon="1.84583">
        <ele>530.304</ele>
        <time>2015-06-21T07:21:20Z</time>
      </trkpt>
      <trkpt lat="45.98336" lon="1.84521">
        <ele>538.476</ele>
        <time>2015-06-21T07:21:53Z</time>
      </trkpt>
      <trkpt lat="45.98313" lon="1.84465">
        <ele>549.05</ele>
        <time>2015-06-21T07:22:29Z</time>
      </trkpt>
      <trkpt lat="45.98285" lon="1.84414">
        <ele>557.221</ele>
        <time>2015-06-21T07:23:05Z</time>
      </trkpt>
      <trkpt lat="45.98248" lon="1.84435">
        <ele>562.028</ele>
        <time>2015-06-21T07:23:40Z</time>
      </trkpt>
      <trkpt lat="45.98214" lon="1.84476">
        <ele>565.393</ele>
        <time>2015-06-21T07:24:16Z</time>
      </trkpt>
      <trkpt lat="45.9818" lon="1.84521">
        <ele>571.16</ele>
        <time>2015-06-21T07:24:52Z</time>
      </trkpt>
      <trkpt lat="45.98139" lon="1.84553">
        <ele>574.044</ele>
        <time>2015-06-21T07:25:27Z</time>
      </trkpt>
      <trkpt lat="45.98098" lon="1.84575">
        <ele>581.735</ele>
        <time>2015-06-21T07:26:02Z</time>
      </trkpt>
      <trkpt lat="45.98053" lon="1.8457">
        <ele>590.387</ele>
        <time>2015-06-21T07:26:38Z</time>
      </trkpt>
      <trkpt lat="45.98008" lon="1.8457">
        <ele>596.155</ele>
        <time>2015-06-21T07:27:13Z</time>
      </trkpt>
      <trkpt lat="45.97961" lon="1.84564">
        <ele>593.751</ele>
        <time>2015-06-21T07:27:49Z</time>
      </trkpt>
      <trkpt lat="45.97911" lon="1.84555">
        <ele>598.558</ele>
        <time>2015-06-21T07:29:52Z</time>
      </trkpt>
      <trkpt lat="45.97862" lon="1.84545">
        <ele>601.923</ele>
        <time>2015-06-21T07:30:18Z</time>
      </trkpt>
      <trkpt lat="45.97817" lon="1.84534">
        <ele>600.961</ele>
        <time>2015-06-21T07:30:36Z</time>
      </trkpt>
      <trkpt lat="45.97785" lon="1.84484">
        <ele>600.961</ele>
        <time>2015-06-21T07:30:51Z</time>
      </trkpt>
      <trkpt lat="45.97746" lon="1.84454">
        <ele>598.077</ele>
        <time>2015-06-21T07:31:01Z</time>
      </trkpt>
      <trkpt lat="45.97701" lon="1.84472">
        <ele>596.155</ele>
        <time>2015-06-21T07:31:10Z</time>
      </trkpt>
      <trkpt lat="45.97656" lon="1.84493">
        <ele>600.961</ele>
        <time>2015-06-21T07:31:33Z</time>
      </trkpt>
      <trkpt lat="45.97632" lon="1.84547">
        <ele>606.729</ele>
        <time>2015-06-21T07:32:03Z</time>
      </trkpt>
      <trkpt lat="45.97609" lon="1.846">
        <ele>615.862</ele>
        <time>2015-06-21T07:32:37Z</time>
      </trkpt>
      <trkpt lat="45.9757" lon="1.84594">
        <ele>622.591</ele>
        <time>2015-06-21T07:33:14Z</time>
      </trkpt>
      <trkpt lat="45.9754" lon="1.84549">
        <ele>625.475</ele>
        <time>2015-06-21T07:33:48Z</time>
      </trkpt>
      <trkpt lat="45.97497" lon="1.84532">
        <ele>631.723</ele>
        <time>2015-06-21T07:34:22Z</time>
      </trkpt>
      <trkpt lat="45.97454" lon="1.84549">
        <ele>637.491</ele>
        <time>2015-06-21T07:34:54Z</time>
      </trkpt>
      <trkpt lat="45.97409" lon="1.84564">
        <ele>641.337</ele>
        <time>2015-06-21T07:35:27Z</time>
      </trkpt>
      <trkpt lat="45.97364" lon="1.84562">
        <ele>645.663</ele>
        <time>2015-06-21T07:36:00Z</time>
      </trkpt>
      <trkpt lat="45.97323" lon="1.84534">
        <ele>650.469</ele>
        <time>2015-06-21T07:36:34Z</time>
      </trkpt>
      <trkpt lat="45.97293" lon="1.84484">
        <ele>650.95</ele>
        <time>2015-06-21T07:36:58Z</time>
      </trkpt>
      <trkpt lat="45.97255" lon="1.84444">
        <ele>655.276</ele>
        <time>2015-06-21T07:38:01Z</time>
      </trkpt>
      <trkpt lat="45.97214" lon="1.84405">
        <ele>655.757</ele>
        <time>2015-06-21T07:38:21Z</time>
      </trkpt>
      <trkpt lat="45.97171" lon="1.84366">
        <ele>653.353</ele>
        <time>2015-06-21T07:38:35Z</time>
      </trkpt>
      <trkpt lat="45.97128" lon="1.84334">
        <ele>650.95</ele>
        <time>2015-06-21T07:38:46Z</time>
      </trkpt>
      <trkpt lat="45.97085" lon="1.84304">
        <ele>653.834</ele>
        <time>2015-06-21T07:39:03Z</time>
      </trkpt>
      <trkpt lat="45.97042" lon="1.84278">
        <ele>650.469</ele>
        <time>2015-06-21T07:39:17Z</time>
      </trkpt>
      <trkpt lat="45.96997" lon="1.84257">
        <ele>648.066</ele>
        <time>2015-06-21T07:39:31Z</time>
      </trkpt>
      <trkpt lat="45.9695" lon="1.84253">
        <ele>645.663</ele>
        <time>2015-06-21T07:39:39Z</time>
      </trkpt>
      <trkpt lat="45.96909" lon="1.84223">
        <ele>640.856</ele>
        <time>2015-06-21T07:39:47Z</time>
      </trkpt>
      <trkpt lat="45.96877" lon="1.84178">
        <ele>636.53</ele>
        <time>2015-06-21T07:39:52Z</time>
      </trkpt>
      <trkpt lat="45.9683" lon="1.84163">
        <ele>633.646</ele>
        <time>2015-06-21T07:39:57Z</time>
      </trkpt>
      <trkpt lat="45.96783" lon="1.84158">
        <ele>633.165</ele>
        <time>2015-06-21T07:40:04Z</time>
      </trkpt>
      <trkpt lat="45.96735" lon="1.84156">
        <ele>631.723</ele>
        <time>2015-06-21T07:40:11Z</time>
      </trkpt>
      <trkpt lat="45.9669" lon="1.8415">
        <ele>629.801</ele>
        <time>2015-06-21T07:40:18Z</time>
      </trkpt>
      <trkpt lat="45.96643" lon="1.84137">
        <ele>628.84</ele>
        <time>2015-06-21T07:40:25Z</time>
      </trkpt>
      <trkpt lat="45.966" lon="1.84158">
        <ele>631.243</ele>
        <time>2015-06-21T07:40:39Z</time>
      </trkpt>
      <trkpt lat="45.96557" lon="1.84186">
        <ele>632.204</ele>
        <time>2015-06-21T07:41:00Z</time>
      </trkpt>
      <trkpt lat="45.96517" lon="1.84212">
        <ele>634.607</ele>
        <time>2015-06-21T07:41:21Z</time>
      </trkpt>
      <trkpt lat="45.96472" lon="1.84231">
        <ele>637.491</ele>
        <time>2015-06-21T07:41:43Z</time>
      </trkpt>
      <trkpt lat="45.96426" lon="1.84244">
        <ele>639.414</ele>
        <time>2015-06-21T07:42:05Z</time>
      </trkpt>
      <trkpt lat="45.96388" lon="1.84272">
        <ele>642.298</ele>
        <time>2015-06-21T07:42:32Z</time>
      </trkpt>
      <trkpt lat="45.96354" lon="1.84313">
        <ele>649.508</ele>
        <time>2015-06-21T07:43:05Z</time>
      </trkpt>
      <trkpt lat="45.96315" lon="1.84354">
        <ele>652.392</ele>
        <time>2015-06-21T07:43:40Z</time>
      </trkpt>
      <trkpt lat="45.9627" lon="1.8436">
        <ele>656.237</ele>
        <time>2015-06-21T07:44:10Z</time>
      </trkpt>
      <trkpt lat="45.96223" lon="1.84364">
        <ele>659.602</ele>
        <time>2015-06-21T07:44:40Z</time>
      </trkpt>
      <trkpt lat="45.96178" lon="1.84371">
        <ele>663.447</ele>
        <time>2015-06-21T07:45:10Z</time>
      </trkpt>
      <trkpt lat="45.96133" lon="1.84377">
        <ele>667.292</ele>
        <time>2015-06-21T07:45:40Z</time>
      </trkpt>
      <trkpt lat="45.96087" lon="1.84384">
        <ele>672.099</ele>
        <time>2015-06-21T07:46:10Z</time>
      </trkpt>
      <trkpt lat="45.9604" lon="1.84379">
        <ele>674.502</ele>
        <time>2015-06-21T07:46:37Z</time>
      </trkpt>
      <trkpt lat="45.95999" lon="1.84366">
        <ele>674.502</ele>
        <time>2015-06-21T07:47:47Z</time>
      </trkpt>
      <trkpt lat="45.95963" lon="1.84328">
        <ele>670.176</ele>
        <time>2015-06-21T07:48:08Z</time>
      </trkpt>
      <trkpt lat="45.95924" lon="1.84294">
        <ele>667.773</ele>
        <time>2015-06-21T07:48:26Z</time>
      </trkpt>
      <trkpt lat="45.95869" lon="1.84285">
        <ele>665.85</ele>
        <time>2015-06-21T07:48:42Z</time>
      </trkpt>
      <trkpt lat="45.95839" lon="1.84328">
        <ele>665.85</ele>
        <time>2015-06-21T07:48:56Z</time>
      </trkpt>
      <trkpt lat="45.95802" lon="1.84315">
        <ele>670.176</ele>
        <time>2015-06-21T07:49:15Z</time>
      </trkpt>
      <trkpt lat="45.95763" lon="1.84296">
        <ele>668.734</ele>
        <time>2015-06-21T07:49:28Z</time>
      </trkpt>
      <trkpt lat="45.95714" lon="1.84304">
        <ele>665.85</ele>
        <time>2015-06-21T07:49:36Z</time>
      </trkpt>
      <trkpt lat="45.95688" lon="1.84253">
        <ele>665.85</ele>
        <time>2015-06-21T07:49:45Z</time>
      </trkpt>
      <trkpt lat="45.95673" lon="1.84193">
        <ele>666.331</ele>
        <time>2015-06-21T07:49:59Z</time>
      </trkpt>
      <trkpt lat="45.9565" lon="1.84139">
        <ele>668.254</ele>
        <time>2015-06-21T07:50:14Z</time>
      </trkpt>
      <trkpt lat="45.956" lon="1.84133">
        <ele>671.618</ele>
        <time>2015-06-21T07:50:30Z</time>
      </trkpt>
      <trkpt lat="45.95555" lon="1.84141">
        <ele>673.541</ele>
        <time>2015-06-21T07:50:46Z</time>
      </trkpt>
      <trkpt lat="45.95519" lon="1.84113">
        <ele>673.06</ele>
        <time>2015-06-21T07:51:03Z</time>
      </trkpt>
      <trkpt lat="45.95523" lon="1.84049">
        <ele>669.215</ele>
        <time>2015-06-21T07:51:20Z</time>
      </trkpt>
      <trkpt lat="45.95519" lon="1.83978">
        <ele>681.712</ele>
        <time>2015-06-21T07:51:48Z</time>
      </trkpt>
      <trkpt lat="45.95536" lon="1.8389">
        <ele>683.154</ele>
        <time>2015-06-21T07:52:19Z</time>
      </trkpt>
      <trkpt lat="45.95532" lon="1.83802">
        <ele>687.961</ele>
        <time>2015-06-21T07:53:00Z</time>
      </trkpt>
      <trkpt lat="45.95487" lon="1.83729">
        <ele>699.016</ele>
        <time>2015-06-21T07:53:46Z</time>
      </trkpt>
      <trkpt lat="45.95429" lon="1.83671">
        <ele>696.132</ele>
        <time>2015-06-21T07:54:13Z</time>
      </trkpt>
      <trkpt lat="45.95371" lon="1.8363">
        <ele>700.938</ele>
        <time>2015-06-21T07:54:38Z</time>
      </trkpt>
      <trkpt lat="45.95306" lon="1.83598">
        <ele>711.994</ele>
        <time>2015-06-21T07:55:15Z</time>
      </trkpt>
      <trkpt lat="45.95231" lon="1.83532">
        <ele>710.552</ele>
        <time>2015-06-21T07:56:00Z</time>
      </trkpt>
      <trkpt lat="45.95184" lon="1.83478">
        <ele>708.148</ele>
        <time>2015-06-21T07:56:19Z</time>
      </trkpt>
      <trkpt lat="45.95156" lon="1.8342">
        <ele>703.823</ele>
        <time>2015-06-21T07:56:34Z</time>
      </trkpt>
      <trkpt lat="45.95109" lon="1.83379">
        <ele>703.342</ele>
        <time>2015-06-21T07:56:52Z</time>
      </trkpt>
      <trkpt lat="45.95049" lon="1.83358">
        <ele>698.054</ele>
        <time>2015-06-21T07:57:13Z</time>
      </trkpt>
      <trkpt lat="45.94993" lon="1.83334">
        <ele>697.574</ele>
        <time>2015-06-21T07:57:30Z</time>
      </trkpt>
      <trkpt lat="45.94948" lon="1.83298">
        <ele>694.69</ele>
        <time>2015-06-21T07:57:46Z</time>
      </trkpt>
      <trkpt lat="45.94907" lon="1.83259">
        <ele>689.883</ele>
        <time>2015-06-21T07:58:00Z</time>
      </trkpt>
      <trkpt lat="45.94882" lon="1.83199">
        <ele>683.635</ele>
        <time>2015-06-21T07:58:10Z</time>
      </trkpt>
      <trkpt lat="45.94858" lon="1.83143">
        <ele>671.618</ele>
        <time>2015-06-21T07:58:59Z</time>
      </trkpt>
      <trkpt lat="45.94824" lon="1.83088">
        <ele>672.099</ele>
        <time>2015-06-21T07:59:17Z</time>
      </trkpt>
      <trkpt lat="45.94781" lon="1.83055">
        <ele>672.099</ele>
        <time>2015-06-21T07:59:26Z</time>
      </trkpt>
      <trkpt lat="45.94736" lon="1.83023">
        <ele>673.06</ele>
        <time>2015-06-21T07:59:34Z</time>
      </trkpt>
      <trkpt lat="45.94691" lon="1.82987">
        <ele>674.502</ele>
        <time>2015-06-21T07:59:42Z</time>
      </trkpt>
      <trkpt lat="45.94639" lon="1.82952">
        <ele>677.386</ele>
        <time>2015-06-21T07:59:50Z</time>
      </trkpt>
      <trkpt lat="45.94588" lon="1.82925">
        <ele>677.386</ele>
        <time>2015-06-21T07:59:57Z</time>
      </trkpt>
      <trkpt lat="45.94549" lon="1.82871">
        <ele>675.944</ele>
        <time>2015-06-21T08:00:04Z</time>
      </trkpt>
      <trkpt lat="45.94532" lon="1.82802">
        <ele>675.463</ele>
        <time>2015-06-21T08:00:11Z</time>
      </trkpt>
      <trkpt lat="45.94523" lon="1.82723">
        <ele>671.618</ele>
        <time>2015-06-21T08:00:18Z</time>
      </trkpt>
      <trkpt lat="45.94545" lon="1.82665">
        <ele>665.37</ele>
        <time>2015-06-21T08:00:25Z</time>
      </trkpt>
      <trkpt lat="45.94564" lon="1.82594">
        <ele>662.005</ele>
        <time>2015-06-21T08:00:34Z</time>
      </trkpt>
      <trkpt lat="45.94551" lon="1.8253">
        <ele>657.679</ele>
        <time>2015-06-21T08:00:42Z</time>
      </trkpt>
      <trkpt lat="45.94568" lon="1.82465">
        <ele>653.834</ele>
        <time>2015-06-21T08:00:50Z</time>
      </trkpt>
      <trkpt lat="45.94581" lon="1.82397">
        <ele>646.624</ele>
        <time>2015-06-21T08:00:58Z</time>
      </trkpt>
      <trkpt lat="45.94575" lon="1.82324">
        <ele>640.375</ele>
        <time>2015-06-21T08:01:05Z</time>
      </trkpt>
      <trkpt lat="45.94553" lon="1.82264">
        <ele>635.569</ele>
        <time>2015-06-21T08:01:11Z</time>
      </trkpt>
      <trkpt lat="45.9454" lon="1.82193">
        <ele>630.281</ele>
        <time>2015-06-21T08:01:18Z</time>
      </trkpt>
      <trkpt lat="45.94534" lon="1.82124">
        <ele>626.436</ele>
        <time>2015-06-21T08:01:24Z</time>
      </trkpt>
      <trkpt lat="45.94534" lon="1.82053">
        <ele>622.591</ele>
        <time>2015-06-21T08:01:31Z</time>
      </trkpt>
      <trkpt lat="45.94523" lon="1.82008">
        <ele>619.226</ele>
        <time>2015-06-21T08:01:47Z</time>
      </trkpt>
      <trkpt lat="45.94502" lon="1.82064">
        <ele>617.784</ele>
        <time>2015-06-21T08:02:05Z</time>
      </trkpt>
      <trkpt lat="45.94465" lon="1.82068">
        <ele>617.304</ele>
        <time>2015-06-21T08:02:19Z</time>
      </trkpt>
      <trkpt lat="45.94416" lon="1.82019">
        <ele>614.9</ele>
        <time>2015-06-21T08:02:27Z</time>
      </trkpt>
      <trkpt lat="45.9436" lon="1.81985">
        <ele>613.939</ele>
        <time>2015-06-21T08:02:34Z</time>
      </trkpt>
      <trkpt lat="45.94306" lon="1.81978">
        <ele>615.862</ele>
        <time>2015-06-21T08:02:43Z</time>
      </trkpt>
      <trkpt lat="45.94257" lon="1.82006">
        <ele>613.458</ele>
        <time>2015-06-21T08:02:55Z</time>
      </trkpt>
      <trkpt lat="45.94221" lon="1.82051">
        <ele>613.939</ele>
        <time>2015-06-21T08:03:08Z</time>
      </trkpt>
      <trkpt lat="45.94186" lon="1.82096">
        <ele>617.304</ele>
        <time>2015-06-21T08:03:23Z</time>
      </trkpt>
      <trkpt lat="45.94152" lon="1.82141">
        <ele>624.514</ele>
        <time>2015-06-21T08:03:41Z</time>
      </trkpt>
      <trkpt lat="45.9412" lon="1.82191">
        <ele>631.243</ele>
        <time>2015-06-21T08:04:00Z</time>
      </trkpt>
      <trkpt lat="45.94088" lon="1.82242">
        <ele>634.127</ele>
        <time>2015-06-21T08:04:20Z</time>
      </trkpt>
      <trkpt lat="45.94058" lon="1.82304">
        <ele>634.127</ele>
        <time>2015-06-21T08:04:38Z</time>
      </trkpt>
      <trkpt lat="45.94023" lon="1.82364">
        <ele>635.569</ele>
        <time>2015-06-21T08:04:56Z</time>
      </trkpt>
      <trkpt lat="45.93982" lon="1.82416">
        <ele>633.165</ele>
        <time>2015-06-21T08:05:15Z</time>
      </trkpt>
      <trkpt lat="45.93965" lon="1.82478">
        <ele>623.552</ele>
        <time>2015-06-21T08:05:38Z</time>
      </trkpt>
      <trkpt lat="45.93929" lon="1.8254">
        <ele>620.188</ele>
        <time>2015-06-21T08:05:57Z</time>
      </trkpt>
      <trkpt lat="45.93858" lon="1.82525">
        <ele>636.53</ele>
        <time>2015-06-21T08:06:43Z</time>
      </trkpt>
      <trkpt lat="45.93845" lon="1.8245">
        <ele>635.569</ele>
        <time>2015-06-21T08:07:11Z</time>
      </trkpt>
      <trkpt lat="45.93854" lon="1.82371">
        <ele>625.475</ele>
        <time>2015-06-21T08:07:37Z</time>
      </trkpt>
      <trkpt lat="45.93884" lon="1.82292">
        <ele>617.304</ele>
        <time>2015-06-21T08:08:00Z</time>
      </trkpt>
      <trkpt lat="45.93927" lon="1.82227">
        <ele>626.917</ele>
        <time>2015-06-21T08:08:26Z</time>
      </trkpt>
      <trkpt lat="45.93946" lon="1.82154">
        <ele>632.685</ele>
        <time>2015-06-21T08:08:53Z</time>
      </trkpt>
      <trkpt lat="45.93929" lon="1.82103">
        <ele>635.088</ele>
        <time>2015-06-21T08:09:26Z</time>
      </trkpt>
      <trkpt lat="45.93884" lon="1.82141">
        <ele>641.337</ele>
        <time>2015-06-21T08:10:12Z</time>
      </trkpt>
      <trkpt lat="45.93839" lon="1.82197">
        <ele>647.585</ele>
        <time>2015-06-21T08:10:55Z</time>
      </trkpt>
      <trkpt lat="45.93789" lon="1.82251">
        <ele>653.834</ele>
        <time>2015-06-21T08:11:36Z</time>
      </trkpt>
      <trkpt lat="45.93731" lon="1.82281">
        <ele>669.696</ele>
        <time>2015-06-21T08:12:27Z</time>
      </trkpt>
      <trkpt lat="45.93678" lon="1.82272">
        <ele>678.828</ele>
        <time>2015-06-21T08:13:11Z</time>
      </trkpt>
      <trkpt lat="45.93609" lon="1.82193">
        <ele>686.999</ele>
        <time>2015-06-21T08:14:15Z</time>
      </trkpt>
      <trkpt lat="45.93549" lon="1.82135">
        <ele>688.922</ele>
        <time>2015-06-21T08:14:58Z</time>
      </trkpt>
      <trkpt lat="45.935" lon="1.82083">
        <ele>688.922</ele>
        <time>2015-06-21T08:15:39Z</time>
      </trkpt>
      <trkpt lat="45.93444" lon="1.82028">
        <ele>699.016</ele>
        <time>2015-06-21T08:16:30Z</time>
      </trkpt>
      <trkpt lat="45.93371" lon="1.81985">
        <ele>719.204</ele>
        <time>2015-06-21T08:17:30Z</time>
      </trkpt>
      <trkpt lat="45.93296" lon="1.81972">
        <ele>732.662</ele>
        <time>2015-06-21T08:18:20Z</time>
      </trkpt>
      <trkpt lat="45.93255" lon="1.81914">
        <ele>735.546</ele>
        <time>2015-06-21T08:18:42Z</time>
      </trkpt>
      <trkpt lat="45.93214" lon="1.81875">
        <ele>739.391</ele>
        <time>2015-06-21T08:18:55Z</time>
      </trkpt>
      <trkpt lat="45.93169" lon="1.81871">
        <ele>740.353</ele>
        <time>2015-06-21T08:19:03Z</time>
      </trkpt>
      <trkpt lat="45.93126" lon="1.81892">
        <ele>739.872</ele>
        <time>2015-06-21T08:19:11Z</time>
      </trkpt>
      <trkpt lat="45.9309" lon="1.81944">
        <ele>738.43</ele>
        <time>2015-06-21T08:19:16Z</time>
      </trkpt>
      <trkpt lat="45.93062" lon="1.82">
        <ele>737.949</ele>
        <time>2015-06-21T08:19:21Z</time>
      </trkpt>
      <trkpt lat="45.9304" lon="1.82066">
        <ele>736.988</ele>
        <time>2015-06-21T08:19:27Z</time>
      </trkpt>
      <trkpt lat="45.93017" lon="1.82131">
        <ele>734.585</ele>
        <time>2015-06-21T08:19:34Z</time>
      </trkpt>
      <trkpt lat="45.92995" lon="1.82195">
        <ele>733.143</ele>
        <time>2015-06-21T08:19:41Z</time>
      </trkpt>
      <trkpt lat="45.92955" lon="1.82257">
        <ele>727.375</ele>
        <time>2015-06-21T08:19:48Z</time>
      </trkpt>
      <trkpt lat="45.9291" lon="1.82296">
        <ele>718.242</ele>
        <time>2015-06-21T08:19:54Z</time>
      </trkpt>
      <trkpt lat="45.92873" lon="1.82354">
        <ele>696.132</ele>
        <time>2015-06-21T08:20:05Z</time>
      </trkpt>
      <trkpt lat="45.92858" lon="1.82416">
        <ele>682.673</ele>
        <time>2015-06-21T08:20:16Z</time>
      </trkpt>
      <trkpt lat="45.92867" lon="1.82489">
        <ele>672.099</ele>
        <time>2015-06-21T08:20:28Z</time>
      </trkpt>
      <trkpt lat="45.92841" lon="1.82532">
        <ele>662.486</ele>
        <time>2015-06-21T08:20:37Z</time>
      </trkpt>
      <trkpt lat="45.92792" lon="1.82545">
        <ele>662.486</ele>
        <time>2015-06-21T08:20:46Z</time>
      </trkpt>
      <trkpt lat="45.92746" lon="1.82543">
        <ele>662.966</ele>
        <time>2015-06-21T08:21:05Z</time>
      </trkpt>
      <trkpt lat="45.92719" lon="1.82573">
        <ele>665.37</ele>
        <time>2015-06-21T08:28:22Z</time>
      </trkpt>
      <trkpt lat="45.92682" lon="1.82616">
        <ele>670.657</ele>
        <time>2015-06-21T08:28:49Z</time>
      </trkpt>
      <trkpt lat="45.92644" lon="1.82648">
        <ele>671.618</ele>
        <time>2015-06-21T08:29:08Z</time>
      </trkpt>
      <trkpt lat="45.92601" lon="1.82673">
        <ele>671.618</ele>
        <time>2015-06-21T08:29:22Z</time>
      </trkpt>
      <trkpt lat="45.92553" lon="1.82676">
        <ele>682.673</ele>
        <time>2015-06-21T08:29:40Z</time>
      </trkpt>
      <trkpt lat="45.92502" lon="1.82663">
        <ele>681.712</ele>
        <time>2015-06-21T08:30:04Z</time>
      </trkpt>
      <trkpt lat="45.92461" lon="1.82628">
        <ele>674.983</ele>
        <time>2015-06-21T08:30:30Z</time>
      </trkpt>
      <trkpt lat="45.92429" lon="1.82573">
        <ele>677.386</ele>
        <time>2015-06-21T08:30:59Z</time>
      </trkpt>
      <trkpt lat="45.92403" lon="1.82517">
        <ele>676.906</ele>
        <time>2015-06-21T08:31:22Z</time>
      </trkpt>
      <trkpt lat="45.92375" lon="1.82467">
        <ele>676.906</ele>
        <time>2015-06-21T08:31:40Z</time>
      </trkpt>
      <trkpt lat="45.92356" lon="1.82407">
        <ele>674.983</ele>
        <time>2015-06-21T08:31:58Z</time>
      </trkpt>
      <trkpt lat="45.92332" lon="1.82349">
        <ele>674.983</ele>
        <time>2015-06-21T08:32:13Z</time>
      </trkpt>
      <trkpt lat="45.92302" lon="1.82296">
        <ele>675.944</ele>
        <time>2015-06-21T08:32:29Z</time>
      </trkpt>
      <trkpt lat="45.92264" lon="1.82259">
        <ele>674.502</ele>
        <time>2015-06-21T08:32:48Z</time>
      </trkpt>
      <trkpt lat="45.92225" lon="1.82214">
        <ele>672.099</ele>
        <time>2015-06-21T08:33:04Z</time>
      </trkpt>
      <trkpt lat="45.9218" lon="1.82199">
        <ele>671.138</ele>
        <time>2015-06-21T08:33:13Z</time>
      </trkpt>
      <trkpt lat="45.92135" lon="1.82221">
        <ele>671.138</ele>
        <time>2015-06-21T08:33:23Z</time>
      </trkpt>
      <trkpt lat="45.92096" lon="1.82259">
        <ele>669.696</ele>
        <time>2015-06-21T08:33:34Z</time>
      </trkpt>
      <trkpt lat="45.92053" lon="1.823">
        <ele>669.215</ele>
        <time>2015-06-21T08:33:44Z</time>
      </trkpt>
      <trkpt lat="45.92019" lon="1.82347">
        <ele>668.254</ele>
        <time>2015-06-21T08:33:56Z</time>
      </trkpt>
      <trkpt lat="45.91974" lon="1.82367">
        <ele>664.889</ele>
        <time>2015-06-21T08:34:30Z</time>
      </trkpt>
      <trkpt lat="45.91957" lon="1.82324">
        <ele>655.757</ele>
        <time>2015-06-21T08:34:44Z</time>
      </trkpt>
      <trkpt lat="45.91935" lon="1.82283">
        <ele>650.469</ele>
        <time>2015-06-21T08:34:53Z</time>
      </trkpt>
      <trkpt lat="45.91888" lon="1.82266">
        <ele>644.701</ele>
        <time>2015-06-21T08:35:03Z</time>
      </trkpt>
      <trkpt lat="45.91845" lon="1.82236">
        <ele>639.895</ele>
        <time>2015-06-21T08:35:11Z</time>
      </trkpt>
      <trkpt lat="45.918" lon="1.82255">
        <ele>636.53</ele>
        <time>2015-06-21T08:35:17Z</time>
      </trkpt>
      <trkpt lat="45.91749" lon="1.82283">
        <ele>633.646</ele>
        <time>2015-06-21T08:35:23Z</time>
      </trkpt>
      <trkpt lat="45.91704" lon="1.82309">
        <ele>631.243</ele>
        <time>2015-06-21T08:35:29Z</time>
      </trkpt>
      <trkpt lat="45.91654" lon="1.82326">
        <ele>628.359</ele>
        <time>2015-06-21T08:35:35Z</time>
      </trkpt>
      <trkpt lat="45.91611" lon="1.82307">
        <ele>626.436</ele>
        <time>2015-06-21T08:35:41Z</time>
      </trkpt>
      <trkpt lat="45.91599" lon="1.82244">
        <ele>625.475</ele>
        <time>2015-06-21T08:35:48Z</time>
      </trkpt>
      <trkpt lat="45.91577" lon="1.82189">
        <ele>623.552</ele>
        <time>2015-06-21T08:35:55Z</time>
      </trkpt>
      <trkpt lat="45.91545" lon="1.82139">
        <ele>621.149</ele>
        <time>2015-06-21T08:36:02Z</time>
      </trkpt>
      <trkpt lat="45.91506" lon="1.82086">
        <ele>617.784</ele>
        <time>2015-06-21T08:36:09Z</time>
      </trkpt>
      <trkpt lat="45.91498" lon="1.82013">
        <ele>613.458</ele>
        <time>2015-06-21T08:36:15Z</time>
      </trkpt>
      <trkpt lat="45.91502" lon="1.81948">
        <ele>611.055</ele>
        <time>2015-06-21T08:36:20Z</time>
      </trkpt>
      <trkpt lat="45.91485" lon="1.8189">
        <ele>609.613</ele>
        <time>2015-06-21T08:36:26Z</time>
      </trkpt>
      <trkpt lat="45.91463" lon="1.8183">
        <ele>607.691</ele>
        <time>2015-06-21T08:36:33Z</time>
      </trkpt>
      <trkpt lat="45.91423" lon="1.81804">
        <ele>607.21</ele>
        <time>2015-06-21T08:36:40Z</time>
      </trkpt>
      <trkpt lat="45.91388" lon="1.81766">
        <ele>605.768</ele>
        <time>2015-06-21T08:36:47Z</time>
      </trkpt>
      <trkpt lat="45.91399" lon="1.81699">
        <ele>602.884</ele>
        <time>2015-06-21T08:36:53Z</time>
      </trkpt>
      <trkpt lat="45.91442" lon="1.81661">
        <ele>600</ele>
        <time>2015-06-21T08:36:59Z</time>
      </trkpt>
      <trkpt lat="45.9145" lon="1.81586">
        <ele>595.193</ele>
        <time>2015-06-21T08:37:05Z</time>
      </trkpt>
      <trkpt lat="45.91433" lon="1.81521">
        <ele>590.867</ele>
        <time>2015-06-21T08:37:10Z</time>
      </trkpt>
      <trkpt lat="45.91384" lon="1.815">
        <ele>587.503</ele>
        <time>2015-06-21T08:37:15Z</time>
      </trkpt>
      <trkpt lat="45.91367" lon="1.81442">
        <ele>583.177</ele>
        <time>2015-06-21T08:37:20Z</time>
      </trkpt>
      <trkpt lat="45.91347" lon="1.81388">
        <ele>578.851</ele>
        <time>2015-06-21T08:37:25Z</time>
      </trkpt>
      <trkpt lat="45.91317" lon="1.81427">
        <ele>574.044</ele>
        <time>2015-06-21T08:37:30Z</time>
      </trkpt>
      <trkpt lat="45.91283" lon="1.8147">
        <ele>570.199</ele>
        <time>2015-06-21T08:37:35Z</time>
      </trkpt>
      <trkpt lat="45.91253" lon="1.8142">
        <ele>567.315</ele>
        <time>2015-06-21T08:37:42Z</time>
      </trkpt>
      <trkpt lat="45.91227" lon="1.81369">
        <ele>566.834</ele>
        <time>2015-06-21T08:37:51Z</time>
      </trkpt>
      <trkpt lat="45.91193" lon="1.81317">
        <ele>568.276</ele>
        <time>2015-06-21T08:38:02Z</time>
      </trkpt>
      <trkpt lat="45.91174" lon="1.81253">
        <ele>566.354</ele>
        <time>2015-06-21T08:38:12Z</time>
      </trkpt>
      <trkpt lat="45.9115" lon="1.81199">
        <ele>567.315</ele>
        <time>2015-06-21T08:38:32Z</time>
      </trkpt>
      <trkpt lat="45.91105" lon="1.81184">
        <ele>566.834</ele>
        <time>2015-06-21T08:38:48Z</time>
      </trkpt>
      <trkpt lat="45.91064" lon="1.81154">
        <ele>567.796</ele>
        <time>2015-06-21T08:39:07Z</time>
      </trkpt>
      <trkpt lat="45.91019" lon="1.81141">
        <ele>570.199</ele>
        <time>2015-06-21T08:39:24Z</time>
      </trkpt>
      <trkpt lat="45.90972" lon="1.81129">
        <ele>574.525</ele>
        <time>2015-06-21T08:39:45Z</time>
      </trkpt>
      <trkpt lat="45.90929" lon="1.81105">
        <ele>575.006</ele>
        <time>2015-06-21T08:40:05Z</time>
      </trkpt>
      <trkpt lat="45.90886" lon="1.81071">
        <ele>574.525</ele>
        <time>2015-06-21T08:40:24Z</time>
      </trkpt>
      <trkpt lat="45.90847" lon="1.81036">
        <ele>576.928</ele>
        <time>2015-06-21T08:40:48Z</time>
      </trkpt>
      <trkpt lat="45.90815" lon="1.80983">
        <ele>575.486</ele>
        <time>2015-06-21T08:41:15Z</time>
      </trkpt>
      <trkpt lat="45.90805" lon="1.80961">
        <ele>573.564</ele>
        <time>2015-06-21T08:45:00Z</time>
      </trkpt>
      <trkpt lat="45.90805" lon="1.81008">
        <ele>577.89</ele>
        <time>2015-06-21T08:45:25Z</time>
      </trkpt>
      <trkpt lat="45.90762" lon="1.81019">
        <ele>580.774</ele>
        <time>2015-06-21T08:45:47Z</time>
      </trkpt>
      <trkpt lat="45.90721" lon="1.81045">
        <ele>583.177</ele>
        <time>2015-06-21T08:46:12Z</time>
      </trkpt>
      <trkpt lat="45.90674" lon="1.81066">
        <ele>585.1</ele>
        <time>2015-06-21T08:46:36Z</time>
      </trkpt>
      <trkpt lat="45.90641" lon="1.81109">
        <ele>584.138</ele>
        <time>2015-06-21T08:47:07Z</time>
      </trkpt>
      <trkpt lat="45.90594" lon="1.81152">
        <ele>589.426</ele>
        <time>2015-06-21T08:47:44Z</time>
      </trkpt>
      <trkpt lat="45.90547" lon="1.81178">
        <ele>597.597</ele>
        <time>2015-06-21T08:48:09Z</time>
      </trkpt>
      <trkpt lat="45.905" lon="1.81212">
        <ele>594.713</ele>
        <time>2015-06-21T08:48:27Z</time>
      </trkpt>
      <trkpt lat="45.90448" lon="1.8121">
        <ele>598.558</ele>
        <time>2015-06-21T08:48:53Z</time>
      </trkpt>
      <trkpt lat="45.90399" lon="1.81212">
        <ele>603.845</ele>
        <time>2015-06-21T08:49:29Z</time>
      </trkpt>
      <trkpt lat="45.90345" lon="1.81212">
        <ele>611.536</ele>
        <time>2015-06-21T08:50:22Z</time>
      </trkpt>
      <trkpt lat="45.90283" lon="1.81272">
        <ele>617.784</ele>
        <time>2015-06-21T08:51:34Z</time>
      </trkpt>
      <trkpt lat="45.9021" lon="1.81296">
        <ele>626.917</ele>
        <time>2015-06-21T08:52:27Z</time>
      </trkpt>
      <trkpt lat="45.90159" lon="1.8127">
        <ele>628.84</ele>
        <time>2015-06-21T08:53:04Z</time>
      </trkpt>
      <trkpt lat="45.90118" lon="1.81289">
        <ele>631.243</ele>
        <time>2015-06-21T08:53:33Z</time>
      </trkpt>
      <trkpt lat="45.90077" lon="1.81332">
        <ele>626.436</ele>
        <time>2015-06-21T08:53:50Z</time>
      </trkpt>
      <trkpt lat="45.90034" lon="1.81365">
        <ele>625.475</ele>
        <time>2015-06-21T08:54:01Z</time>
      </trkpt>
      <trkpt lat="45.89989" lon="1.81397">
        <ele>625.475</ele>
        <time>2015-06-21T08:54:15Z</time>
      </trkpt>
      <trkpt lat="45.89946" lon="1.81422">
        <ele>624.994</ele>
        <time>2015-06-21T08:54:29Z</time>
      </trkpt>
      <trkpt lat="45.89918" lon="1.81476">
        <ele>624.514</ele>
        <time>2015-06-21T08:54:46Z</time>
      </trkpt>
      <trkpt lat="45.89884" lon="1.81532">
        <ele>622.11</ele>
        <time>2015-06-21T08:55:04Z</time>
      </trkpt>
      <trkpt lat="45.89848" lon="1.81581">
        <ele>622.11</ele>
        <time>2015-06-21T08:55:17Z</time>
      </trkpt>
      <trkpt lat="45.89813" lon="1.81628">
        <ele>622.11</ele>
        <time>2015-06-21T08:55:32Z</time>
      </trkpt>
      <trkpt lat="45.89779" lon="1.81678">
        <ele>621.63</ele>
        <time>2015-06-21T08:55:48Z</time>
      </trkpt>
      <trkpt lat="45.89757" lon="1.81749">
        <ele>624.033</ele>
        <time>2015-06-21T08:56:06Z</time>
      </trkpt>
      <trkpt lat="45.89762" lon="1.81813">
        <ele>620.668</ele>
        <time>2015-06-21T08:56:16Z</time>
      </trkpt>
      <trkpt lat="45.89772" lon="1.81875">
        <ele>615.381</ele>
        <time>2015-06-21T08:56:27Z</time>
      </trkpt>
      <trkpt lat="45.89785" lon="1.81942">
        <ele>612.497</ele>
        <time>2015-06-21T08:56:36Z</time>
      </trkpt>
      <trkpt lat="45.8979" lon="1.82008">
        <ele>609.613</ele>
        <time>2015-06-21T08:56:46Z</time>
      </trkpt>
      <trkpt lat="45.89779" lon="1.8207">
        <ele>611.536</ele>
        <time>2015-06-21T08:57:02Z</time>
      </trkpt>
      <trkpt lat="45.89745" lon="1.82122">
        <ele>610.574</ele>
        <time>2015-06-21T08:57:13Z</time>
      </trkpt>
      <trkpt lat="45.89721" lon="1.82184">
        <ele>609.613</ele>
        <time>2015-06-21T08:57:23Z</time>
      </trkpt>
      <trkpt lat="45.89702" lon="1.82244">
        <ele>608.171</ele>
        <time>2015-06-21T08:57:33Z</time>
      </trkpt>
      <trkpt lat="45.89678" lon="1.82304">
        <ele>606.729</ele>
        <time>2015-06-21T08:57:41Z</time>
      </trkpt>
      <trkpt lat="45.89672" lon="1.8236">
        <ele>602.884</ele>
        <time>2015-06-21T08:57:52Z</time>
      </trkpt>
      <trkpt lat="45.89624" lon="1.82358">
        <ele>601.442</ele>
        <time>2015-06-21T08:58:07Z</time>
      </trkpt>
      <trkpt lat="45.89577" lon="1.8236">
        <ele>592.79</ele>
        <time>2015-06-21T08:58:25Z</time>
      </trkpt>
      <trkpt lat="45.89554" lon="1.82412">
        <ele>588.945</ele>
        <time>2015-06-21T08:58:48Z</time>
      </trkpt>
      <trkpt lat="45.89521" lon="1.82455">
        <ele>587.022</ele>
        <time>2015-06-21T08:59:10Z</time>
      </trkpt>
      <trkpt lat="45.89481" lon="1.82491">
        <ele>585.58</ele>
        <time>2015-06-21T08:59:25Z</time>
      </trkpt>
      <trkpt lat="45.89442" lon="1.82534">
        <ele>581.735</ele>
        <time>2015-06-21T08:59:33Z</time>
      </trkpt>
      <trkpt lat="45.89397" lon="1.82568">
        <ele>575.006</ele>
        <time>2015-06-21T08:59:42Z</time>
      </trkpt>
      <trkpt lat="45.89352" lon="1.82588">
        <ele>567.796</ele>
        <time>2015-06-21T08:59:49Z</time>
      </trkpt>
      <trkpt lat="45.89303" lon="1.82603">
        <ele>563.95</ele>
        <time>2015-06-21T08:59:56Z</time>
      </trkpt>
      <trkpt lat="45.89266" lon="1.82646">
        <ele>562.028</ele>
        <time>2015-06-21T09:00:03Z</time>
      </trkpt>
      <trkpt lat="45.8923" lon="1.82706">
        <ele>562.989</ele>
        <time>2015-06-21T09:04:30Z</time>
      </trkpt>
      <trkpt lat="45.89212" lon="1.82776">
        <ele>569.238</ele>
        <time>2015-06-21T09:04:49Z</time>
      </trkpt>
      <trkpt lat="45.8921" lon="1.82852">
        <ele>579.332</ele>
        <time>2015-06-21T09:05:08Z</time>
      </trkpt>
      <trkpt lat="45.89189" lon="1.82931">
        <ele>571.16</ele>
        <time>2015-06-21T09:05:24Z</time>
      </trkpt>
      <trkpt lat="45.8915" lon="1.82982">
        <ele>561.547</ele>
        <time>2015-06-21T09:05:36Z</time>
      </trkpt>
      <trkpt lat="45.89107" lon="1.83019">
        <ele>552.415</ele>
        <time>2015-06-21T09:05:47Z</time>
      </trkpt>
      <trkpt lat="45.8906" lon="1.83012">
        <ele>544.244</ele>
        <time>2015-06-21T09:05:59Z</time>
      </trkpt>
      <trkpt lat="45.89017" lon="1.83028">
        <ele>537.995</ele>
        <time>2015-06-21T09:06:16Z</time>
      </trkpt>
      <trkpt lat="45.89" lon="1.8309">
        <ele>534.15</ele>
        <time>2015-06-21T09:06:29Z</time>
      </trkpt>
      <trkpt lat="45.88985" lon="1.83118">
        <ele>522.614</ele>
        <time>2015-06-21T09:06:54Z</time>
      </trkpt>
      <trkpt lat="45.88938" lon="1.83092">
        <ele>515.885</ele>
        <time>2015-06-21T09:07:04Z</time>
      </trkpt>
      <trkpt lat="45.88899" lon="1.83055">
        <ele>509.636</ele>
        <time>2015-06-21T09:07:15Z</time>
      </trkpt>
      <trkpt lat="45.88869" lon="1.83096">
        <ele>502.426</ele>
        <time>2015-06-21T09:07:25Z</time>
      </trkpt>
      <trkpt lat="45.88839" lon="1.83141">
        <ele>491.852</ele>
        <time>2015-06-21T09:07:42Z</time>
      </trkpt>
      <trkpt lat="45.88783" lon="1.83124">
        <ele>500.984</ele>
        <time>2015-06-21T09:08:18Z</time>
      </trkpt>
      <trkpt lat="45.88742" lon="1.83148">
        <ele>501.946</ele>
        <time>2015-06-21T09:08:56Z</time>
      </trkpt>
      <trkpt lat="45.88685" lon="1.83133">
        <ele>507.233</ele>
        <time>2015-06-21T09:09:36Z</time>
      </trkpt>
      <trkpt lat="45.88618" lon="1.83079">
        <ele>524.536</ele>
        <time>2015-06-21T09:10:41Z</time>
      </trkpt>
      <trkpt lat="45.88558" lon="1.83043">
        <ele>531.746</ele>
        <time>2015-06-21T09:11:27Z</time>
      </trkpt>
      <trkpt lat="45.88498" lon="1.83006">
        <ele>542.802</ele>
        <time>2015-06-21T09:12:18Z</time>
      </trkpt>
      <trkpt lat="45.88434" lon="1.82974">
        <ele>550.011</ele>
        <time>2015-06-21T09:13:06Z</time>
      </trkpt>
      <trkpt lat="45.88414" lon="1.82912">
        <ele>544.724</ele>
        <time>2015-06-21T09:14:27Z</time>
      </trkpt>
      <trkpt lat="45.88384" lon="1.8286">
        <ele>538.476</ele>
        <time>2015-06-21T09:14:36Z</time>
      </trkpt>
      <trkpt lat="45.88339" lon="1.82897">
        <ele>534.15</ele>
        <time>2015-06-21T09:14:45Z</time>
      </trkpt>
      <trkpt lat="45.88292" lon="1.82914">
        <ele>529.343</ele>
        <time>2015-06-21T09:14:54Z</time>
      </trkpt>
      <trkpt lat="45.88247" lon="1.82905">
        <ele>524.056</ele>
        <time>2015-06-21T09:15:02Z</time>
      </trkpt>
      <trkpt lat="45.88204" lon="1.82894">
        <ele>513.481</ele>
        <time>2015-06-21T09:15:21Z</time>
      </trkpt>
      <trkpt lat="45.88234" lon="1.82849">
        <ele>508.194</ele>
        <time>2015-06-21T09:17:16Z</time>
      </trkpt>
      <trkpt lat="45.88206" lon="1.82892">
        <ele>512.039</ele>
        <time>2015-06-21T09:17:52Z</time>
      </trkpt>
      <trkpt lat="45.88191" lon="1.82955">
        <ele>508.675</ele>
        <time>2015-06-21T09:18:11Z</time>
      </trkpt>
      <trkpt lat="45.88144" lon="1.82982">
        <ele>509.155</ele>
        <time>2015-06-21T09:18:28Z</time>
      </trkpt>
      <trkpt lat="45.88099" lon="1.83002">
        <ele>510.597</ele>
        <time>2015-06-21T09:18:43Z</time>
      </trkpt>
      <trkpt lat="45.88049" lon="1.8301">
        <ele>511.078</ele>
        <time>2015-06-21T09:18:55Z</time>
      </trkpt>
      <trkpt lat="45.88" lon="1.83006">
        <ele>507.233</ele>
        <time>2015-06-21T09:19:03Z</time>
      </trkpt>
      <trkpt lat="45.87964" lon="1.82967">
        <ele>505.791</ele>
        <time>2015-06-21T09:19:12Z</time>
      </trkpt>
      <trkpt lat="45.87916" lon="1.8297">
        <ele>504.349</ele>
        <time>2015-06-21T09:19:22Z</time>
      </trkpt>
      <trkpt lat="45.87867" lon="1.82978">
        <ele>502.907</ele>
        <time>2015-06-21T09:19:32Z</time>
      </trkpt>
      <trkpt lat="45.87818" lon="1.8298">
        <ele>501.465</ele>
        <time>2015-06-21T09:19:40Z</time>
      </trkpt>
      <trkpt lat="45.87768" lon="1.8297">
        <ele>502.426</ele>
        <time>2015-06-21T09:19:47Z</time>
      </trkpt>
      <trkpt lat="45.87721" lon="1.82937">
        <ele>504.349</ele>
        <time>2015-06-21T09:19:54Z</time>
      </trkpt>
      <trkpt lat="45.87698" lon="1.82873">
        <ele>507.233</ele>
        <time>2015-06-21T09:20:02Z</time>
      </trkpt>
      <trkpt lat="45.87659" lon="1.82834">
        <ele>509.636</ele>
        <time>2015-06-21T09:20:14Z</time>
      </trkpt>
      <trkpt lat="45.87614" lon="1.82858">
        <ele>509.636</ele>
        <time>2015-06-21T09:20:28Z</time>
      </trkpt>
      <trkpt lat="45.87573" lon="1.82882">
        <ele>507.233</ele>
        <time>2015-06-21T09:20:43Z</time>
      </trkpt>
      <trkpt lat="45.87528" lon="1.82897">
        <ele>504.349</ele>
        <time>2015-06-21T09:20:59Z</time>
      </trkpt>
      <trkpt lat="45.87481" lon="1.82912">
        <ele>504.829</ele>
        <time>2015-06-21T09:21:14Z</time>
      </trkpt>
      <trkpt lat="45.87436" lon="1.82925">
        <ele>507.233</ele>
        <time>2015-06-21T09:21:31Z</time>
      </trkpt>
      <trkpt lat="45.87391" lon="1.82946">
        <ele>510.117</ele>
        <time>2015-06-21T09:21:51Z</time>
      </trkpt>
      <trkpt lat="45.8735" lon="1.82976">
        <ele>512.039</ele>
        <time>2015-06-21T09:22:16Z</time>
      </trkpt>
      <trkpt lat="45.87309" lon="1.83015">
        <ele>514.923</ele>
        <time>2015-06-21T09:22:41Z</time>
      </trkpt>
      <trkpt lat="45.87268" lon="1.83064">
        <ele>519.73</ele>
        <time>2015-06-21T09:23:07Z</time>
      </trkpt>
      <trkpt lat="45.8724" lon="1.83128">
        <ele>514.923</ele>
        <time>2015-06-21T09:23:16Z</time>
      </trkpt>
      <trkpt lat="45.87198" lon="1.8318">
        <ele>509.636</ele>
        <time>2015-06-21T09:23:25Z</time>
      </trkpt>
      <trkpt lat="45.87148" lon="1.8321">
        <ele>509.636</ele>
        <time>2015-06-21T09:23:40Z</time>
      </trkpt>
      <trkpt lat="45.87092" lon="1.83208">
        <ele>514.443</ele>
        <time>2015-06-21T09:24:00Z</time>
      </trkpt>
      <trkpt lat="45.87052" lon="1.83167">
        <ele>513.962</ele>
        <time>2015-06-21T09:24:17Z</time>
      </trkpt>
      <trkpt lat="45.87002" lon="1.83173">
        <ele>513.481</ele>
        <time>2015-06-21T09:24:32Z</time>
      </trkpt>
      <trkpt lat="45.86966" lon="1.83212">
        <ele>510.117</ele>
        <time>2015-06-21T09:24:42Z</time>
      </trkpt>
      <trkpt lat="45.86929" lon="1.83257">
        <ele>510.117</ele>
        <time>2015-06-21T09:24:53Z</time>
      </trkpt>
      <trkpt lat="45.86889" lon="1.83309">
        <ele>507.233</ele>
        <time>2015-06-21T09:25:11Z</time>
      </trkpt>
      <trkpt lat="45.86843" lon="1.83354">
        <ele>504.349</ele>
        <time>2015-06-21T09:25:23Z</time>
      </trkpt>
      <trkpt lat="45.86794" lon="1.8339">
        <ele>506.752</ele>
        <time>2015-06-21T09:25:34Z</time>
      </trkpt>
      <trkpt lat="45.86753" lon="1.83444">
        <ele>509.636</ele>
        <time>2015-06-21T09:25:46Z</time>
      </trkpt>
      <trkpt lat="45.86723" lon="1.83497">
        <ele>511.559</ele>
        <time>2015-06-21T09:25:59Z</time>
      </trkpt>
      <trkpt lat="45.86687" lon="1.83545">
        <ele>511.559</ele>
        <time>2015-06-21T09:26:15Z</time>
      </trkpt>
      <trkpt lat="45.86637" lon="1.83549">
        <ele>513.001</ele>
        <time>2015-06-21T09:26:30Z</time>
      </trkpt>
      <trkpt lat="45.8661" lon="1.83491">
        <ele>511.559</ele>
        <time>2015-06-21T09:26:39Z</time>
      </trkpt>
      <trkpt lat="45.86584" lon="1.83433">
        <ele>512.039</ele>
        <time>2015-06-21T09:26:54Z</time>
      </trkpt>
      <trkpt lat="45.86556" lon="1.83382">
        <ele>510.597</ele>
        <time>2015-06-21T09:27:07Z</time>
      </trkpt>
      <trkpt lat="45.86526" lon="1.83324">
        <ele>507.714</ele>
        <time>2015-06-21T09:27:15Z</time>
      </trkpt>
      <trkpt lat="45.86496" lon="1.83261">
        <ele>503.387</ele>
        <time>2015-06-21T09:27:21Z</time>
      </trkpt>
      <trkpt lat="45.86457" lon="1.83223">
        <ele>500.984</ele>
        <time>2015-06-21T09:27:26Z</time>
      </trkpt>
      <trkpt lat="45.86423" lon="1.83182">
        <ele>501.465</ele>
        <time>2015-06-21T09:27:36Z</time>
      </trkpt>
      <trkpt lat="45.86389" lon="1.83146">
        <ele>512.52</ele>
        <time>2015-06-21T09:28:09Z</time>
      </trkpt>
      <trkpt lat="45.86386" lon="1.83079">
        <ele>520.211</ele>
        <time>2015-06-21T09:28:36Z</time>
      </trkpt>
      <trkpt lat="45.86371" lon="1.83021">
        <ele>520.691</ele>
        <time>2015-06-21T09:28:54Z</time>
      </trkpt>
      <trkpt lat="45.86393" lon="1.82961">
        <ele>526.94</ele>
        <time>2015-06-21T09:29:08Z</time>
      </trkpt>
      <trkpt lat="45.86432" lon="1.82897">
        <ele>527.42</ele>
        <time>2015-06-21T09:29:24Z</time>
      </trkpt>
      <trkpt lat="45.8644" lon="1.82822">
        <ele>526.459</ele>
        <time>2015-06-21T09:29:32Z</time>
      </trkpt>
      <trkpt lat="45.86462" lon="1.82757">
        <ele>527.42</ele>
        <time>2015-06-21T09:29:44Z</time>
      </trkpt>
      <trkpt lat="45.86485" lon="1.82671">
        <ele>535.592</ele>
        <time>2015-06-21T09:30:31Z</time>
      </trkpt>
      <trkpt lat="45.86468" lon="1.82603">
        <ele>559.625</ele>
        <time>2015-06-21T09:31:21Z</time>
      </trkpt>
      <trkpt lat="45.86468" lon="1.82502">
        <ele>572.603</ele>
        <time>2015-06-21T09:32:19Z</time>
      </trkpt>
      <trkpt lat="45.86457" lon="1.8239">
        <ele>576.448</ele>
        <time>2015-06-21T09:33:24Z</time>
      </trkpt>
      <trkpt lat="45.86423" lon="1.82304">
        <ele>581.254</ele>
        <time>2015-06-21T09:34:15Z</time>
      </trkpt>
      <trkpt lat="45.86382" lon="1.8218">
        <ele>578.37</ele>
        <time>2015-06-21T09:35:20Z</time>
      </trkpt>
      <trkpt lat="45.86363" lon="1.82169">
        <ele>581.735</ele>
        <time>2015-06-21T09:36:11Z</time>
      </trkpt>
      <trkpt lat="45.86322" lon="1.82255">
        <ele>581.254</ele>
        <time>2015-06-21T09:37:07Z</time>
      </trkpt>
      <trkpt lat="45.86279" lon="1.82289">
        <ele>587.022</ele>
        <time>2015-06-21T09:37:44Z</time>
      </trkpt>
      <trkpt lat="45.86234" lon="1.82298">
        <ele>593.271</ele>
        <time>2015-06-21T09:38:23Z</time>
      </trkpt>
      <trkpt lat="45.86185" lon="1.82298">
        <ele>598.077</ele>
        <time>2015-06-21T09:38:59Z</time>
      </trkpt>
      <trkpt lat="45.86135" lon="1.82311">
        <ele>602.403</ele>
        <time>2015-06-21T09:39:36Z</time>
      </trkpt>
      <trkpt lat="45.8609" lon="1.8233">
        <ele>601.442</ele>
        <time>2015-06-21T09:40:08Z</time>
      </trkpt>
      <trkpt lat="45.86043" lon="1.82349">
        <ele>599.519</ele>
        <time>2015-06-21T09:40:37Z</time>
      </trkpt>
      <trkpt lat="45.85996" lon="1.82371">
        <ele>595.674</ele>
        <time>2015-06-21T09:41:03Z</time>
      </trkpt>
      <trkpt lat="45.85955" lon="1.82407">
        <ele>597.116</ele>
        <time>2015-06-21T09:41:25Z</time>
      </trkpt>
      <trkpt lat="45.85908" lon="1.82442">
        <ele>594.713</ele>
        <time>2015-06-21T09:41:43Z</time>
      </trkpt>
      <trkpt lat="45.85859" lon="1.82463">
        <ele>593.751</ele>
        <time>2015-06-21T09:42:04Z</time>
      </trkpt>
      <trkpt lat="45.85807" lon="1.82495">
        <ele>595.674</ele>
        <time>2015-06-21T09:42:26Z</time>
      </trkpt>
      <trkpt lat="45.85764" lon="1.82545">
        <ele>587.022</ele>
        <time>2015-06-21T09:42:46Z</time>
      </trkpt>
      <trkpt lat="45.85719" lon="1.82596">
        <ele>598.077</ele>
        <time>2015-06-21T09:43:01Z</time>
      </trkpt>
      <trkpt lat="45.85674" lon="1.82635">
        <ele>599.039</ele>
        <time>2015-06-21T09:43:13Z</time>
      </trkpt>
      <trkpt lat="45.85629" lon="1.82665">
        <ele>599.519</ele>
        <time>2015-06-21T09:43:23Z</time>
      </trkpt>
      <trkpt lat="45.85586" lon="1.82688">
        <ele>601.923</ele>
        <time>2015-06-21T09:43:37Z</time>
      </trkpt>
      <trkpt lat="45.85543" lon="1.82721">
        <ele>602.884</ele>
        <time>2015-06-21T09:43:53Z</time>
      </trkpt>
      <trkpt lat="45.85502" lon="1.82751">
        <ele>604.326</ele>
        <time>2015-06-21T09:44:10Z</time>
      </trkpt>
      <trkpt lat="45.85466" lon="1.82794">
        <ele>605.287</ele>
        <time>2015-06-21T09:44:28Z</time>
      </trkpt>
      <trkpt lat="45.85436" lon="1.82843">
        <ele>607.691</ele>
        <time>2015-06-21T09:44:48Z</time>
      </trkpt>
      <trkpt lat="45.85408" lon="1.82897">
        <ele>608.171</ele>
        <time>2015-06-21T09:45:07Z</time>
      </trkpt>
      <trkpt lat="45.85371" lon="1.82937">
        <ele>609.613</ele>
        <time>2015-06-21T09:45:25Z</time>
      </trkpt>
      <trkpt lat="45.85331" lon="1.8297">
        <ele>612.978</ele>
        <time>2015-06-21T09:45:44Z</time>
      </trkpt>
      <trkpt lat="45.8529" lon="1.82997">
        <ele>612.017</ele>
        <time>2015-06-21T09:46:02Z</time>
      </trkpt>
      <trkpt lat="45.85245" lon="1.83028">
        <ele>609.133</ele>
        <time>2015-06-21T09:46:17Z</time>
      </trkpt>
      <trkpt lat="45.85198" lon="1.83043">
        <ele>605.768</ele>
        <time>2015-06-21T09:46:29Z</time>
      </trkpt>
      <trkpt lat="45.85157" lon="1.83004">
        <ele>604.326</ele>
        <time>2015-06-21T09:46:44Z</time>
      </trkpt>
      <trkpt lat="45.85127" lon="1.82963">
        <ele>604.326</ele>
        <time>2015-06-21T09:46:59Z</time>
      </trkpt>
      <trkpt lat="45.85082" lon="1.82987">
        <ele>599.519</ele>
        <time>2015-06-21T09:47:17Z</time>
      </trkpt>
      <trkpt lat="45.85075" lon="1.8304">
        <ele>587.503</ele>
        <time>2015-06-21T09:51:14Z</time>
      </trkpt>
      <trkpt lat="45.85063" lon="1.83105">
        <ele>587.503</ele>
        <time>2015-06-21T09:51:36Z</time>
      </trkpt>
      <trkpt lat="45.85039" lon="1.83165">
        <ele>589.906</ele>
        <time>2015-06-21T09:51:57Z</time>
      </trkpt>
      <trkpt lat="45.85005" lon="1.83216">
        <ele>594.713</ele>
        <time>2015-06-21T09:52:20Z</time>
      </trkpt>
      <trkpt lat="45.84962" lon="1.83257">
        <ele>594.713</ele>
        <time>2015-06-21T09:52:39Z</time>
      </trkpt>
      <trkpt lat="45.84919" lon="1.83311">
        <ele>595.193</ele>
        <time>2015-06-21T09:53:02Z</time>
      </trkpt>
      <trkpt lat="45.8491" lon="1.83375">
        <ele>588.945</ele>
        <time>2015-06-21T09:53:18Z</time>
      </trkpt>
      <trkpt lat="45.84891" lon="1.83491">
        <ele>571.641</ele>
        <time>2015-06-21T09:54:06Z</time>
      </trkpt>
      <trkpt lat="45.84818" lon="1.83613">
        <ele>590.867</ele>
        <time>2015-06-21T09:55:07Z</time>
      </trkpt>
      <trkpt lat="45.84779" lon="1.83658">
        <ele>603.365</ele>
        <time>2015-06-21T09:55:53Z</time>
      </trkpt>
      <trkpt lat="45.84796" lon="1.83729">
        <ele>602.403</ele>
        <time>2015-06-21T09:56:35Z</time>
      </trkpt>
      <trkpt lat="45.84833" lon="1.83781">
        <ele>600.481</ele>
        <time>2015-06-21T09:56:59Z</time>
      </trkpt>
      <trkpt lat="45.84872" lon="1.8383">
        <ele>595.193</ele>
        <time>2015-06-21T09:57:15Z</time>
      </trkpt>
      <trkpt lat="45.84848" lon="1.83867">
        <ele>597.597</ele>
        <time>2015-06-21T09:57:43Z</time>
      </trkpt>
      <trkpt lat="45.84814" lon="1.83907">
        <ele>595.674</ele>
        <time>2015-06-21T09:58:06Z</time>
      </trkpt>
      <trkpt lat="45.84803" lon="1.83987">
        <ele>586.542</ele>
        <time>2015-06-21T09:58:24Z</time>
      </trkpt>
      <trkpt lat="45.84814" lon="1.84068">
        <ele>585.58</ele>
        <time>2015-06-21T09:58:50Z</time>
      </trkpt>
      <trkpt lat="45.84762" lon="1.84171">
        <ele>584.138</ele>
        <time>2015-06-21T10:00:07Z</time>
      </trkpt>
      <trkpt lat="45.84736" lon="1.84253">
        <ele>581.254</ele>
        <time>2015-06-21T10:00:33Z</time>
      </trkpt>
      <trkpt lat="45.84676" lon="1.84324">
        <ele>584.138</ele>
        <time>2015-06-21T10:01:09Z</time>
      </trkpt>
      <trkpt lat="45.84644" lon="1.84321">
        <ele>580.774</ele>
        <time>2015-06-21T10:01:52Z</time>
      </trkpt>
      <trkpt lat="45.84552" lon="1.84315">
        <ele>583.177</ele>
        <time>2015-06-21T10:05:01Z</time>
      </trkpt>
      <trkpt lat="45.84487" lon="1.84304">
        <ele>597.597</ele>
        <time>2015-06-21T10:07:07Z</time>
      </trkpt>
      <trkpt lat="45.8444" lon="1.84212">
        <ele>598.558</ele>
        <time>2015-06-21T10:09:30Z</time>
      </trkpt>
      <trkpt lat="45.84447" lon="1.84133">
        <ele>588.945</ele>
        <time>2015-06-21T10:10:46Z</time>
      </trkpt>
      <trkpt lat="45.84462" lon="1.84072">
        <ele>580.293</ele>
        <time>2015-06-21T10:11:33Z</time>
      </trkpt>
      <trkpt lat="45.84425" lon="1.8398">
        <ele>570.68</ele>
        <time>2015-06-21T10:13:14Z</time>
      </trkpt>
      <trkpt lat="45.84412" lon="1.83877">
        <ele>578.37</ele>
        <time>2015-06-21T10:14:09Z</time>
      </trkpt>
      <trkpt lat="45.84382" lon="1.83811">
        <ele>583.657</ele>
        <time>2015-06-21T10:14:56Z</time>
      </trkpt>
      <trkpt lat="45.84365" lon="1.83731">
        <ele>595.674</ele>
        <time>2015-06-21T10:16:07Z</time>
      </trkpt>
      <trkpt lat="45.84322" lon="1.83637">
        <ele>596.635</ele>
        <time>2015-06-21T10:17:27Z</time>
      </trkpt>
      <trkpt lat="45.84286" lon="1.83568">
        <ele>590.867</ele>
        <time>2015-06-21T10:18:22Z</time>
      </trkpt>
      <trkpt lat="45.84221" lon="1.83485">
        <ele>600.961</ele>
        <time>2015-06-21T10:19:41Z</time>
      </trkpt>
      <trkpt lat="45.84181" lon="1.83394">
        <ele>603.845</ele>
        <time>2015-06-21T10:20:36Z</time>
      </trkpt>
      <trkpt lat="45.84159" lon="1.83313">
        <ele>611.055</ele>
        <time>2015-06-21T10:21:13Z</time>
      </trkpt>
      <trkpt lat="45.84121" lon="1.83257">
        <ele>602.884</ele>
        <time>2015-06-21T10:21:53Z</time>
      </trkpt>
      <trkpt lat="45.84073" lon="1.83212">
        <ele>612.497</ele>
        <time>2015-06-21T10:22:20Z</time>
      </trkpt>
      <trkpt lat="45.84028" lon="1.83199">
        <ele>613.939</ele>
        <time>2015-06-21T10:22:42Z</time>
      </trkpt>
      <trkpt lat="45.84013" lon="1.83261">
        <ele>608.652</ele>
        <time>2015-06-21T10:23:02Z</time>
      </trkpt>
      <trkpt lat="45.8397" lon="1.8327">
        <ele>602.884</ele>
        <time>2015-06-21T10:24:29Z</time>
      </trkpt>
      <trkpt lat="45.83923" lon="1.83266">
        <ele>607.691</ele>
        <time>2015-06-21T10:25:16Z</time>
      </trkpt>
      <trkpt lat="45.83882" lon="1.83231">
        <ele>607.21</ele>
        <time>2015-06-21T10:25:26Z</time>
      </trkpt>
      <trkpt lat="45.83839" lon="1.83191">
        <ele>604.326</ele>
        <time>2015-06-21T10:25:33Z</time>
      </trkpt>
      <trkpt lat="45.83794" lon="1.8315">
        <ele>600.961</ele>
        <time>2015-06-21T10:25:39Z</time>
      </trkpt>
      <trkpt lat="45.83751" lon="1.83137">
        <ele>597.597</ele>
        <time>2015-06-21T10:25:44Z</time>
      </trkpt>
      <trkpt lat="45.83706" lon="1.83135">
        <ele>593.751</ele>
        <time>2015-06-21T10:25:49Z</time>
      </trkpt>
      <trkpt lat="45.83655" lon="1.83124">
        <ele>591.829</ele>
        <time>2015-06-21T10:25:55Z</time>
      </trkpt>
      <trkpt lat="45.8361" lon="1.83115">
        <ele>590.867</ele>
        <time>2015-06-21T10:26:02Z</time>
      </trkpt>
      <trkpt lat="45.83571" lon="1.83152">
        <ele>594.232</ele>
        <time>2015-06-21T10:26:19Z</time>
      </trkpt>
      <trkpt lat="45.83526" lon="1.83182">
        <ele>599.519</ele>
        <time>2015-06-21T10:26:39Z</time>
      </trkpt>
      <trkpt lat="45.83477" lon="1.83184">
        <ele>602.884</ele>
        <time>2015-06-21T10:26:58Z</time>
      </trkpt>
      <trkpt lat="45.83427" lon="1.83182">
        <ele>604.807</ele>
        <time>2015-06-21T10:27:15Z</time>
      </trkpt>
      <trkpt lat="45.83378" lon="1.8318">
        <ele>605.768</ele>
        <time>2015-06-21T10:27:29Z</time>
      </trkpt>
      <trkpt lat="45.83331" lon="1.83184">
        <ele>604.326</ele>
        <time>2015-06-21T10:27:38Z</time>
      </trkpt>
      <trkpt lat="45.83284" lon="1.83188">
        <ele>602.403</ele>
        <time>2015-06-21T10:27:45Z</time>
      </trkpt>
      <trkpt lat="45.83236" lon="1.8318">
        <ele>600.961</ele>
        <time>2015-06-21T10:27:52Z</time>
      </trkpt>
      <trkpt lat="45.83191" lon="1.83163">
        <ele>602.403</ele>
        <time>2015-06-21T10:28:02Z</time>
      </trkpt>
      <trkpt lat="45.83146" lon="1.83141">
        <ele>605.287</ele>
        <time>2015-06-21T10:28:16Z</time>
      </trkpt>
      <trkpt lat="45.83095" lon="1.83131">
        <ele>602.403</ele>
        <time>2015-06-21T10:28:38Z</time>
      </trkpt>
      <trkpt lat="45.83048" lon="1.83109">
        <ele>612.978</ele>
        <time>2015-06-21T10:29:05Z</time>
      </trkpt>
      <trkpt lat="45.8299" lon="1.83094">
        <ele>616.342</ele>
        <time>2015-06-21T10:29:33Z</time>
      </trkpt>
      <trkpt lat="45.82947" lon="1.8312">
        <ele>615.381</ele>
        <time>2015-06-21T10:29:53Z</time>
      </trkpt>
      <trkpt lat="45.82897" lon="1.83148">
        <ele>612.978</ele>
        <time>2015-06-21T10:30:05Z</time>
      </trkpt>
      <trkpt lat="45.82852" lon="1.83178">
        <ele>613.939</ele>
        <time>2015-06-21T10:30:15Z</time>
      </trkpt>
      <trkpt lat="45.82805" lon="1.83212">
        <ele>613.939</ele>
        <time>2015-06-21T10:30:25Z</time>
      </trkpt>
      <trkpt lat="45.82769" lon="1.83264">
        <ele>612.017</ele>
        <time>2015-06-21T10:30:34Z</time>
      </trkpt>
      <trkpt lat="45.82736" lon="1.83315">
        <ele>608.171</ele>
        <time>2015-06-21T10:30:40Z</time>
      </trkpt>
      <trkpt lat="45.82704" lon="1.83364">
        <ele>604.326</ele>
        <time>2015-06-21T10:30:45Z</time>
      </trkpt>
      <trkpt lat="45.82676" lon="1.83418">
        <ele>598.077</ele>
        <time>2015-06-21T10:30:51Z</time>
      </trkpt>
      <trkpt lat="45.82683" lon="1.83476">
        <ele>595.193</ele>
        <time>2015-06-21T10:31:01Z</time>
      </trkpt>
      <trkpt lat="45.82709" lon="1.83527">
        <ele>599.039</ele>
        <time>2015-06-21T10:31:18Z</time>
      </trkpt>
      <trkpt lat="45.82736" lon="1.83588">
        <ele>603.845</ele>
        <time>2015-06-21T10:31:37Z</time>
      </trkpt>
      <trkpt lat="45.82749" lon="1.83665">
        <ele>611.055</ele>
        <time>2015-06-21T10:32:08Z</time>
      </trkpt>
      <trkpt lat="45.82715" lon="1.83746">
        <ele>622.11</ele>
        <time>2015-06-21T10:32:51Z</time>
      </trkpt>
      <trkpt lat="45.82687" lon="1.83811">
        <ele>626.436</ele>
        <time>2015-06-21T10:33:27Z</time>
      </trkpt>
      <trkpt lat="45.82661" lon="1.83869">
        <ele>630.281</ele>
        <time>2015-06-21T10:34:03Z</time>
      </trkpt>
      <trkpt lat="45.82633" lon="1.83927">
        <ele>634.607</ele>
        <time>2015-06-21T10:34:41Z</time>
      </trkpt>
      <trkpt lat="45.82606" lon="1.84004">
        <ele>640.856</ele>
        <time>2015-06-21T10:35:28Z</time>
      </trkpt>
      <trkpt lat="45.82561" lon="1.84081">
        <ele>641.337</ele>
        <time>2015-06-21T10:36:19Z</time>
      </trkpt>
      <trkpt lat="45.82518" lon="1.84145">
        <ele>647.104</ele>
        <time>2015-06-21T10:37:00Z</time>
      </trkpt>
      <trkpt lat="45.82483" lon="1.84206">
        <ele>654.315</ele>
        <time>2015-06-21T10:37:37Z</time>
      </trkpt>
      <trkpt lat="45.82455" lon="1.8427">
        <ele>656.718</ele>
        <time>2015-06-21T10:38:14Z</time>
      </trkpt>
      <trkpt lat="45.8243" lon="1.84328">
        <ele>659.602</ele>
        <time>2015-06-21T10:38:47Z</time>
      </trkpt>
      <trkpt lat="45.82402" lon="1.84399">
        <ele>654.795</ele>
        <time>2015-06-21T10:42:12Z</time>
      </trkpt>
      <trkpt lat="45.82352" lon="1.84427">
        <ele>656.237</ele>
        <time>2015-06-21T10:42:23Z</time>
      </trkpt>
      <trkpt lat="45.82307" lon="1.84446">
        <ele>652.873</ele>
        <time>2015-06-21T10:42:35Z</time>
      </trkpt>
      <trkpt lat="45.82262" lon="1.84472">
        <ele>649.508</ele>
        <time>2015-06-21T10:42:52Z</time>
      </trkpt>
      <trkpt lat="45.82209" lon="1.84469">
        <ele>650.95</ele>
        <time>2015-06-21T10:43:15Z</time>
      </trkpt>
      <trkpt lat="45.82144" lon="1.84454">
        <ele>653.834</ele>
        <time>2015-06-21T10:43:53Z</time>
      </trkpt>
      <trkpt lat="45.82078" lon="1.84439">
        <ele>646.143</ele>
        <time>2015-06-21T10:44:18Z</time>
      </trkpt>
      <trkpt lat="45.82031" lon="1.84439">
        <ele>655.276</ele>
        <time>2015-06-21T10:44:39Z</time>
      </trkpt>
      <trkpt lat="45.81981" lon="1.84444">
        <ele>655.276</ele>
        <time>2015-06-21T10:45:01Z</time>
      </trkpt>
      <trkpt lat="45.81932" lon="1.84429">
        <ele>650.95</ele>
        <time>2015-06-21T10:45:20Z</time>
      </trkpt>
      <trkpt lat="45.8188" lon="1.84409">
        <ele>648.546</ele>
        <time>2015-06-21T10:45:31Z</time>
      </trkpt>
      <trkpt lat="45.8182" lon="1.84386">
        <ele>644.221</ele>
        <time>2015-06-21T10:45:41Z</time>
      </trkpt>
      <trkpt lat="45.81769" lon="1.84414">
        <ele>637.491</ele>
        <time>2015-06-21T10:45:49Z</time>
      </trkpt>
      <trkpt lat="45.81715" lon="1.84433">
        <ele>630.281</ele>
        <time>2015-06-21T10:45:57Z</time>
      </trkpt>
      <trkpt lat="45.81668" lon="1.84463">
        <ele>618.746</ele>
        <time>2015-06-21T10:46:08Z</time>
      </trkpt>
      <trkpt lat="45.81629" lon="1.84506">
        <ele>609.613</ele>
        <time>2015-06-21T10:46:22Z</time>
      </trkpt>
      <trkpt lat="45.81578" lon="1.84538">
        <ele>620.188</ele>
        <time>2015-06-21T10:46:45Z</time>
      </trkpt>
      <trkpt lat="45.81537" lon="1.84517">
        <ele>639.414</ele>
        <time>2015-06-21T10:47:44Z</time>
      </trkpt>
      <trkpt lat="45.81505" lon="1.84575">
        <ele>646.624</ele>
        <time>2015-06-21T10:48:34Z</time>
      </trkpt>
      <trkpt lat="45.81479" lon="1.8465">
        <ele>662.005</ele>
        <time>2015-06-21T10:49:34Z</time>
      </trkpt>
      <trkpt lat="45.81451" lon="1.84705">
        <ele>673.06</ele>
        <time>2015-06-21T10:50:31Z</time>
      </trkpt>
      <trkpt lat="45.81434" lon="1.84768">
        <ele>673.541</ele>
        <time>2015-06-21T10:51:24Z</time>
      </trkpt>
      <trkpt lat="45.81417" lon="1.84839">
        <ele>680.751</ele>
        <time>2015-06-21T10:52:18Z</time>
      </trkpt>
      <trkpt lat="45.81391" lon="1.84903">
        <ele>676.425</ele>
        <time>2015-06-21T10:54:14Z</time>
      </trkpt>
      <trkpt lat="45.81352" lon="1.84939">
        <ele>676.906</ele>
        <time>2015-06-21T10:54:36Z</time>
      </trkpt>
      <trkpt lat="45.81314" lon="1.84929">
        <ele>679.309</ele>
        <time>2015-06-21T10:54:56Z</time>
      </trkpt>
      <trkpt lat="45.81264" lon="1.84914">
        <ele>682.673</ele>
        <time>2015-06-21T10:55:24Z</time>
      </trkpt>
      <trkpt lat="45.81222" lon="1.84935">
        <ele>686.038</ele>
        <time>2015-06-21T10:55:49Z</time>
      </trkpt>
      <trkpt lat="45.81179" lon="1.84967">
        <ele>686.038</ele>
        <time>2015-06-21T10:56:12Z</time>
      </trkpt>
      <trkpt lat="45.81138" lon="1.85004">
        <ele>688.441</ele>
        <time>2015-06-21T10:56:33Z</time>
      </trkpt>
      <trkpt lat="45.81101" lon="1.85047">
        <ele>687.961</ele>
        <time>2015-06-21T10:56:52Z</time>
      </trkpt>
      <trkpt lat="45.81069" lon="1.85098">
        <ele>686.519</ele>
        <time>2015-06-21T10:57:09Z</time>
      </trkpt>
      <trkpt lat="45.81035" lon="1.85141">
        <ele>686.038</ele>
        <time>2015-06-21T10:57:24Z</time>
      </trkpt>
      <trkpt lat="45.8099" lon="1.85152">
        <ele>684.115</ele>
        <time>2015-06-21T10:57:39Z</time>
      </trkpt>
      <trkpt lat="45.8094" lon="1.85139">
        <ele>683.154</ele>
        <time>2015-06-21T10:57:57Z</time>
      </trkpt>
      <trkpt lat="45.80885" lon="1.85115">
        <ele>676.425</ele>
        <time>2015-06-21T10:58:15Z</time>
      </trkpt>
      <trkpt lat="45.80842" lon="1.85083">
        <ele>676.425</ele>
        <time>2015-06-21T10:58:33Z</time>
      </trkpt>
      <trkpt lat="45.8081" lon="1.8503">
        <ele>678.828</ele>
        <time>2015-06-21T10:58:52Z</time>
      </trkpt>
      <trkpt lat="45.8078" lon="1.84967">
        <ele>683.154</ele>
        <time>2015-06-21T10:59:12Z</time>
      </trkpt>
      <trkpt lat="45.80769" lon="1.84896">
        <ele>687.961</ele>
        <time>2015-06-21T10:59:29Z</time>
      </trkpt>
      <trkpt lat="45.80767" lon="1.84828">
        <ele>689.403</ele>
        <time>2015-06-21T10:59:47Z</time>
      </trkpt>
      <trkpt lat="45.8075" lon="1.84761">
        <ele>688.441</ele>
        <time>2015-06-21T11:00:05Z</time>
      </trkpt>
      <trkpt lat="45.80728" lon="1.84697">
        <ele>687.48</ele>
        <time>2015-06-21T11:00:21Z</time>
      </trkpt>
      <trkpt lat="45.80719" lon="1.84628">
        <ele>682.673</ele>
        <time>2015-06-21T11:00:29Z</time>
      </trkpt>
      <trkpt lat="45.80726" lon="1.84555">
        <ele>678.347</ele>
        <time>2015-06-21T11:00:35Z</time>
      </trkpt>
      <trkpt lat="45.80724" lon="1.8448">
        <ele>675.463</ele>
        <time>2015-06-21T11:00:41Z</time>
      </trkpt>
      <trkpt lat="45.80698" lon="1.84418">
        <ele>670.176</ele>
        <time>2015-06-21T11:00:54Z</time>
      </trkpt>
      <trkpt lat="45.80655" lon="1.84384">
        <ele>667.292</ele>
        <time>2015-06-21T11:01:02Z</time>
      </trkpt>
      <trkpt lat="45.80608" lon="1.84354">
        <ele>664.408</ele>
        <time>2015-06-21T11:01:09Z</time>
      </trkpt>
      <trkpt lat="45.80561" lon="1.8433">
        <ele>663.447</ele>
        <time>2015-06-21T11:01:16Z</time>
      </trkpt>
      <trkpt lat="45.80526" lon="1.84283">
        <ele>662.486</ele>
        <time>2015-06-21T11:01:24Z</time>
      </trkpt>
      <trkpt lat="45.80511" lon="1.84221">
        <ele>662.966</ele>
        <time>2015-06-21T11:01:35Z</time>
      </trkpt>
      <trkpt lat="45.80507" lon="1.84154">
        <ele>662.005</ele>
        <time>2015-06-21T11:01:49Z</time>
      </trkpt>
      <trkpt lat="45.80471" lon="1.84169">
        <ele>664.889</ele>
        <time>2015-06-21T11:02:08Z</time>
      </trkpt>
      <trkpt lat="45.80436" lon="1.84212">
        <ele>668.734</ele>
        <time>2015-06-21T11:02:27Z</time>
      </trkpt>
      <trkpt lat="45.80395" lon="1.84244">
        <ele>673.06</ele>
        <time>2015-06-21T11:02:47Z</time>
      </trkpt>
      <trkpt lat="45.80353" lon="1.84272">
        <ele>675.944</ele>
        <time>2015-06-21T11:03:05Z</time>
      </trkpt>
      <trkpt lat="45.80312" lon="1.843">
        <ele>677.386</ele>
        <time>2015-06-21T11:03:21Z</time>
      </trkpt>
      <trkpt lat="45.80271" lon="1.84332">
        <ele>677.386</ele>
        <time>2015-06-21T11:03:38Z</time>
      </trkpt>
      <trkpt lat="45.8023" lon="1.84356">
        <ele>680.751</ele>
        <time>2015-06-21T11:03:59Z</time>
      </trkpt>
      <trkpt lat="45.80185" lon="1.84343">
        <ele>683.154</ele>
        <time>2015-06-21T11:04:25Z</time>
      </trkpt>
      <trkpt lat="45.80151" lon="1.843">
        <ele>686.038</ele>
        <time>2015-06-21T11:04:55Z</time>
      </trkpt>
      <trkpt lat="45.80134" lon="1.84238">
        <ele>689.883</ele>
        <time>2015-06-21T11:05:26Z</time>
      </trkpt>
      <trkpt lat="45.80114" lon="1.84171">
        <ele>694.69</ele>
        <time>2015-06-21T11:05:57Z</time>
      </trkpt>
      <trkpt lat="45.80097" lon="1.84111">
        <ele>699.496</ele>
        <time>2015-06-21T11:06:25Z</time>
      </trkpt>
      <trkpt lat="45.80067" lon="1.8406">
        <ele>700.938</ele>
        <time>2015-06-21T11:06:52Z</time>
      </trkpt>
      <trkpt lat="45.80026" lon="1.8403">
        <ele>701.9</ele>
        <time>2015-06-21T11:07:16Z</time>
      </trkpt>
      <trkpt lat="45.79998" lon="1.83991">
        <ele>702.861</ele>
        <time>2015-06-21T11:07:46Z</time>
      </trkpt>
      <trkpt lat="45.79953" lon="1.83995">
        <ele>707.187</ele>
        <time>2015-06-21T11:08:21Z</time>
      </trkpt>
      <trkpt lat="45.79906" lon="1.84025">
        <ele>702.38</ele>
        <time>2015-06-21T11:08:44Z</time>
      </trkpt>
      <trkpt lat="45.79861" lon="1.84053">
        <ele>699.496</ele>
        <time>2015-06-21T12:06:37Z</time>
      </trkpt>
      <trkpt lat="45.79861" lon="1.84047">
        <ele>702.38</ele>
        <time>2015-06-21T12:08:30Z</time>
      </trkpt>
      <trkpt lat="45.79825" lon="1.84077">
        <ele>703.342</ele>
        <time>2015-06-21T12:10:05Z</time>
      </trkpt>
      <trkpt lat="45.79784" lon="1.84109">
        <ele>705.264</ele>
        <time>2015-06-21T12:10:25Z</time>
      </trkpt>
      <trkpt lat="45.79737" lon="1.84128">
        <ele>709.59</ele>
        <time>2015-06-21T12:10:43Z</time>
      </trkpt>
      <trkpt lat="45.79685" lon="1.84115">
        <ele>706.226</ele>
        <time>2015-06-21T12:11:12Z</time>
      </trkpt>
      <trkpt lat="45.7964" lon="1.8413">
        <ele>705.264</ele>
        <time>2015-06-21T12:12:00Z</time>
      </trkpt>
      <trkpt lat="45.79593" lon="1.84141">
        <ele>712.955</ele>
        <time>2015-06-21T12:12:21Z</time>
      </trkpt>
      <trkpt lat="45.79541" lon="1.84115">
        <ele>706.226</ele>
        <time>2015-06-21T12:12:44Z</time>
      </trkpt>
      <trkpt lat="45.79509" lon="1.84062">
        <ele>685.557</ele>
        <time>2015-06-21T12:13:06Z</time>
      </trkpt>
      <trkpt lat="45.79468" lon="1.84036">
        <ele>668.254</ele>
        <time>2015-06-21T12:13:36Z</time>
      </trkpt>
      <trkpt lat="45.79415" lon="1.84051">
        <ele>674.502</ele>
        <time>2015-06-21T12:14:19Z</time>
      </trkpt>
      <trkpt lat="45.79348" lon="1.84055">
        <ele>666.331</ele>
        <time>2015-06-21T12:15:09Z</time>
      </trkpt>
      <trkpt lat="45.79278" lon="1.84042">
        <ele>650.95</ele>
        <time>2015-06-21T12:15:55Z</time>
      </trkpt>
      <trkpt lat="45.79209" lon="1.84077">
        <ele>660.563</ele>
        <time>2015-06-21T12:16:41Z</time>
      </trkpt>
      <trkpt lat="45.79153" lon="1.84105">
        <ele>676.425</ele>
        <time>2015-06-21T12:17:16Z</time>
      </trkpt>
      <trkpt lat="45.79082" lon="1.84139">
        <ele>684.596</ele>
        <time>2015-06-21T12:17:56Z</time>
      </trkpt>
      <trkpt lat="45.7902" lon="1.84143">
        <ele>697.574</ele>
        <time>2015-06-21T12:18:30Z</time>
      </trkpt>
      <trkpt lat="45.78958" lon="1.8412">
        <ele>694.69</ele>
        <time>2015-06-21T12:19:00Z</time>
      </trkpt>
      <trkpt lat="45.78902" lon="1.84092">
        <ele>692.767</ele>
        <time>2015-06-21T12:19:25Z</time>
      </trkpt>
      <trkpt lat="45.7887" lon="1.84042">
        <ele>698.535</ele>
        <time>2015-06-21T12:19:48Z</time>
      </trkpt>
      <trkpt lat="45.7884" lon="1.83985">
        <ele>709.11</ele>
        <time>2015-06-21T12:20:13Z</time>
      </trkpt>
      <trkpt lat="45.78801" lon="1.83937">
        <ele>711.994</ele>
        <time>2015-06-21T12:20:36Z</time>
      </trkpt>
      <trkpt lat="45.78786" lon="1.83875">
        <ele>712.955</ele>
        <time>2015-06-21T12:21:03Z</time>
      </trkpt>
      <trkpt lat="45.78771" lon="1.83802">
        <ele>719.684</ele>
        <time>2015-06-21T12:21:31Z</time>
      </trkpt>
      <trkpt lat="45.78754" lon="1.83742">
        <ele>725.933</ele>
        <time>2015-06-21T12:21:59Z</time>
      </trkpt>
      <trkpt lat="45.78758" lon="1.83676">
        <ele>734.585</ele>
        <time>2015-06-21T12:22:30Z</time>
      </trkpt>
      <trkpt lat="45.78773" lon="1.83607">
        <ele>742.275</ele>
        <time>2015-06-21T12:23:02Z</time>
      </trkpt>
      <trkpt lat="45.78797" lon="1.83547">
        <ele>751.888</ele>
        <time>2015-06-21T12:23:33Z</time>
      </trkpt>
      <trkpt lat="45.78825" lon="1.83495">
        <ele>756.695</ele>
        <time>2015-06-21T12:24:06Z</time>
      </trkpt>
      <trkpt lat="45.78855" lon="1.83446">
        <ele>762.943</ele>
        <time>2015-06-21T12:24:41Z</time>
      </trkpt>
      <trkpt lat="45.78878" lon="1.83388">
        <ele>767.27</ele>
        <time>2015-06-21T12:25:14Z</time>
      </trkpt>
      <trkpt lat="45.78893" lon="1.83326">
        <ele>769.192</ele>
        <time>2015-06-21T12:25:42Z</time>
      </trkpt>
      <trkpt lat="45.78906" lon="1.83264">
        <ele>770.153</ele>
        <time>2015-06-21T12:26:09Z</time>
      </trkpt>
      <trkpt lat="45.78926" lon="1.83201">
        <ele>768.711</ele>
        <time>2015-06-21T12:26:22Z</time>
      </trkpt>
      <trkpt lat="45.78949" lon="1.83141">
        <ele>766.789</ele>
        <time>2015-06-21T12:26:36Z</time>
      </trkpt>
      <trkpt lat="45.78973" lon="1.83085">
        <ele>766.308</ele>
        <time>2015-06-21T12:26:49Z</time>
      </trkpt>
      <trkpt lat="45.78999" lon="1.8303">
        <ele>765.347</ele>
        <time>2015-06-21T12:27:03Z</time>
      </trkpt>
      <trkpt lat="45.79026" lon="1.82972">
        <ele>764.866</ele>
        <time>2015-06-21T12:27:18Z</time>
      </trkpt>
      <trkpt lat="45.79057" lon="1.82916">
        <ele>759.098</ele>
        <time>2015-06-21T12:27:30Z</time>
      </trkpt>
      <trkpt lat="45.79082" lon="1.82854">
        <ele>753.33</ele>
        <time>2015-06-21T12:27:40Z</time>
      </trkpt>
      <trkpt lat="45.79123" lon="1.82824">
        <ele>750.447</ele>
        <time>2015-06-21T12:27:49Z</time>
      </trkpt>
      <trkpt lat="45.79149" lon="1.82768">
        <ele>747.562</ele>
        <time>2015-06-21T12:28:01Z</time>
      </trkpt>
      <trkpt lat="45.79162" lon="1.82706">
        <ele>749.485</ele>
        <time>2015-06-21T12:28:16Z</time>
      </trkpt>
      <trkpt lat="45.79157" lon="1.82635">
        <ele>748.524</ele>
        <time>2015-06-21T12:28:29Z</time>
      </trkpt>
      <trkpt lat="45.79142" lon="1.8257">
        <ele>744.198</ele>
        <time>2015-06-21T12:28:41Z</time>
      </trkpt>
      <trkpt lat="45.79114" lon="1.8251">
        <ele>735.546</ele>
        <time>2015-06-21T12:28:50Z</time>
      </trkpt>
      <trkpt lat="45.79082" lon="1.82442">
        <ele>727.375</ele>
        <time>2015-06-21T12:28:57Z</time>
      </trkpt>
      <trkpt lat="45.79078" lon="1.82373">
        <ele>721.126</ele>
        <time>2015-06-21T12:29:02Z</time>
      </trkpt>
      <trkpt lat="45.79084" lon="1.82302">
        <ele>714.397</ele>
        <time>2015-06-21T12:29:08Z</time>
      </trkpt>
      <trkpt lat="45.79082" lon="1.82223">
        <ele>703.823</ele>
        <time>2015-06-21T12:29:15Z</time>
      </trkpt>
      <trkpt lat="45.79078" lon="1.8215">
        <ele>693.248</ele>
        <time>2015-06-21T12:29:23Z</time>
      </trkpt>
      <trkpt lat="45.79087" lon="1.82083">
        <ele>686.038</ele>
        <time>2015-06-21T12:29:32Z</time>
      </trkpt>
      <trkpt lat="45.79041" lon="1.8209">
        <ele>678.347</ele>
        <time>2015-06-21T12:29:47Z</time>
      </trkpt>
      <trkpt lat="45.79005" lon="1.82126">
        <ele>681.712</ele>
        <time>2015-06-21T12:30:01Z</time>
      </trkpt>
      <trkpt lat="45.78971" lon="1.82169">
        <ele>686.038</ele>
        <time>2015-06-21T12:30:21Z</time>
      </trkpt>
      <trkpt lat="45.78936" lon="1.82165">
        <ele>681.712</ele>
        <time>2015-06-21T12:30:32Z</time>
      </trkpt>
      <trkpt lat="45.78926" lon="1.82148">
        <ele>675.463</ele>
        <time>2015-06-21T12:30:46Z</time>
      </trkpt>
      <trkpt lat="45.78881" lon="1.82184">
        <ele>674.502</ele>
        <time>2015-06-21T12:30:55Z</time>
      </trkpt>
      <trkpt lat="45.78846" lon="1.82227">
        <ele>674.502</ele>
        <time>2015-06-21T12:31:03Z</time>
      </trkpt>
      <trkpt lat="45.78814" lon="1.82274">
        <ele>673.06</ele>
        <time>2015-06-21T12:31:14Z</time>
      </trkpt>
      <trkpt lat="45.78778" lon="1.82322">
        <ele>674.021</ele>
        <time>2015-06-21T12:31:26Z</time>
      </trkpt>
      <trkpt lat="45.78732" lon="1.82315">
        <ele>677.386</ele>
        <time>2015-06-21T12:31:42Z</time>
      </trkpt>
      <trkpt lat="45.78698" lon="1.82274">
        <ele>679.789</ele>
        <time>2015-06-21T12:32:11Z</time>
      </trkpt>
      <trkpt lat="45.78642" lon="1.82242">
        <ele>677.386</ele>
        <time>2015-06-21T12:32:41Z</time>
      </trkpt>
      <trkpt lat="45.78587" lon="1.82238">
        <ele>680.27</ele>
        <time>2015-06-21T12:33:06Z</time>
      </trkpt>
      <trkpt lat="45.78529" lon="1.82227">
        <ele>681.231</ele>
        <time>2015-06-21T12:33:24Z</time>
      </trkpt>
      <trkpt lat="45.78479" lon="1.82219">
        <ele>682.673</ele>
        <time>2015-06-21T12:33:40Z</time>
      </trkpt>
      <trkpt lat="45.78434" lon="1.82214">
        <ele>688.922</ele>
        <time>2015-06-21T12:33:59Z</time>
      </trkpt>
      <trkpt lat="45.78383" lon="1.82221">
        <ele>688.441</ele>
        <time>2015-06-21T12:34:18Z</time>
      </trkpt>
      <trkpt lat="45.78336" lon="1.8224">
        <ele>692.767</ele>
        <time>2015-06-21T12:34:37Z</time>
      </trkpt>
      <trkpt lat="45.7829" lon="1.82272">
        <ele>697.574</ele>
        <time>2015-06-21T12:34:55Z</time>
      </trkpt>
      <trkpt lat="45.7828" lon="1.8224">
        <ele>690.364</ele>
        <time>2015-06-21T12:35:09Z</time>
      </trkpt>
      <trkpt lat="45.78284" lon="1.82173">
        <ele>693.729</ele>
        <time>2015-06-21T12:35:22Z</time>
      </trkpt>
      <trkpt lat="45.78312" lon="1.82116">
        <ele>696.132</ele>
        <time>2015-06-21T12:35:40Z</time>
      </trkpt>
      <trkpt lat="45.7834" lon="1.8206">
        <ele>697.574</ele>
        <time>2015-06-21T12:35:59Z</time>
      </trkpt>
      <trkpt lat="45.78368" lon="1.82004">
        <ele>705.745</ele>
        <time>2015-06-21T12:36:23Z</time>
      </trkpt>
      <trkpt lat="45.78396" lon="1.81952">
        <ele>716.8</ele>
        <time>2015-06-21T12:36:54Z</time>
      </trkpt>
      <trkpt lat="45.78421" lon="1.81897">
        <ele>723.53</ele>
        <time>2015-06-21T12:37:32Z</time>
      </trkpt>
      <trkpt lat="45.78432" lon="1.81819">
        <ele>723.049</ele>
        <time>2015-06-21T12:38:13Z</time>
      </trkpt>
      <trkpt lat="45.78447" lon="1.81729">
        <ele>737.469</ele>
        <time>2015-06-21T12:39:09Z</time>
      </trkpt>
      <trkpt lat="45.78439" lon="1.81652">
        <ele>739.872</ele>
        <time>2015-06-21T12:39:49Z</time>
      </trkpt>
      <trkpt lat="45.78396" lon="1.81641">
        <ele>736.027</ele>
        <time>2015-06-21T12:40:07Z</time>
      </trkpt>
      <trkpt lat="45.78351" lon="1.81646">
        <ele>732.662</ele>
        <time>2015-06-21T12:40:23Z</time>
      </trkpt>
      <trkpt lat="45.78301" lon="1.81648">
        <ele>729.778</ele>
        <time>2015-06-21T12:40:35Z</time>
      </trkpt>
      <trkpt lat="45.78252" lon="1.81643">
        <ele>729.778</ele>
        <time>2015-06-21T12:40:45Z</time>
      </trkpt>
      <trkpt lat="45.78209" lon="1.81616">
        <ele>727.375</ele>
        <time>2015-06-21T12:40:57Z</time>
      </trkpt>
      <trkpt lat="45.78185" lon="1.81558">
        <ele>725.452</ele>
        <time>2015-06-21T12:41:05Z</time>
      </trkpt>
      <trkpt lat="45.78175" lon="1.81487">
        <ele>724.01</ele>
        <time>2015-06-21T12:41:13Z</time>
      </trkpt>
      <trkpt lat="45.78162" lon="1.81425">
        <ele>722.087</ele>
        <time>2015-06-21T12:41:21Z</time>
      </trkpt>
      <trkpt lat="45.7814" lon="1.81369">
        <ele>719.684</ele>
        <time>2015-06-21T12:41:29Z</time>
      </trkpt>
      <trkpt lat="45.78108" lon="1.81317">
        <ele>718.242</ele>
        <time>2015-06-21T12:41:39Z</time>
      </trkpt>
      <trkpt lat="45.78082" lon="1.81262">
        <ele>719.204</ele>
        <time>2015-06-21T12:41:51Z</time>
      </trkpt>
      <trkpt lat="45.78059" lon="1.81199">
        <ele>717.761</ele>
        <time>2015-06-21T12:42:02Z</time>
      </trkpt>
      <trkpt lat="45.78046" lon="1.81133">
        <ele>714.397</ele>
        <time>2015-06-21T12:42:11Z</time>
      </trkpt>
      <trkpt lat="45.78039" lon="1.81062">
        <ele>710.552</ele>
        <time>2015-06-21T12:42:19Z</time>
      </trkpt>
      <trkpt lat="45.78048" lon="1.80995">
        <ele>706.226</ele>
        <time>2015-06-21T12:42:27Z</time>
      </trkpt>
      <trkpt lat="45.78054" lon="1.80923">
        <ele>700.938</ele>
        <time>2015-06-21T12:42:36Z</time>
      </trkpt>
      <trkpt lat="45.78057" lon="1.8085">
        <ele>697.574</ele>
        <time>2015-06-21T12:42:47Z</time>
      </trkpt>
      <trkpt lat="45.78091" lon="1.80766">
        <ele>692.287</ele>
        <time>2015-06-21T12:46:19Z</time>
      </trkpt>
      <trkpt lat="45.78123" lon="1.80708">
        <ele>687.48</ele>
        <time>2015-06-21T12:46:26Z</time>
      </trkpt>
      <trkpt lat="45.78155" lon="1.80656">
        <ele>683.154</ele>
        <time>2015-06-21T12:46:34Z</time>
      </trkpt>
      <trkpt lat="45.78149" lon="1.80611">
        <ele>676.425</ele>
        <time>2015-06-21T12:47:11Z</time>
      </trkpt>
      <trkpt lat="45.78117" lon="1.80577">
        <ele>662.486</ele>
        <time>2015-06-21T12:47:39Z</time>
      </trkpt>
      <trkpt lat="45.78084" lon="1.8053">
        <ele>659.121</ele>
        <time>2015-06-21T12:48:40Z</time>
      </trkpt>
      <trkpt lat="45.7805" lon="1.80476">
        <ele>645.663</ele>
        <time>2015-06-21T12:48:52Z</time>
      </trkpt>
      <trkpt lat="45.78014" lon="1.80423">
        <ele>629.801</ele>
        <time>2015-06-21T12:49:01Z</time>
      </trkpt>
      <trkpt lat="45.77977" lon="1.80369">
        <ele>613.939</ele>
        <time>2015-06-21T12:49:13Z</time>
      </trkpt>
      <trkpt lat="45.77943" lon="1.80322">
        <ele>605.768</ele>
        <time>2015-06-21T12:49:24Z</time>
      </trkpt>
      <trkpt lat="45.77904" lon="1.80266">
        <ele>602.884</ele>
        <time>2015-06-21T12:49:35Z</time>
      </trkpt>
      <trkpt lat="45.77891" lon="1.80197">
        <ele>604.807</ele>
        <time>2015-06-21T12:49:43Z</time>
      </trkpt>
      <trkpt lat="45.7787" lon="1.80124">
        <ele>608.652</ele>
        <time>2015-06-21T12:49:50Z</time>
      </trkpt>
      <trkpt lat="45.77838" lon="1.80062">
        <ele>621.149</ele>
        <time>2015-06-21T12:49:58Z</time>
      </trkpt>
      <trkpt lat="45.77806" lon="1.80006">
        <ele>624.994</ele>
        <time>2015-06-21T12:50:06Z</time>
      </trkpt>
      <trkpt lat="45.77778" lon="1.79953">
        <ele>627.878</ele>
        <time>2015-06-21T12:50:14Z</time>
      </trkpt>
      <trkpt lat="45.77773" lon="1.79882">
        <ele>631.723</ele>
        <time>2015-06-21T12:50:26Z</time>
      </trkpt>
      <trkpt lat="45.77778" lon="1.79811">
        <ele>638.453</ele>
        <time>2015-06-21T12:50:45Z</time>
      </trkpt>
      <trkpt lat="45.77771" lon="1.7974">
        <ele>629.801</ele>
        <time>2015-06-21T12:51:01Z</time>
      </trkpt>
      <trkpt lat="45.77769" lon="1.79665">
        <ele>617.304</ele>
        <time>2015-06-21T12:51:18Z</time>
      </trkpt>
      <trkpt lat="45.77767" lon="1.79596">
        <ele>599.519</ele>
        <time>2015-06-21T12:51:28Z</time>
      </trkpt>
      <trkpt lat="45.7772" lon="1.79577">
        <ele>590.387</ele>
        <time>2015-06-21T12:51:36Z</time>
      </trkpt>
      <trkpt lat="45.77668" lon="1.79575">
        <ele>592.79</ele>
        <time>2015-06-21T12:51:46Z</time>
      </trkpt>
      <trkpt lat="45.77623" lon="1.79581">
        <ele>592.31</ele>
        <time>2015-06-21T12:51:55Z</time>
      </trkpt>
      <trkpt lat="45.77578" lon="1.79596">
        <ele>591.348</ele>
        <time>2015-06-21T12:52:05Z</time>
      </trkpt>
      <trkpt lat="45.77533" lon="1.79629">
        <ele>588.945</ele>
        <time>2015-06-21T12:52:15Z</time>
      </trkpt>
      <trkpt lat="45.77509" lon="1.79689">
        <ele>585.1</ele>
        <time>2015-06-21T12:52:25Z</time>
      </trkpt>
      <trkpt lat="45.77475" lon="1.79742">
        <ele>580.293</ele>
        <time>2015-06-21T12:52:33Z</time>
      </trkpt>
      <trkpt lat="45.77428" lon="1.79779">
        <ele>578.851</ele>
        <time>2015-06-21T12:52:43Z</time>
      </trkpt>
      <trkpt lat="45.77381" lon="1.79772">
        <ele>577.89</ele>
        <time>2015-06-21T12:52:55Z</time>
      </trkpt>
      <trkpt lat="45.77387" lon="1.79708">
        <ele>577.89</ele>
        <time>2015-06-21T12:53:53Z</time>
      </trkpt>
      <trkpt lat="45.77385" lon="1.79641">
        <ele>579.332</ele>
        <time>2015-06-21T12:54:04Z</time>
      </trkpt>
      <trkpt lat="45.77387" lon="1.79577">
        <ele>579.332</ele>
        <time>2015-06-21T12:54:12Z</time>
      </trkpt>
      <trkpt lat="45.77421" lon="1.79521">
        <ele>582.696</ele>
        <time>2015-06-21T12:54:33Z</time>
      </trkpt>
      <trkpt lat="45.77458" lon="1.79481">
        <ele>589.426</ele>
        <time>2015-06-21T12:54:49Z</time>
      </trkpt>
      <trkpt lat="45.77501" lon="1.79455">
        <ele>592.31</ele>
        <time>2015-06-21T12:55:05Z</time>
      </trkpt>
      <trkpt lat="45.77537" lon="1.79418">
        <ele>594.713</ele>
        <time>2015-06-21T12:55:23Z</time>
      </trkpt>
      <trkpt lat="45.77574" lon="1.79378">
        <ele>596.155</ele>
        <time>2015-06-21T12:55:42Z</time>
      </trkpt>
      <trkpt lat="45.7755" lon="1.79335">
        <ele>593.271</ele>
        <time>2015-06-21T12:56:50Z</time>
      </trkpt>
      <trkpt lat="45.77507" lon="1.79296">
        <ele>593.271</ele>
        <time>2015-06-21T12:57:04Z</time>
      </trkpt>
      <trkpt lat="45.77462" lon="1.79281">
        <ele>593.271</ele>
        <time>2015-06-21T12:57:15Z</time>
      </trkpt>
      <trkpt lat="45.77417" lon="1.7927">
        <ele>592.31</ele>
        <time>2015-06-21T12:57:24Z</time>
      </trkpt>
      <trkpt lat="45.77391" lon="1.79214">
        <ele>590.867</ele>
        <time>2015-06-21T12:57:31Z</time>
      </trkpt>
      <trkpt lat="45.77381" lon="1.79152">
        <ele>590.387</ele>
        <time>2015-06-21T12:57:40Z</time>
      </trkpt>
      <trkpt lat="45.77389" lon="1.79099">
        <ele>593.271</ele>
        <time>2015-06-21T12:58:04Z</time>
      </trkpt>
      <trkpt lat="45.77421" lon="1.79051">
        <ele>595.193</ele>
        <time>2015-06-21T12:58:23Z</time>
      </trkpt>
      <trkpt lat="45.77436" lon="1.78991">
        <ele>596.155</ele>
        <time>2015-06-21T12:58:40Z</time>
      </trkpt>
      <trkpt lat="45.77471" lon="1.78944">
        <ele>595.674</ele>
        <time>2015-06-21T12:58:56Z</time>
      </trkpt>
      <trkpt lat="45.7749" lon="1.78886">
        <ele>595.193</ele>
        <time>2015-06-21T12:59:49Z</time>
      </trkpt>
      <trkpt lat="45.77514" lon="1.7883">
        <ele>593.751</ele>
        <time>2015-06-21T13:00:02Z</time>
      </trkpt>
      <trkpt lat="45.77552" lon="1.7879">
        <ele>590.867</ele>
        <time>2015-06-21T13:00:10Z</time>
      </trkpt>
      <trkpt lat="45.77587" lon="1.78742">
        <ele>587.983</ele>
        <time>2015-06-21T13:00:18Z</time>
      </trkpt>
      <trkpt lat="45.7761" lon="1.7868">
        <ele>584.138</ele>
        <time>2015-06-21T13:00:26Z</time>
      </trkpt>
      <trkpt lat="45.7764" lon="1.78622">
        <ele>579.812</ele>
        <time>2015-06-21T13:00:34Z</time>
      </trkpt>
      <trkpt lat="45.77666" lon="1.78566">
        <ele>575.486</ele>
        <time>2015-06-21T13:00:43Z</time>
      </trkpt>
      <trkpt lat="45.77664" lon="1.78496">
        <ele>572.603</ele>
        <time>2015-06-21T13:00:53Z</time>
      </trkpt>
      <trkpt lat="45.77645" lon="1.78436">
        <ele>571.641</ele>
        <time>2015-06-21T13:01:03Z</time>
      </trkpt>
      <trkpt lat="45.77612" lon="1.78388">
        <ele>571.641</ele>
        <time>2015-06-21T13:01:16Z</time>
      </trkpt>
      <trkpt lat="45.77597" lon="1.78324">
        <ele>571.641</ele>
        <time>2015-06-21T13:01:28Z</time>
      </trkpt>
      <trkpt lat="45.77597" lon="1.78257">
        <ele>568.757</ele>
        <time>2015-06-21T13:01:43Z</time>
      </trkpt>
      <trkpt lat="45.77585" lon="1.78191">
        <ele>568.757</ele>
        <time>2015-06-21T13:02:02Z</time>
      </trkpt>
      <trkpt lat="45.77574" lon="1.7812">
        <ele>578.851</ele>
        <time>2015-06-21T13:02:26Z</time>
      </trkpt>
      <trkpt lat="45.77559" lon="1.78058">
        <ele>579.332</ele>
        <time>2015-06-21T13:02:49Z</time>
      </trkpt>
      <trkpt lat="45.77522" lon="1.78013">
        <ele>586.061</ele>
        <time>2015-06-21T13:03:19Z</time>
      </trkpt>
      <trkpt lat="45.77501" lon="1.77957">
        <ele>587.983</ele>
        <time>2015-06-21T13:03:40Z</time>
      </trkpt>
      <trkpt lat="45.77477" lon="1.77895">
        <ele>588.945</ele>
        <time>2015-06-21T13:03:56Z</time>
      </trkpt>
      <trkpt lat="45.77456" lon="1.77835">
        <ele>590.387</ele>
        <time>2015-06-21T13:04:12Z</time>
      </trkpt>
      <trkpt lat="45.77441" lon="1.77766">
        <ele>588.945</ele>
        <time>2015-06-21T13:04:23Z</time>
      </trkpt>
      <trkpt lat="45.7743" lon="1.77697">
        <ele>586.542</ele>
        <time>2015-06-21T13:04:31Z</time>
      </trkpt>
      <trkpt lat="45.77421" lon="1.77631">
        <ele>586.542</ele>
        <time>2015-06-21T13:04:40Z</time>
      </trkpt>
      <trkpt lat="45.77413" lon="1.77569">
        <ele>588.945</ele>
        <time>2015-06-21T13:04:56Z</time>
      </trkpt>
      <trkpt lat="45.77404" lon="1.77502">
        <ele>589.426</ele>
        <time>2015-06-21T13:05:13Z</time>
      </trkpt>
      <trkpt lat="45.77402" lon="1.77436">
        <ele>590.867</ele>
        <time>2015-06-21T13:05:30Z</time>
      </trkpt>
      <trkpt lat="45.77389" lon="1.77373">
        <ele>592.31</ele>
        <time>2015-06-21T13:05:49Z</time>
      </trkpt>
      <trkpt lat="45.77353" lon="1.77328">
        <ele>591.829</ele>
        <time>2015-06-21T13:06:03Z</time>
      </trkpt>
      <trkpt lat="45.77312" lon="1.77307">
        <ele>590.867</ele>
        <time>2015-06-21T13:06:12Z</time>
      </trkpt>
      <trkpt lat="45.77286" lon="1.77247">
        <ele>588.945</ele>
        <time>2015-06-21T13:06:21Z</time>
      </trkpt>
      <trkpt lat="45.77282" lon="1.7718">
        <ele>587.503</ele>
        <time>2015-06-21T13:06:58Z</time>
      </trkpt>
      <trkpt lat="45.77239" lon="1.77146">
        <ele>585.1</ele>
        <time>2015-06-21T13:07:11Z</time>
      </trkpt>
      <trkpt lat="45.77192" lon="1.77125">
        <ele>581.735</ele>
        <time>2015-06-21T13:07:19Z</time>
      </trkpt>
      <trkpt lat="45.77147" lon="1.7714">
        <ele>575.006</ele>
        <time>2015-06-21T13:07:28Z</time>
      </trkpt>
      <trkpt lat="45.77119" lon="1.77185">
        <ele>565.393</ele>
        <time>2015-06-21T13:07:40Z</time>
      </trkpt>
      <trkpt lat="45.77089" lon="1.77152">
        <ele>561.547</ele>
        <time>2015-06-21T13:07:51Z</time>
      </trkpt>
      <trkpt lat="45.77052" lon="1.77127">
        <ele>558.663</ele>
        <time>2015-06-21T13:07:58Z</time>
      </trkpt>
      <trkpt lat="45.77024" lon="1.77084">
        <ele>553.376</ele>
        <time>2015-06-21T13:08:07Z</time>
      </trkpt>
      <trkpt lat="45.77031" lon="1.77017">
        <ele>552.895</ele>
        <time>2015-06-21T13:08:17Z</time>
      </trkpt>
      <trkpt lat="45.77012" lon="1.76961">
        <ele>556.741</ele>
        <time>2015-06-21T13:08:32Z</time>
      </trkpt>
      <trkpt lat="45.76975" lon="1.76916">
        <ele>561.067</ele>
        <time>2015-06-21T13:08:50Z</time>
      </trkpt>
      <trkpt lat="45.76949" lon="1.76865">
        <ele>562.509</ele>
        <time>2015-06-21T13:09:06Z</time>
      </trkpt>
      <trkpt lat="45.76939" lon="1.76796">
        <ele>559.625</ele>
        <time>2015-06-21T13:09:23Z</time>
      </trkpt>
      <trkpt lat="45.76936" lon="1.76723">
        <ele>558.663</ele>
        <time>2015-06-21T13:09:40Z</time>
      </trkpt>
      <trkpt lat="45.76936" lon="1.76644">
        <ele>557.221</ele>
        <time>2015-06-21T13:09:55Z</time>
      </trkpt>
      <trkpt lat="45.76952" lon="1.76577">
        <ele>560.105</ele>
        <time>2015-06-21T13:10:08Z</time>
      </trkpt>
      <trkpt lat="45.76973" lon="1.76519">
        <ele>561.547</ele>
        <time>2015-06-21T13:10:21Z</time>
      </trkpt>
      <trkpt lat="45.76997" lon="1.76457">
        <ele>562.989</ele>
        <time>2015-06-21T13:10:37Z</time>
      </trkpt>
      <trkpt lat="45.77018" lon="1.76397">
        <ele>564.431</ele>
        <time>2015-06-21T13:10:53Z</time>
      </trkpt>
      <trkpt lat="45.77039" lon="1.76341">
        <ele>565.393</ele>
        <time>2015-06-21T13:11:07Z</time>
      </trkpt>
      <trkpt lat="45.77059" lon="1.76279">
        <ele>565.873</ele>
        <time>2015-06-21T13:11:21Z</time>
      </trkpt>
      <trkpt lat="45.77065" lon="1.76215">
        <ele>565.393</ele>
        <time>2015-06-21T13:11:33Z</time>
      </trkpt>
      <trkpt lat="45.77063" lon="1.76148">
        <ele>564.912</ele>
        <time>2015-06-21T13:11:47Z</time>
      </trkpt>
      <trkpt lat="45.77048" lon="1.76088">
        <ele>563.47</ele>
        <time>2015-06-21T13:12:02Z</time>
      </trkpt>
      <trkpt lat="45.77048" lon="1.76088">
        <ele>564.431</ele>
        <time>2015-06-21T13:12:25Z</time>
      </trkpt>
      <trkpt lat="45.77061" lon="1.76148">
        <ele>565.393</ele>
        <time>2015-06-21T13:12:41Z</time>
      </trkpt>
      <trkpt lat="45.77037" lon="1.76206">
        <ele>568.757</ele>
        <time>2015-06-21T13:13:05Z</time>
      </trkpt>
      <trkpt lat="45.76997" lon="1.76236">
        <ele>571.641</ele>
        <time>2015-06-21T13:13:31Z</time>
      </trkpt>
      <trkpt lat="45.76967" lon="1.76191">
        <ele>573.564</ele>
        <time>2015-06-21T13:14:00Z</time>
      </trkpt>
      <trkpt lat="45.76924" lon="1.76163">
        <ele>577.89</ele>
        <time>2015-06-21T13:14:34Z</time>
      </trkpt>
      <trkpt lat="45.76881" lon="1.76155">
        <ele>586.542</ele>
        <time>2015-06-21T13:15:13Z</time>
      </trkpt>
      <trkpt lat="45.76833" lon="1.76176">
        <ele>587.983</ele>
        <time>2015-06-21T13:15:34Z</time>
      </trkpt>
      <trkpt lat="45.76788" lon="1.76198">
        <ele>586.061</ele>
        <time>2015-06-21T13:15:48Z</time>
      </trkpt>
      <trkpt lat="45.76748" lon="1.76225">
        <ele>584.138</ele>
        <time>2015-06-21T13:15:57Z</time>
      </trkpt>
      <trkpt lat="45.76711" lon="1.76264">
        <ele>583.177</ele>
        <time>2015-06-21T13:16:06Z</time>
      </trkpt>
      <trkpt lat="45.76666" lon="1.76292">
        <ele>583.657</ele>
        <time>2015-06-21T13:16:18Z</time>
      </trkpt>
      <trkpt lat="45.76627" lon="1.76326">
        <ele>583.657</ele>
        <time>2015-06-21T13:16:32Z</time>
      </trkpt>
      <trkpt lat="45.76589" lon="1.76365">
        <ele>585.58</ele>
        <time>2015-06-21T13:16:49Z</time>
      </trkpt>
      <trkpt lat="45.76544" lon="1.76356">
        <ele>587.503</ele>
        <time>2015-06-21T13:17:08Z</time>
      </trkpt>
      <trkpt lat="45.76531" lon="1.76296">
        <ele>588.945</ele>
        <time>2015-06-21T13:17:35Z</time>
      </trkpt>
      <trkpt lat="45.76509" lon="1.7623">
        <ele>588.945</ele>
        <time>2015-06-21T13:17:54Z</time>
      </trkpt>
      <trkpt lat="45.76471" lon="1.76193">
        <ele>590.867</ele>
        <time>2015-06-21T13:18:11Z</time>
      </trkpt>
      <trkpt lat="45.76428" lon="1.76152">
        <ele>588.945</ele>
        <time>2015-06-21T13:18:21Z</time>
      </trkpt>
      <trkpt lat="45.76385" lon="1.76127">
        <ele>586.061</ele>
        <time>2015-06-21T13:18:28Z</time>
      </trkpt>
      <trkpt lat="45.76342" lon="1.76092">
        <ele>584.138</ele>
        <time>2015-06-21T13:18:40Z</time>
      </trkpt>
      <trkpt lat="45.76299" lon="1.76071">
        <ele>580.774</ele>
        <time>2015-06-21T13:18:50Z</time>
      </trkpt>
      <trkpt lat="45.76254" lon="1.7606">
        <ele>580.774</ele>
        <time>2015-06-21T13:19:04Z</time>
      </trkpt>
      <trkpt lat="45.76209" lon="1.76064">
        <ele>579.812</ele>
        <time>2015-06-21T13:19:21Z</time>
      </trkpt>
      <trkpt lat="45.7616" lon="1.76056">
        <ele>576.928</ele>
        <time>2015-06-21T13:19:33Z</time>
      </trkpt>
      <trkpt lat="45.76117" lon="1.76034">
        <ele>575.006</ele>
        <time>2015-06-21T13:19:46Z</time>
      </trkpt>
      <trkpt lat="45.7607" lon="1.76024">
        <ele>580.293</ele>
        <time>2015-06-21T13:20:10Z</time>
      </trkpt>
      <trkpt lat="45.76014" lon="1.76024">
        <ele>586.061</ele>
        <time>2015-06-21T13:20:44Z</time>
      </trkpt>
      <trkpt lat="45.75962" lon="1.76047">
        <ele>592.31</ele>
        <time>2015-06-21T13:21:10Z</time>
      </trkpt>
      <trkpt lat="45.75909" lon="1.76075">
        <ele>582.696</ele>
        <time>2015-06-21T13:22:04Z</time>
      </trkpt>
      <trkpt lat="45.75887" lon="1.76135">
        <ele>580.293</ele>
        <time>2015-06-21T13:22:16Z</time>
      </trkpt>
      <trkpt lat="45.75855" lon="1.76193">
        <ele>586.542</ele>
        <time>2015-06-21T13:22:31Z</time>
      </trkpt>
      <trkpt lat="45.75804" lon="1.76232">
        <ele>586.061</ele>
        <time>2015-06-21T13:22:45Z</time>
      </trkpt>
      <trkpt lat="45.75756" lon="1.76262">
        <ele>583.177</ele>
        <time>2015-06-21T13:22:54Z</time>
      </trkpt>
      <trkpt lat="45.75711" lon="1.76298">
        <ele>581.254</ele>
        <time>2015-06-21T13:23:03Z</time>
      </trkpt>
      <trkpt lat="45.7566" lon="1.76322">
        <ele>577.89</ele>
        <time>2015-06-21T13:23:10Z</time>
      </trkpt>
      <trkpt lat="45.75608" lon="1.76352">
        <ele>574.044</ele>
        <time>2015-06-21T13:23:17Z</time>
      </trkpt>
      <trkpt lat="45.75561" lon="1.76393">
        <ele>565.873</ele>
        <time>2015-06-21T13:23:24Z</time>
      </trkpt>
      <trkpt lat="45.75497" lon="1.76436">
        <ele>547.127</ele>
        <time>2015-06-21T13:23:31Z</time>
      </trkpt>
      <trkpt lat="45.75447" lon="1.7647">
        <ele>535.592</ele>
        <time>2015-06-21T13:23:38Z</time>
      </trkpt>
      <trkpt lat="45.75413" lon="1.76427">
        <ele>527.901</ele>
        <time>2015-06-21T13:23:44Z</time>
      </trkpt>
      <trkpt lat="45.75404" lon="1.76356">
        <ele>515.885</ele>
        <time>2015-06-21T13:23:53Z</time>
      </trkpt>
      <trkpt lat="45.75364" lon="1.76309">
        <ele>507.233</ele>
        <time>2015-06-21T13:24:04Z</time>
      </trkpt>
      <trkpt lat="45.75316" lon="1.76286">
        <ele>503.387</ele>
        <time>2015-06-21T13:24:11Z</time>
      </trkpt>
      <trkpt lat="45.75289" lon="1.76234">
        <ele>494.255</ele>
        <time>2015-06-21T13:24:23Z</time>
      </trkpt>
      <trkpt lat="45.75254" lon="1.76202">
        <ele>488.968</ele>
        <time>2015-06-21T13:24:36Z</time>
      </trkpt>
      <trkpt lat="45.75209" lon="1.76178">
        <ele>487.045</ele>
        <time>2015-06-21T13:24:48Z</time>
      </trkpt>
      <trkpt lat="45.75181" lon="1.76225">
        <ele>486.564</ele>
        <time>2015-06-21T13:24:59Z</time>
      </trkpt>
      <trkpt lat="45.75203" lon="1.76273">
        <ele>482.239</ele>
        <time>2015-06-21T13:26:22Z</time>
      </trkpt>
      <trkpt lat="45.75192" lon="1.76307">
        <ele>478.874</ele>
        <time>2015-06-21T13:26:38Z</time>
      </trkpt>
      <trkpt lat="45.75153" lon="1.76337">
        <ele>473.587</ele>
        <time>2015-06-21T13:26:55Z</time>
      </trkpt>
      <trkpt lat="45.75128" lon="1.76395">
        <ele>465.896</ele>
        <time>2015-06-21T13:27:18Z</time>
      </trkpt>
      <trkpt lat="45.75085" lon="1.76421">
        <ele>463.973</ele>
        <time>2015-06-21T13:27:34Z</time>
      </trkpt>
      <trkpt lat="45.75035" lon="1.76436">
        <ele>464.935</ele>
        <time>2015-06-21T13:27:58Z</time>
      </trkpt>
      <trkpt lat="45.74958" lon="1.76487">
        <ele>467.338</ele>
        <time>2015-06-21T13:28:51Z</time>
      </trkpt>
      <trkpt lat="45.74859" lon="1.76436">
        <ele>466.857</ele>
        <time>2015-06-21T13:31:26Z</time>
      </trkpt>
      <trkpt lat="45.74801" lon="1.76438">
        <ele>454.36</ele>
        <time>2015-06-21T13:31:48Z</time>
      </trkpt>
      <trkpt lat="45.74739" lon="1.76416">
        <ele>448.112</ele>
        <time>2015-06-21T13:32:09Z</time>
      </trkpt>
      <trkpt lat="45.74677" lon="1.76393">
        <ele>450.996</ele>
        <time>2015-06-21T13:32:27Z</time>
      </trkpt>
      <trkpt lat="45.7463" lon="1.76369">
        <ele>450.034</ele>
        <time>2015-06-21T13:32:39Z</time>
      </trkpt>
      <trkpt lat="45.74578" lon="1.7635">
        <ele>451.476</ele>
        <time>2015-06-21T13:32:52Z</time>
      </trkpt>
      <trkpt lat="45.74531" lon="1.76328">
        <ele>450.515</ele>
        <time>2015-06-21T13:33:06Z</time>
      </trkpt>
      <trkpt lat="45.74486" lon="1.76309">
        <ele>448.592</ele>
        <time>2015-06-21T13:33:27Z</time>
      </trkpt>
      <trkpt lat="45.74458" lon="1.76367">
        <ele>439.94</ele>
        <time>2015-06-21T13:33:38Z</time>
      </trkpt>
      <trkpt lat="45.74409" lon="1.76361">
        <ele>434.653</ele>
        <time>2015-06-21T13:33:50Z</time>
      </trkpt>
      <trkpt lat="45.74364" lon="1.76346">
        <ele>433.211</ele>
        <time>2015-06-21T13:34:12Z</time>
      </trkpt>
      <trkpt lat="45.74308" lon="1.76318">
        <ele>427.924</ele>
        <time>2015-06-21T13:35:14Z</time>
      </trkpt>
      <trkpt lat="45.74252" lon="1.76307">
        <ele>429.847</ele>
        <time>2015-06-21T13:35:41Z</time>
      </trkpt>
      <trkpt lat="45.74196" lon="1.7627">
        <ele>431.769</ele>
        <time>2015-06-21T13:36:06Z</time>
      </trkpt>
      <trkpt lat="45.74149" lon="1.7623">
        <ele>436.095</ele>
        <time>2015-06-21T13:36:28Z</time>
      </trkpt>
      <trkpt lat="45.74104" lon="1.76195">
        <ele>443.305</ele>
        <time>2015-06-21T13:36:58Z</time>
      </trkpt>
      <trkpt lat="45.74057" lon="1.76159">
        <ele>447.15</ele>
        <time>2015-06-21T13:37:22Z</time>
      </trkpt>
      <trkpt lat="45.74014" lon="1.76114">
        <ele>448.592</ele>
        <time>2015-06-21T13:37:47Z</time>
      </trkpt>
      <trkpt lat="45.73971" lon="1.76069">
        <ele>447.15</ele>
        <time>2015-06-21T13:38:15Z</time>
      </trkpt>
      <trkpt lat="45.73937" lon="1.76007">
        <ele>443.786</ele>
        <time>2015-06-21T13:38:40Z</time>
      </trkpt>
      <trkpt lat="45.7392" lon="1.75921">
        <ele>436.576</ele>
        <time>2015-06-21T13:39:07Z</time>
      </trkpt>
      <trkpt lat="45.73915" lon="1.75837">
        <ele>438.499</ele>
        <time>2015-06-21T13:39:29Z</time>
      </trkpt>
      <trkpt lat="45.73915" lon="1.75764">
        <ele>447.631</ele>
        <time>2015-06-21T13:39:51Z</time>
      </trkpt>
      <trkpt lat="45.739" lon="1.75702">
        <ele>446.67</ele>
        <time>2015-06-21T13:40:08Z</time>
      </trkpt>
      <trkpt lat="45.73872" lon="1.75642">
        <ele>438.979</ele>
        <time>2015-06-21T13:40:17Z</time>
      </trkpt>
      <trkpt lat="45.73853" lon="1.75584">
        <ele>432.25</ele>
        <time>2015-06-21T13:40:25Z</time>
      </trkpt>
      <trkpt lat="45.73872" lon="1.75517">
        <ele>426.963</ele>
        <time>2015-06-21T13:40:33Z</time>
      </trkpt>
      <trkpt lat="45.73859" lon="1.75457">
        <ele>419.753</ele>
        <time>2015-06-21T13:40:41Z</time>
      </trkpt>
      <trkpt lat="45.73827" lon="1.7541">
        <ele>412.543</ele>
        <time>2015-06-21T13:40:48Z</time>
      </trkpt>
      <trkpt lat="45.73836" lon="1.75352">
        <ele>409.659</ele>
        <time>2015-06-21T13:40:58Z</time>
      </trkpt>
      <trkpt lat="45.73866" lon="1.75303">
        <ele>411.101</ele>
        <time>2015-06-21T13:41:15Z</time>
      </trkpt>
      <trkpt lat="45.73881" lon="1.75243">
        <ele>413.024</ele>
        <time>2015-06-21T13:41:32Z</time>
      </trkpt>
      <trkpt lat="45.73877" lon="1.75172">
        <ele>409.178</ele>
        <time>2015-06-21T13:41:56Z</time>
      </trkpt>
      <trkpt lat="45.73864" lon="1.75099">
        <ele>414.946</ele>
        <time>2015-06-21T13:42:16Z</time>
      </trkpt>
      <trkpt lat="45.73851" lon="1.75028">
        <ele>414.946</ele>
        <time>2015-06-21T13:42:27Z</time>
      </trkpt>
      <trkpt lat="45.73853" lon="1.74953">
        <ele>411.582</ele>
        <time>2015-06-21T13:42:35Z</time>
      </trkpt>
      <trkpt lat="45.73819" lon="1.74899">
        <ele>410.62</ele>
        <time>2015-06-21T13:42:44Z</time>
      </trkpt>
      <trkpt lat="45.73778" lon="1.74871">
        <ele>409.178</ele>
        <time>2015-06-21T13:42:51Z</time>
      </trkpt>
      <trkpt lat="45.73748" lon="1.74831">
        <ele>409.178</ele>
        <time>2015-06-21T13:42:59Z</time>
      </trkpt>
      <trkpt lat="45.7375" lon="1.74764">
        <ele>408.217</ele>
        <time>2015-06-21T13:43:08Z</time>
      </trkpt>
      <trkpt lat="45.73754" lon="1.74695">
        <ele>406.775</ele>
        <time>2015-06-21T13:43:20Z</time>
      </trkpt>
      <trkpt lat="45.73765" lon="1.74631">
        <ele>401.488</ele>
        <time>2015-06-21T13:43:40Z</time>
      </trkpt>
      <trkpt lat="45.73795" lon="1.74577">
        <ele>401.488</ele>
        <time>2015-06-21T13:43:56Z</time>
      </trkpt>
      <trkpt lat="45.73844" lon="1.74539">
        <ele>405.814</ele>
        <time>2015-06-21T13:44:10Z</time>
      </trkpt>
      <trkpt lat="45.73892" lon="1.74515">
        <ele>406.775</ele>
        <time>2015-06-21T13:44:25Z</time>
      </trkpt>
      <trkpt lat="45.73937" lon="1.74489">
        <ele>407.736</ele>
        <time>2015-06-21T13:44:41Z</time>
      </trkpt>
      <trkpt lat="45.73952" lon="1.74449">
        <ele>402.93</ele>
        <time>2015-06-21T13:45:03Z</time>
      </trkpt>
      <trkpt lat="45.73913" lon="1.74468">
        <ele>439.46</ele>
        <time>2015-06-21T13:45:52Z</time>
      </trkpt>
      <trkpt lat="45.73907" lon="1.74414">
        <ele>434.653</ele>
        <time>2015-06-21T13:46:26Z</time>
      </trkpt>
      <trkpt lat="45.73866" lon="1.74346">
        <ele>433.692</ele>
        <time>2015-06-21T13:47:14Z</time>
      </trkpt>
      <trkpt lat="45.7378" lon="1.74294">
        <ele>437.537</ele>
        <time>2015-06-21T13:48:13Z</time>
      </trkpt>
      <trkpt lat="45.73733" lon="1.74286">
        <ele>445.228</ele>
        <time>2015-06-21T13:48:49Z</time>
      </trkpt>
      <trkpt lat="45.73681" lon="1.74311">
        <ele>458.686</ele>
        <time>2015-06-21T13:49:27Z</time>
      </trkpt>
      <trkpt lat="45.73643" lon="1.74273">
        <ele>452.438</ele>
        <time>2015-06-21T13:49:58Z</time>
      </trkpt>
      <trkpt lat="45.73589" lon="1.74266">
        <ele>449.554</ele>
        <time>2015-06-21T13:50:35Z</time>
      </trkpt>
      <trkpt lat="45.7354" lon="1.74266">
        <ele>452.438</ele>
        <time>2015-06-21T13:51:06Z</time>
      </trkpt>
      <trkpt lat="45.7349" lon="1.74266">
        <ele>455.322</ele>
        <time>2015-06-21T13:51:33Z</time>
      </trkpt>
      <trkpt lat="45.73445" lon="1.74277">
        <ele>458.206</ele>
        <time>2015-06-21T13:51:55Z</time>
      </trkpt>
      <trkpt lat="45.734" lon="1.74284">
        <ele>460.609</ele>
        <time>2015-06-21T13:52:16Z</time>
      </trkpt>
      <trkpt lat="45.73357" lon="1.74294">
        <ele>463.012</ele>
        <time>2015-06-21T13:52:40Z</time>
      </trkpt>
      <trkpt lat="45.73312" lon="1.74307">
        <ele>468.299</ele>
        <time>2015-06-21T13:53:11Z</time>
      </trkpt>
      <trkpt lat="45.73267" lon="1.74311">
        <ele>473.106</ele>
        <time>2015-06-21T13:53:42Z</time>
      </trkpt>
      <trkpt lat="45.73224" lon="1.74316">
        <ele>473.587</ele>
        <time>2015-06-21T13:54:09Z</time>
      </trkpt>
      <trkpt lat="45.73179" lon="1.74299">
        <ele>475.99</ele>
        <time>2015-06-21T13:54:39Z</time>
      </trkpt>
      <trkpt lat="45.73136" lon="1.74271">
        <ele>479.354</ele>
        <time>2015-06-21T13:55:07Z</time>
      </trkpt>
      <trkpt lat="45.73098" lon="1.74243">
        <ele>476.951</ele>
        <time>2015-06-21T13:55:35Z</time>
      </trkpt>
      <trkpt lat="45.73057" lon="1.74208">
        <ele>486.564</ele>
        <time>2015-06-21T14:01:35Z</time>
      </trkpt>
      <trkpt lat="45.73012" lon="1.74178">
        <ele>490.41</ele>
        <time>2015-06-21T14:02:05Z</time>
      </trkpt>
      <trkpt lat="45.72965" lon="1.74161">
        <ele>494.736</ele>
        <time>2015-06-21T14:02:33Z</time>
      </trkpt>
      <trkpt lat="45.7292" lon="1.7414">
        <ele>501.465</ele>
        <time>2015-06-21T14:03:05Z</time>
      </trkpt>
      <trkpt lat="45.72894" lon="1.74086">
        <ele>503.868</ele>
        <time>2015-06-21T14:03:36Z</time>
      </trkpt>
      <trkpt lat="45.72842" lon="1.74069">
        <ele>504.829</ele>
        <time>2015-06-21T14:04:05Z</time>
      </trkpt>
      <trkpt lat="45.72804" lon="1.74039">
        <ele>505.791</ele>
        <time>2015-06-21T14:04:34Z</time>
      </trkpt>
      <trkpt lat="45.72819" lon="1.73981">
        <ele>511.559</ele>
        <time>2015-06-21T14:05:04Z</time>
      </trkpt>
      <trkpt lat="45.72842" lon="1.73917">
        <ele>513.962</ele>
        <time>2015-06-21T14:05:36Z</time>
      </trkpt>
      <trkpt lat="45.72851" lon="1.73852">
        <ele>514.923</ele>
        <time>2015-06-21T14:06:07Z</time>
      </trkpt>
      <trkpt lat="45.72851" lon="1.73788">
        <ele>520.691</ele>
        <time>2015-06-21T14:06:36Z</time>
      </trkpt>
      <trkpt lat="45.7284" lon="1.73726">
        <ele>522.614</ele>
        <time>2015-06-21T14:07:05Z</time>
      </trkpt>
      <trkpt lat="45.72808" lon="1.73681">
        <ele>525.498</ele>
        <time>2015-06-21T14:07:33Z</time>
      </trkpt>
      <trkpt lat="45.72769" lon="1.73648">
        <ele>526.94</ele>
        <time>2015-06-21T14:08:01Z</time>
      </trkpt>
      <trkpt lat="45.72726" lon="1.73629">
        <ele>530.304</ele>
        <time>2015-06-21T14:08:30Z</time>
      </trkpt>
      <trkpt lat="45.72681" lon="1.73616">
        <ele>532.708</ele>
        <time>2015-06-21T14:09:01Z</time>
      </trkpt>
      <trkpt lat="45.7263" lon="1.73612">
        <ele>536.072</ele>
        <time>2015-06-21T14:09:31Z</time>
      </trkpt>
      <trkpt lat="45.72585" lon="1.73623">
        <ele>539.918</ele>
        <time>2015-06-21T14:10:00Z</time>
      </trkpt>
      <trkpt lat="45.72542" lon="1.73651">
        <ele>545.205</ele>
        <time>2015-06-21T14:10:33Z</time>
      </trkpt>
      <trkpt lat="45.72501" lon="1.73702">
        <ele>554.337</ele>
        <time>2015-06-21T14:11:10Z</time>
      </trkpt>
      <trkpt lat="45.72452" lon="1.73708">
        <ele>558.183</ele>
        <time>2015-06-21T14:11:45Z</time>
      </trkpt>
      <trkpt lat="45.72411" lon="1.73672">
        <ele>559.625</ele>
        <time>2015-06-21T14:12:19Z</time>
      </trkpt>
      <trkpt lat="45.7237" lon="1.73633">
        <ele>561.067</ele>
        <time>2015-06-21T14:12:51Z</time>
      </trkpt>
      <trkpt lat="45.72336" lon="1.73588">
        <ele>559.625</ele>
        <time>2015-06-21T14:13:24Z</time>
      </trkpt>
      <trkpt lat="45.72327" lon="1.73517">
        <ele>559.625</ele>
        <time>2015-06-21T14:13:58Z</time>
      </trkpt>
      <trkpt lat="45.72336" lon="1.73453">
        <ele>565.873</ele>
        <time>2015-06-21T14:14:30Z</time>
      </trkpt>
      <trkpt lat="45.7231" lon="1.73399">
        <ele>569.719</ele>
        <time>2015-06-21T14:15:00Z</time>
      </trkpt>
      <trkpt lat="45.72276" lon="1.73361">
        <ele>572.122</ele>
        <time>2015-06-21T14:15:31Z</time>
      </trkpt>
      <trkpt lat="45.72235" lon="1.73322">
        <ele>576.448</ele>
        <time>2015-06-21T14:16:04Z</time>
      </trkpt>
      <trkpt lat="45.72192" lon="1.73288">
        <ele>578.37</ele>
        <time>2015-06-21T14:16:36Z</time>
      </trkpt>
      <trkpt lat="45.72149" lon="1.73258">
        <ele>579.812</ele>
        <time>2015-06-21T14:17:09Z</time>
      </trkpt>
      <trkpt lat="45.72113" lon="1.73223">
        <ele>583.657</ele>
        <time>2015-06-21T14:17:41Z</time>
      </trkpt>
      <trkpt lat="45.72091" lon="1.73163">
        <ele>587.503</ele>
        <time>2015-06-21T14:18:14Z</time>
      </trkpt>
      <trkpt lat="45.72057" lon="1.73114">
        <ele>590.387</ele>
        <time>2015-06-21T14:18:45Z</time>
      </trkpt>
      <trkpt lat="45.72025" lon="1.73069">
        <ele>596.155</ele>
        <time>2015-06-21T14:19:15Z</time>
      </trkpt>
      <trkpt lat="45.71986" lon="1.73037">
        <ele>599.039</ele>
        <time>2015-06-21T14:19:46Z</time>
      </trkpt>
      <trkpt lat="45.71939" lon="1.73035">
        <ele>595.193</ele>
        <time>2015-06-21T14:20:19Z</time>
      </trkpt>
      <trkpt lat="45.71892" lon="1.7302">
        <ele>595.193</ele>
        <time>2015-06-21T14:20:54Z</time>
      </trkpt>
      <trkpt lat="45.71847" lon="1.72994">
        <ele>601.923</ele>
        <time>2015-06-21T14:21:27Z</time>
      </trkpt>
      <trkpt lat="45.71819" lon="1.72942">
        <ele>611.536</ele>
        <time>2015-06-21T14:21:59Z</time>
      </trkpt>
      <trkpt lat="45.71827" lon="1.72878">
        <ele>622.11</ele>
        <time>2015-06-21T14:22:31Z</time>
      </trkpt>
      <trkpt lat="45.71845" lon="1.72814">
        <ele>623.552</ele>
        <time>2015-06-21T14:23:04Z</time>
      </trkpt>
      <trkpt lat="45.71847" lon="1.72745">
        <ele>625.956</ele>
        <time>2015-06-21T14:23:36Z</time>
      </trkpt>
      <trkpt lat="45.7183" lon="1.72685">
        <ele>627.878</ele>
        <time>2015-06-21T14:24:06Z</time>
      </trkpt>
      <trkpt lat="45.71797" lon="1.7264">
        <ele>624.994</ele>
        <time>2015-06-21T14:24:36Z</time>
      </trkpt>
      <trkpt lat="45.71759" lon="1.72601">
        <ele>626.436</ele>
        <time>2015-06-21T14:25:04Z</time>
      </trkpt>
      <trkpt lat="45.71724" lon="1.72554">
        <ele>628.84</ele>
        <time>2015-06-21T14:25:22Z</time>
      </trkpt>
      <trkpt lat="45.71727" lon="1.72485">
        <ele>630.281</ele>
        <time>2015-06-21T14:25:37Z</time>
      </trkpt>
      <trkpt lat="45.71727" lon="1.72427">
        <ele>625.956</ele>
        <time>2015-06-21T14:36:01Z</time>
      </trkpt>
      <trkpt lat="45.71697" lon="1.72376">
        <ele>624.514</ele>
        <time>2015-06-21T14:36:23Z</time>
      </trkpt>
      <trkpt lat="45.71669" lon="1.7232">
        <ele>626.436</ele>
        <time>2015-06-21T14:36:43Z</time>
      </trkpt>
      <trkpt lat="45.71658" lon="1.72245">
        <ele>636.05</ele>
        <time>2015-06-21T14:37:05Z</time>
      </trkpt>
      <trkpt lat="45.71662" lon="1.72166">
        <ele>647.585</ele>
        <time>2015-06-21T14:37:26Z</time>
      </trkpt>
      <trkpt lat="45.71671" lon="1.72082">
        <ele>644.701</ele>
        <time>2015-06-21T14:37:41Z</time>
      </trkpt>
      <trkpt lat="45.71694" lon="1.72009">
        <ele>637.972</ele>
        <time>2015-06-21T14:37:55Z</time>
      </trkpt>
      <trkpt lat="45.71692" lon="1.71917">
        <ele>634.127</ele>
        <time>2015-06-21T14:38:13Z</time>
      </trkpt>
      <trkpt lat="45.71692" lon="1.71809">
        <ele>644.701</ele>
        <time>2015-06-21T14:38:45Z</time>
      </trkpt>
      <trkpt lat="45.71705" lon="1.71724">
        <ele>637.491</ele>
        <time>2015-06-21T14:39:03Z</time>
      </trkpt>
      <trkpt lat="45.71692" lon="1.71642">
        <ele>627.398</ele>
        <time>2015-06-21T14:39:15Z</time>
      </trkpt>
      <trkpt lat="45.71684" lon="1.71558">
        <ele>623.552</ele>
        <time>2015-06-21T14:39:31Z</time>
      </trkpt>
      <trkpt lat="45.71669" lon="1.71475">
        <ele>625.956</ele>
        <time>2015-06-21T14:39:50Z</time>
      </trkpt>
      <trkpt lat="45.71682" lon="1.71387">
        <ele>640.375</ele>
        <time>2015-06-21T14:40:08Z</time>
      </trkpt>
      <trkpt lat="45.71699" lon="1.71303">
        <ele>647.585</ele>
        <time>2015-06-21T14:40:22Z</time>
      </trkpt>
      <trkpt lat="45.71712" lon="1.71213">
        <ele>650.95</ele>
        <time>2015-06-21T14:40:36Z</time>
      </trkpt>
      <trkpt lat="45.71707" lon="1.71123">
        <ele>652.392</ele>
        <time>2015-06-21T14:40:52Z</time>
      </trkpt>
      <trkpt lat="45.71694" lon="1.71039">
        <ele>646.624</ele>
        <time>2015-06-21T14:41:05Z</time>
      </trkpt>
      <trkpt lat="45.71671" lon="1.70962">
        <ele>642.779</ele>
        <time>2015-06-21T14:41:20Z</time>
      </trkpt>
      <trkpt lat="45.71641" lon="1.70902">
        <ele>653.353</ele>
        <time>2015-06-21T14:41:29Z</time>
      </trkpt>
      <trkpt lat="45.71611" lon="1.70831">
        <ele>665.85</ele>
        <time>2015-06-21T14:41:38Z</time>
      </trkpt>
      <trkpt lat="45.71587" lon="1.70758">
        <ele>672.58</ele>
        <time>2015-06-21T14:41:46Z</time>
      </trkpt>
      <trkpt lat="45.7154" lon="1.7073">
        <ele>677.867</ele>
        <time>2015-06-21T14:41:54Z</time>
      </trkpt>
      <trkpt lat="45.7148" lon="1.70719">
        <ele>665.85</ele>
        <time>2015-06-21T14:42:03Z</time>
      </trkpt>
      <trkpt lat="45.71448" lon="1.70754">
        <ele>651.911</ele>
        <time>2015-06-21T14:42:13Z</time>
      </trkpt>
      <trkpt lat="45.71403" lon="1.70764">
        <ele>643.74</ele>
        <time>2015-06-21T14:42:21Z</time>
      </trkpt>
      <trkpt lat="45.71353" lon="1.7076">
        <ele>636.53</ele>
        <time>2015-06-21T14:42:29Z</time>
      </trkpt>
      <trkpt lat="45.71302" lon="1.7076">
        <ele>626.917</ele>
        <time>2015-06-21T14:42:36Z</time>
      </trkpt>
      <trkpt lat="45.71254" lon="1.70756">
        <ele>619.226</ele>
        <time>2015-06-21T14:42:46Z</time>
      </trkpt>
      <trkpt lat="45.71205" lon="1.70741">
        <ele>605.768</ele>
        <time>2015-06-21T14:42:55Z</time>
      </trkpt>
      <trkpt lat="45.71158" lon="1.70711">
        <ele>595.193</ele>
        <time>2015-06-21T14:43:18Z</time>
      </trkpt>
      <trkpt lat="45.71126" lon="1.70668">
        <ele>588.464</ele>
        <time>2015-06-21T14:43:32Z</time>
      </trkpt>
      <trkpt lat="45.71089" lon="1.70631">
        <ele>586.061</ele>
        <time>2015-06-21T14:43:47Z</time>
      </trkpt>
      <trkpt lat="45.71051" lon="1.70636">
        <ele>578.851</ele>
        <time>2015-06-21T14:44:22Z</time>
      </trkpt>
      <trkpt lat="45.71018" lon="1.70685">
        <ele>577.409</ele>
        <time>2015-06-21T14:44:40Z</time>
      </trkpt>
      <trkpt lat="45.70986" lon="1.70734">
        <ele>576.928</ele>
        <time>2015-06-21T14:44:52Z</time>
      </trkpt>
      <trkpt lat="45.7095" lon="1.70779">
        <ele>579.812</ele>
        <time>2015-06-21T14:45:08Z</time>
      </trkpt>
      <trkpt lat="45.70909" lon="1.70816">
        <ele>578.851</ele>
        <time>2015-06-21T14:45:16Z</time>
      </trkpt>
      <trkpt lat="45.70862" lon="1.70842">
        <ele>577.409</ele>
        <time>2015-06-21T14:45:22Z</time>
      </trkpt>
      <trkpt lat="45.70815" lon="1.70859">
        <ele>571.641</ele>
        <time>2015-06-21T14:45:31Z</time>
      </trkpt>
      <trkpt lat="45.70785" lon="1.70915">
        <ele>567.796</ele>
        <time>2015-06-21T14:45:38Z</time>
      </trkpt>
      <trkpt lat="45.70755" lon="1.70964">
        <ele>567.796</ele>
        <time>2015-06-21T14:45:51Z</time>
      </trkpt>
      <trkpt lat="45.70714" lon="1.70928">
        <ele>569.238</ele>
        <time>2015-06-21T14:46:19Z</time>
      </trkpt>
      <trkpt lat="45.70662" lon="1.70876">
        <ele>575.006</ele>
        <time>2015-06-21T14:47:00Z</time>
      </trkpt>
      <trkpt lat="45.70613" lon="1.70831">
        <ele>575.967</ele>
        <time>2015-06-21T14:47:30Z</time>
      </trkpt>
      <trkpt lat="45.70564" lon="1.70805">
        <ele>580.774</ele>
        <time>2015-06-21T14:47:45Z</time>
      </trkpt>
      <trkpt lat="45.7051" lon="1.70786">
        <ele>576.928</ele>
        <time>2015-06-21T14:47:56Z</time>
      </trkpt>
      <trkpt lat="45.70465" lon="1.70756">
        <ele>573.083</ele>
        <time>2015-06-21T14:48:10Z</time>
      </trkpt>
      <trkpt lat="45.70415" lon="1.70717">
        <ele>574.525</ele>
        <time>2015-06-21T14:48:26Z</time>
      </trkpt>
      <trkpt lat="45.7037" lon="1.70659">
        <ele>581.735</ele>
        <time>2015-06-21T14:48:40Z</time>
      </trkpt>
      <trkpt lat="45.70323" lon="1.70604">
        <ele>587.022</ele>
        <time>2015-06-21T14:48:51Z</time>
      </trkpt>
      <trkpt lat="45.70274" lon="1.70595">
        <ele>587.503</ele>
        <time>2015-06-21T14:49:02Z</time>
      </trkpt>
      <trkpt lat="45.7022" lon="1.70606">
        <ele>587.503</ele>
        <time>2015-06-21T14:49:13Z</time>
      </trkpt>
      <trkpt lat="45.70169" lon="1.70595">
        <ele>580.293</ele>
        <time>2015-06-21T14:49:26Z</time>
      </trkpt>
      <trkpt lat="45.70152" lon="1.70518">
        <ele>584.138</ele>
        <time>2015-06-21T14:49:58Z</time>
      </trkpt>
      <trkpt lat="45.70173" lon="1.70432">
        <ele>577.89</ele>
        <time>2015-06-21T14:50:29Z</time>
      </trkpt>
      <trkpt lat="45.70214" lon="1.70363">
        <ele>574.525</ele>
        <time>2015-06-21T14:50:58Z</time>
      </trkpt>
      <trkpt lat="45.70227" lon="1.70292">
        <ele>570.199</ele>
        <time>2015-06-21T14:51:12Z</time>
      </trkpt>
      <trkpt lat="45.70207" lon="1.70228">
        <ele>568.276</ele>
        <time>2015-06-21T14:51:20Z</time>
      </trkpt>
      <trkpt lat="45.70188" lon="1.70161">
        <ele>565.393</ele>
        <time>2015-06-21T14:51:26Z</time>
      </trkpt>
      <trkpt lat="45.70152" lon="1.70112">
        <ele>562.989</ele>
        <time>2015-06-21T14:51:32Z</time>
      </trkpt>
      <trkpt lat="45.70104" lon="1.70093">
        <ele>562.989</ele>
        <time>2015-06-21T14:51:40Z</time>
      </trkpt>
      <trkpt lat="45.70053" lon="1.70108">
        <ele>561.067</ele>
        <time>2015-06-21T14:51:47Z</time>
      </trkpt>
      <trkpt lat="45.7001" lon="1.70146">
        <ele>557.702</ele>
        <time>2015-06-21T14:51:53Z</time>
      </trkpt>
      <trkpt lat="45.69967" lon="1.70174">
        <ele>552.895</ele>
        <time>2015-06-21T14:52:02Z</time>
      </trkpt>
      <trkpt lat="45.69926" lon="1.70215">
        <ele>555.299</ele>
        <time>2015-06-21T14:52:17Z</time>
      </trkpt>
      <trkpt lat="45.69881" lon="1.70247">
        <ele>556.26</ele>
        <time>2015-06-21T14:52:37Z</time>
      </trkpt>
      <trkpt lat="45.69836" lon="1.7028">
        <ele>541.84</ele>
        <time>2015-06-21T14:52:59Z</time>
      </trkpt>
      <trkpt lat="45.69791" lon="1.70307">
        <ele>526.94</ele>
        <time>2015-06-21T14:53:23Z</time>
      </trkpt>
      <trkpt lat="45.69746" lon="1.70322">
        <ele>524.536</ele>
        <time>2015-06-21T14:53:39Z</time>
      </trkpt>
      <trkpt lat="45.69697" lon="1.70342">
        <ele>523.575</ele>
        <time>2015-06-21T14:53:46Z</time>
      </trkpt>
      <trkpt lat="45.6966" lon="1.70303">
        <ele>520.691</ele>
        <time>2015-06-21T14:53:52Z</time>
      </trkpt>
      <trkpt lat="45.69649" lon="1.70234">
        <ele>518.769</ele>
        <time>2015-06-21T14:53:59Z</time>
      </trkpt>
      <trkpt lat="45.69639" lon="1.70166">
        <ele>533.669</ele>
        <time>2015-06-21T14:54:15Z</time>
      </trkpt>
      <trkpt lat="45.696" lon="1.70129">
        <ele>543.282</ele>
        <time>2015-06-21T14:54:38Z</time>
      </trkpt>
      <trkpt lat="45.69549" lon="1.70114">
        <ele>553.376</ele>
        <time>2015-06-21T14:54:59Z</time>
      </trkpt>
      <trkpt lat="45.69553" lon="1.70054">
        <ele>555.779</ele>
        <time>2015-06-21T14:55:24Z</time>
      </trkpt>
      <trkpt lat="45.69594" lon="1.70018">
        <ele>565.393</ele>
        <time>2015-06-21T14:55:57Z</time>
      </trkpt>
      <trkpt lat="45.69641" lon="1.70016">
        <ele>566.354</ele>
        <time>2015-06-21T14:56:06Z</time>
      </trkpt>
      <trkpt lat="45.69688" lon="1.69996">
        <ele>564.912</ele>
        <time>2015-06-21T14:56:17Z</time>
      </trkpt>
      <trkpt lat="45.69731" lon="1.69945">
        <ele>558.183</ele>
        <time>2015-06-21T14:56:28Z</time>
      </trkpt>
      <trkpt lat="45.69752" lon="1.69878">
        <ele>550.011</ele>
        <time>2015-06-21T14:56:39Z</time>
      </trkpt>
      <trkpt lat="45.6977" lon="1.69799">
        <ele>556.741</ele>
        <time>2015-06-21T14:57:01Z</time>
      </trkpt>
      <trkpt lat="45.6977" lon="1.69726">
        <ele>565.873</ele>
        <time>2015-06-21T14:57:12Z</time>
      </trkpt>
      <trkpt lat="45.69759" lon="1.69651">
        <ele>575.967</ele>
        <time>2015-06-21T14:57:21Z</time>
      </trkpt>
      <trkpt lat="45.69763" lon="1.6958">
        <ele>579.332</ele>
        <time>2015-06-21T14:57:27Z</time>
      </trkpt>
      <trkpt lat="45.69755" lon="1.69503">
        <ele>581.735</ele>
        <time>2015-06-21T14:57:33Z</time>
      </trkpt>
      <trkpt lat="45.69733" lon="1.69434">
        <ele>580.774</ele>
        <time>2015-06-21T14:57:39Z</time>
      </trkpt>
      <trkpt lat="45.69707" lon="1.69368">
        <ele>568.757</ele>
        <time>2015-06-21T14:57:45Z</time>
      </trkpt>
      <trkpt lat="45.69682" lon="1.69301">
        <ele>557.221</ele>
        <time>2015-06-21T14:57:51Z</time>
      </trkpt>
      <trkpt lat="45.69669" lon="1.69232">
        <ele>551.934</ele>
        <time>2015-06-21T14:57:58Z</time>
      </trkpt>
      <trkpt lat="45.69654" lon="1.69159">
        <ele>547.608</ele>
        <time>2015-06-21T14:58:06Z</time>
      </trkpt>
      <trkpt lat="45.69641" lon="1.69091">
        <ele>537.514</ele>
        <time>2015-06-21T14:58:17Z</time>
      </trkpt>
      <trkpt lat="45.69594" lon="1.69065">
        <ele>521.653</ele>
        <time>2015-06-21T14:58:29Z</time>
      </trkpt>
      <trkpt lat="45.69549" lon="1.6908">
        <ele>510.117</ele>
        <time>2015-06-21T14:58:42Z</time>
      </trkpt>
      <trkpt lat="45.69504" lon="1.69093">
        <ele>500.023</ele>
        <time>2015-06-21T14:58:55Z</time>
      </trkpt>
      <trkpt lat="45.69456" lon="1.69095">
        <ele>492.813</ele>
        <time>2015-06-21T14:59:08Z</time>
      </trkpt>
      <trkpt lat="45.69413" lon="1.69108">
        <ele>488.968</ele>
        <time>2015-06-21T14:59:22Z</time>
      </trkpt>
      <trkpt lat="45.69366" lon="1.69116">
        <ele>486.564</ele>
        <time>2015-06-21T14:59:36Z</time>
      </trkpt>
      <trkpt lat="45.69319" lon="1.69119">
        <ele>484.161</ele>
        <time>2015-06-21T14:59:50Z</time>
      </trkpt>
      <trkpt lat="45.69272" lon="1.69132">
        <ele>485.603</ele>
        <time>2015-06-21T15:00:04Z</time>
      </trkpt>
      <trkpt lat="45.69225" lon="1.69099">
        <ele>487.045</ele>
        <time>2015-06-21T15:00:23Z</time>
      </trkpt>
      <trkpt lat="45.69182" lon="1.69061">
        <ele>483.68</ele>
        <time>2015-06-21T15:00:34Z</time>
      </trkpt>
      <trkpt lat="45.69149" lon="1.68988">
        <ele>487.045</ele>
        <time>2015-06-21T15:00:48Z</time>
      </trkpt>
      <trkpt lat="45.6913" lon="1.68915">
        <ele>488.968</ele>
        <time>2015-06-21T15:00:56Z</time>
      </trkpt>
      <trkpt lat="45.69085" lon="1.68885">
        <ele>486.564</ele>
        <time>2015-06-21T15:01:04Z</time>
      </trkpt>
      <trkpt lat="45.69038" lon="1.68887">
        <ele>483.2</ele>
        <time>2015-06-21T15:01:17Z</time>
      </trkpt>
      <trkpt lat="45.68991" lon="1.68898">
        <ele>479.354</ele>
        <time>2015-06-21T15:01:35Z</time>
      </trkpt>
      <trkpt lat="45.68941" lon="1.68906">
        <ele>476.471</ele>
        <time>2015-06-21T15:01:44Z</time>
      </trkpt>
      <trkpt lat="45.68894" lon="1.68893">
        <ele>473.587</ele>
        <time>2015-06-21T15:01:52Z</time>
      </trkpt>
      <trkpt lat="45.68845" lon="1.68865">
        <ele>467.819</ele>
        <time>2015-06-21T15:02:00Z</time>
      </trkpt>
      <trkpt lat="45.68804" lon="1.6884">
        <ele>463.493</ele>
        <time>2015-06-21T15:02:07Z</time>
      </trkpt>
      <trkpt lat="45.68813" lon="1.68786">
        <ele>463.493</ele>
        <time>2015-06-21T15:03:41Z</time>
      </trkpt>
      <trkpt lat="45.68845" lon="1.68735">
        <ele>460.128</ele>
        <time>2015-06-21T15:03:48Z</time>
      </trkpt>
      <trkpt lat="45.68875" lon="1.68692">
        <ele>458.206</ele>
        <time>2015-06-21T15:03:56Z</time>
      </trkpt>
      <trkpt lat="45.68862" lon="1.68621">
        <ele>461.089</ele>
        <time>2015-06-21T15:04:13Z</time>
      </trkpt>
      <trkpt lat="45.68845" lon="1.68561">
        <ele>463.973</ele>
        <time>2015-06-21T15:04:40Z</time>
      </trkpt>
      <trkpt lat="45.68834" lon="1.68483">
        <ele>464.935</ele>
        <time>2015-06-21T15:05:15Z</time>
      </trkpt>
      <trkpt lat="45.68815" lon="1.68428">
        <ele>467.338</ele>
        <time>2015-06-21T15:05:43Z</time>
      </trkpt>
      <trkpt lat="45.68774" lon="1.68391">
        <ele>476.951</ele>
        <time>2015-06-21T15:06:14Z</time>
      </trkpt>
      <trkpt lat="45.68727" lon="1.68365">
        <ele>480.316</ele>
        <time>2015-06-21T15:06:40Z</time>
      </trkpt>
      <trkpt lat="45.68682" lon="1.6834">
        <ele>479.354</ele>
        <time>2015-06-21T15:07:03Z</time>
      </trkpt>
      <trkpt lat="45.68637" lon="1.68323">
        <ele>483.68</ele>
        <time>2015-06-21T15:07:30Z</time>
      </trkpt>
      <trkpt lat="45.68579" lon="1.68301">
        <ele>483.68</ele>
        <time>2015-06-21T15:08:03Z</time>
      </trkpt>
      <trkpt lat="45.68521" lon="1.68282">
        <ele>482.239</ele>
        <time>2015-06-21T15:08:27Z</time>
      </trkpt>
      <trkpt lat="45.68467" lon="1.68235">
        <ele>483.68</ele>
        <time>2015-06-21T15:08:48Z</time>
      </trkpt>
      <trkpt lat="45.68416" lon="1.68215">
        <ele>480.316</ele>
        <time>2015-06-21T15:08:59Z</time>
      </trkpt>
      <trkpt lat="45.68364" lon="1.682">
        <ele>479.835</ele>
        <time>2015-06-21T15:09:12Z</time>
      </trkpt>
      <trkpt lat="45.68323" lon="1.68164">
        <ele>477.912</ele>
        <time>2015-06-21T15:09:27Z</time>
      </trkpt>
      <trkpt lat="45.68298" lon="1.68108">
        <ele>479.354</ele>
        <time>2015-06-21T15:09:44Z</time>
      </trkpt>
      <trkpt lat="45.68274" lon="1.68048">
        <ele>478.874</ele>
        <time>2015-06-21T15:09:59Z</time>
      </trkpt>
      <trkpt lat="45.6827" lon="1.67977">
        <ele>475.99</ele>
        <time>2015-06-21T15:10:17Z</time>
      </trkpt>
      <trkpt lat="45.68233" lon="1.67945">
        <ele>468.299</ele>
        <time>2015-06-21T15:10:41Z</time>
      </trkpt>
      <trkpt lat="45.68175" lon="1.67913">
        <ele>474.067</ele>
        <time>2015-06-21T15:11:29Z</time>
      </trkpt>
      <trkpt lat="45.68147" lon="1.67855">
        <ele>485.122</ele>
        <time>2015-06-21T15:12:16Z</time>
      </trkpt>
      <trkpt lat="45.68147" lon="1.67784">
        <ele>485.603</ele>
        <time>2015-06-21T15:12:34Z</time>
      </trkpt>
      <trkpt lat="45.68177" lon="1.6772">
        <ele>481.277</ele>
        <time>2015-06-21T15:12:48Z</time>
      </trkpt>
      <trkpt lat="45.68195" lon="1.67653">
        <ele>477.912</ele>
        <time>2015-06-21T15:12:56Z</time>
      </trkpt>
      <trkpt lat="45.68197" lon="1.67574">
        <ele>483.2</ele>
        <time>2015-06-21T15:13:20Z</time>
      </trkpt>
      <trkpt lat="45.68192" lon="1.67488">
        <ele>489.929</ele>
        <time>2015-06-21T15:14:03Z</time>
      </trkpt>
      <trkpt lat="45.68169" lon="1.67396">
        <ele>495.697</ele>
        <time>2015-06-21T15:14:57Z</time>
      </trkpt>
      <trkpt lat="45.68143" lon="1.6728">
        <ele>508.675</ele>
        <time>2015-06-21T15:16:05Z</time>
      </trkpt>
      <trkpt lat="45.68117" lon="1.6719">
        <ele>513.001</ele>
        <time>2015-06-21T15:16:56Z</time>
      </trkpt>
      <trkpt lat="45.68072" lon="1.67134">
        <ele>517.807</ele>
        <time>2015-06-21T15:17:36Z</time>
      </trkpt>
      <trkpt lat="45.68029" lon="1.67084">
        <ele>519.249</ele>
        <time>2015-06-21T15:18:19Z</time>
      </trkpt>
      <trkpt lat="45.67989" lon="1.67035">
        <ele>522.614</ele>
        <time>2015-06-21T15:19:03Z</time>
      </trkpt>
      <trkpt lat="45.67941" lon="1.67005">
        <ele>529.824</ele>
        <time>2015-06-21T15:19:48Z</time>
      </trkpt>
      <trkpt lat="45.67892" lon="1.66996">
        <ele>542.321</ele>
        <time>2015-06-21T15:20:42Z</time>
      </trkpt>
      <trkpt lat="45.67841" lon="1.67014">
        <ele>541.84</ele>
        <time>2015-06-21T15:20:56Z</time>
      </trkpt>
      <trkpt lat="45.67789" lon="1.66996">
        <ele>542.321</ele>
        <time>2015-06-21T15:21:05Z</time>
      </trkpt>
      <trkpt lat="45.6774" lon="1.66971">
        <ele>542.802</ele>
        <time>2015-06-21T15:21:14Z</time>
      </trkpt>
      <trkpt lat="45.67688" lon="1.66966">
        <ele>540.398</ele>
        <time>2015-06-21T15:21:24Z</time>
      </trkpt>
      <trkpt lat="45.67637" lon="1.66975">
        <ele>539.918</ele>
        <time>2015-06-21T15:21:34Z</time>
      </trkpt>
      <trkpt lat="45.67583" lon="1.66969">
        <ele>536.072</ele>
        <time>2015-06-21T15:21:43Z</time>
      </trkpt>
      <trkpt lat="45.67534" lon="1.66949">
        <ele>526.459</ele>
        <time>2015-06-21T15:21:50Z</time>
      </trkpt>
      <trkpt lat="45.67489" lon="1.66924">
        <ele>520.691</ele>
        <time>2015-06-21T15:21:56Z</time>
      </trkpt>
      <trkpt lat="45.67433" lon="1.66909">
        <ele>516.846</ele>
        <time>2015-06-21T15:22:01Z</time>
      </trkpt>
      <trkpt lat="45.67386" lon="1.66913">
        <ele>513.962</ele>
        <time>2015-06-21T15:22:05Z</time>
      </trkpt>
      <trkpt lat="45.67332" lon="1.66917">
        <ele>511.078</ele>
        <time>2015-06-21T15:22:09Z</time>
      </trkpt>
      <trkpt lat="45.67283" lon="1.669">
        <ele>509.636</ele>
        <time>2015-06-21T15:22:13Z</time>
      </trkpt>
      <trkpt lat="45.67233" lon="1.66848">
        <ele>506.271</ele>
        <time>2015-06-21T15:22:18Z</time>
      </trkpt>
      <trkpt lat="45.67184" lon="1.66814">
        <ele>502.907</ele>
        <time>2015-06-21T15:22:23Z</time>
      </trkpt>
      <trkpt lat="45.67128" lon="1.66808">
        <ele>499.062</ele>
        <time>2015-06-21T15:22:28Z</time>
      </trkpt>
      <trkpt lat="45.67075" lon="1.66795">
        <ele>494.255</ele>
        <time>2015-06-21T15:22:33Z</time>
      </trkpt>
      <trkpt lat="45.67029" lon="1.66754">
        <ele>489.448</ele>
        <time>2015-06-21T15:22:39Z</time>
      </trkpt>
      <trkpt lat="45.6706" lon="1.66705">
        <ele>478.874</ele>
        <time>2015-06-21T15:22:48Z</time>
      </trkpt>
      <trkpt lat="45.67064" lon="1.6664">
        <ele>469.261</ele>
        <time>2015-06-21T15:22:55Z</time>
      </trkpt>
      <trkpt lat="45.67068" lon="1.66569">
        <ele>462.051</ele>
        <time>2015-06-21T15:23:00Z</time>
      </trkpt>
      <trkpt lat="45.67081" lon="1.66507">
        <ele>456.764</ele>
        <time>2015-06-21T15:23:06Z</time>
      </trkpt>
      <trkpt lat="45.67044" lon="1.66458">
        <ele>451.957</ele>
        <time>2015-06-21T15:23:13Z</time>
      </trkpt>
      <trkpt lat="45.67023" lon="1.66394">
        <ele>445.708</ele>
        <time>2015-06-21T15:23:20Z</time>
      </trkpt>
      <trkpt lat="45.67002" lon="1.66327">
        <ele>440.421</ele>
        <time>2015-06-21T15:23:27Z</time>
      </trkpt>
      <trkpt lat="45.67034" lon="1.66286">
        <ele>435.615</ele>
        <time>2015-06-21T15:23:32Z</time>
      </trkpt>
      <trkpt lat="45.67081" lon="1.66295">
        <ele>430.327</ele>
        <time>2015-06-21T15:23:37Z</time>
      </trkpt>
      <trkpt lat="45.67124" lon="1.66284">
        <ele>425.04</ele>
        <time>2015-06-21T15:23:44Z</time>
      </trkpt>
      <trkpt lat="45.67085" lon="1.66248">
        <ele>420.714</ele>
        <time>2015-06-21T15:23:55Z</time>
      </trkpt>
      <trkpt lat="45.67044" lon="1.66213">
        <ele>417.83</ele>
        <time>2015-06-21T15:24:20Z</time>
      </trkpt>
      <trkpt lat="45.67021" lon="1.66151">
        <ele>415.427</ele>
        <time>2015-06-21T15:24:30Z</time>
      </trkpt>
      <trkpt lat="45.67014" lon="1.66087">
        <ele>412.062</ele>
        <time>2015-06-21T15:24:37Z</time>
      </trkpt>
      <trkpt lat="45.66991" lon="1.66029">
        <ele>406.775</ele>
        <time>2015-06-21T15:24:43Z</time>
      </trkpt>
      <trkpt lat="45.66939" lon="1.66018">
        <ele>402.93</ele>
        <time>2015-06-21T15:24:49Z</time>
      </trkpt>
      <trkpt lat="45.66899" lon="1.66052">
        <ele>401.007</ele>
        <time>2015-06-21T15:24:54Z</time>
      </trkpt>
      <trkpt lat="45.66858" lon="1.66087">
        <ele>399.084</ele>
        <time>2015-06-21T15:24:59Z</time>
      </trkpt>
      <trkpt lat="45.66819" lon="1.66125">
        <ele>395.239</ele>
        <time>2015-06-21T15:25:04Z</time>
      </trkpt>
      <trkpt lat="45.66774" lon="1.6613">
        <ele>392.355</ele>
        <time>2015-06-21T15:25:09Z</time>
      </trkpt>
      <trkpt lat="45.66736" lon="1.66095">
        <ele>390.913</ele>
        <time>2015-06-21T15:25:14Z</time>
      </trkpt>
      <trkpt lat="45.66693" lon="1.66061">
        <ele>390.913</ele>
        <time>2015-06-21T15:25:20Z</time>
      </trkpt>
      <trkpt lat="45.6665" lon="1.66022">
        <ele>391.875</ele>
        <time>2015-06-21T15:25:28Z</time>
      </trkpt>
      <trkpt lat="45.66607" lon="1.65999">
        <ele>394.759</ele>
        <time>2015-06-21T15:25:41Z</time>
      </trkpt>
      <trkpt lat="45.6656" lon="1.65992">
        <ele>399.565</ele>
        <time>2015-06-21T15:25:58Z</time>
      </trkpt>
      <trkpt lat="45.66514" lon="1.65984">
        <ele>401.969</ele>
        <time>2015-06-21T15:26:16Z</time>
      </trkpt>
      <trkpt lat="45.66467" lon="1.65969">
        <ele>404.852</ele>
        <time>2015-06-21T15:26:38Z</time>
      </trkpt>
      <trkpt lat="45.66424" lon="1.65949">
        <ele>406.775</ele>
        <time>2015-06-21T15:27:00Z</time>
      </trkpt>
      <trkpt lat="45.66381" lon="1.65924">
        <ele>406.775</ele>
        <time>2015-06-21T15:27:22Z</time>
      </trkpt>
      <trkpt lat="45.66356" lon="1.65874">
        <ele>411.101</ele>
        <time>2015-06-21T15:27:45Z</time>
      </trkpt>
      <trkpt lat="45.66324" lon="1.65821">
        <ele>410.62</ele>
        <time>2015-06-21T15:28:04Z</time>
      </trkpt>
      <trkpt lat="45.66289" lon="1.65771">
        <ele>406.294</ele>
        <time>2015-06-21T15:28:15Z</time>
      </trkpt>
      <trkpt lat="45.66255" lon="1.65806">
        <ele>401.488</ele>
        <time>2015-06-21T15:28:25Z</time>
      </trkpt>
      <trkpt lat="45.66225" lon="1.65724">
        <ele>430.808</ele>
        <time>2015-06-21T15:29:26Z</time>
      </trkpt>
      <trkpt lat="45.66182" lon="1.65638">
        <ele>439.46</ele>
        <time>2015-06-21T15:31:05Z</time>
      </trkpt>
      <trkpt lat="45.66126" lon="1.65634">
        <ele>438.018</ele>
        <time>2015-06-21T15:31:35Z</time>
      </trkpt>
      <trkpt lat="45.66068" lon="1.65634">
        <ele>434.653</ele>
        <time>2015-06-21T15:31:51Z</time>
      </trkpt>
      <trkpt lat="45.66083" lon="1.6557">
        <ele>442.344</ele>
        <time>2015-06-21T15:32:17Z</time>
      </trkpt>
      <trkpt lat="45.66096" lon="1.65509">
        <ele>445.708</ele>
        <time>2015-06-21T15:32:49Z</time>
      </trkpt>
      <trkpt lat="45.66094" lon="1.65443">
        <ele>437.057</ele>
        <time>2015-06-21T15:33:04Z</time>
      </trkpt>
      <trkpt lat="45.6607" lon="1.65381">
        <ele>429.366</ele>
        <time>2015-06-21T15:33:16Z</time>
      </trkpt>
      <trkpt lat="45.66047" lon="1.65312">
        <ele>430.808</ele>
        <time>2015-06-21T15:34:01Z</time>
      </trkpt>
      <trkpt lat="45.66023" lon="1.65248">
        <ele>428.885</ele>
        <time>2015-06-21T15:34:24Z</time>
      </trkpt>
      <trkpt lat="45.66021" lon="1.65177">
        <ele>432.731</ele>
        <time>2015-06-21T15:34:42Z</time>
      </trkpt>
      <trkpt lat="45.66019" lon="1.65108">
        <ele>437.537</ele>
        <time>2015-06-21T15:35:00Z</time>
      </trkpt>
      <trkpt lat="45.6601" lon="1.65037">
        <ele>434.173</ele>
        <time>2015-06-21T15:35:19Z</time>
      </trkpt>
      <trkpt lat="45.66036" lon="1.64997">
        <ele>428.405</ele>
        <time>2015-06-21T15:35:38Z</time>
      </trkpt>
      <trkpt lat="45.66077" lon="1.65022">
        <ele>425.04</ele>
        <time>2015-06-21T15:35:57Z</time>
      </trkpt>
      <trkpt lat="45.66113" lon="1.65052">
        <ele>425.521</ele>
        <time>2015-06-21T15:36:19Z</time>
      </trkpt>
      <trkpt lat="45.66148" lon="1.65106">
        <ele>424.559</ele>
        <time>2015-06-21T15:36:38Z</time>
      </trkpt>
      <trkpt lat="45.66188" lon="1.65091">
        <ele>428.405</ele>
        <time>2015-06-21T15:37:05Z</time>
      </trkpt>
      <trkpt lat="45.66184" lon="1.65059">
        <ele>428.885</ele>
        <time>2015-06-21T15:53:32Z</time>
      </trkpt>
      <trkpt lat="45.66158" lon="1.65007">
        <ele>432.25</ele>
        <time>2015-06-21T15:54:01Z</time>
      </trkpt>
      <trkpt lat="45.66115" lon="1.64986">
        <ele>428.885</ele>
        <time>2015-06-21T15:54:11Z</time>
      </trkpt>
      <trkpt lat="45.6607" lon="1.64975">
        <ele>426.001</ele>
        <time>2015-06-21T15:54:17Z</time>
      </trkpt>
      <trkpt lat="45.66021" lon="1.64971">
        <ele>423.598</ele>
        <time>2015-06-21T15:54:23Z</time>
      </trkpt>
      <trkpt lat="45.65974" lon="1.64967">
        <ele>425.521</ele>
        <time>2015-06-21T15:54:31Z</time>
      </trkpt>
      <trkpt lat="45.65929" lon="1.6496">
        <ele>431.769</ele>
        <time>2015-06-21T15:54:55Z</time>
      </trkpt>
      <trkpt lat="45.65894" lon="1.64934">
        <ele>438.018</ele>
        <time>2015-06-21T15:55:29Z</time>
      </trkpt>
      <trkpt lat="45.65839" lon="1.64937">
        <ele>456.764</ele>
        <time>2015-06-21T15:56:41Z</time>
      </trkpt>
      <trkpt lat="45.65744" lon="1.64889">
        <ele>475.509</ele>
        <time>2015-06-21T15:58:16Z</time>
      </trkpt>
      <trkpt lat="45.65691" lon="1.6484">
        <ele>475.029</ele>
        <time>2015-06-21T15:59:15Z</time>
      </trkpt>
      <trkpt lat="45.65654" lon="1.64801">
        <ele>476.471</ele>
        <time>2015-06-21T16:00:04Z</time>
      </trkpt>
      <trkpt lat="45.65618" lon="1.64765">
        <ele>479.354</ele>
        <time>2015-06-21T16:00:49Z</time>
      </trkpt>
      <trkpt lat="45.65573" lon="1.64741">
        <ele>485.122</ele>
        <time>2015-06-21T16:01:31Z</time>
      </trkpt>
      <trkpt lat="45.65527" lon="1.64731">
        <ele>490.89</ele>
        <time>2015-06-21T16:02:12Z</time>
      </trkpt>
      <trkpt lat="45.65482" lon="1.64726">
        <ele>495.697</ele>
        <time>2015-06-21T16:02:53Z</time>
      </trkpt>
      <trkpt lat="45.65439" lon="1.64728">
        <ele>502.426</ele>
        <time>2015-06-21T16:03:40Z</time>
      </trkpt>
      <trkpt lat="45.65399" lon="1.64754">
        <ele>510.597</ele>
        <time>2015-06-21T16:04:20Z</time>
      </trkpt>
      <trkpt lat="45.65371" lon="1.64806">
        <ele>519.249</ele>
        <time>2015-06-21T16:05:00Z</time>
      </trkpt>
      <trkpt lat="45.65341" lon="1.64853">
        <ele>521.653</ele>
        <time>2015-06-21T16:05:42Z</time>
      </trkpt>
      <trkpt lat="45.65279" lon="1.64846">
        <ele>537.034</ele>
        <time>2015-06-21T16:06:55Z</time>
      </trkpt>
      <trkpt lat="45.65248" lon="1.64801">
        <ele>539.918</ele>
        <time>2015-06-21T16:07:42Z</time>
      </trkpt>
      <trkpt lat="45.65214" lon="1.64754">
        <ele>540.879</ele>
        <time>2015-06-21T16:08:26Z</time>
      </trkpt>
      <trkpt lat="45.65169" lon="1.64741">
        <ele>547.127</ele>
        <time>2015-06-21T16:08:58Z</time>
      </trkpt>
      <trkpt lat="45.65122" lon="1.64741">
        <ele>545.205</ele>
        <time>2015-06-21T16:10:46Z</time>
      </trkpt>
      <trkpt lat="45.65077" lon="1.64731">
        <ele>542.802</ele>
        <time>2015-06-21T16:11:07Z</time>
      </trkpt>
      <trkpt lat="45.65038" lon="1.64698">
        <ele>541.84</ele>
        <time>2015-06-21T16:11:29Z</time>
      </trkpt>
      <trkpt lat="45.65002" lon="1.64653">
        <ele>542.802</ele>
        <time>2015-06-21T16:11:50Z</time>
      </trkpt>
      <trkpt lat="45.64961" lon="1.64621">
        <ele>542.802</ele>
        <time>2015-06-21T16:12:11Z</time>
      </trkpt>
      <trkpt lat="45.64914" lon="1.64608">
        <ele>543.282</ele>
        <time>2015-06-21T16:12:31Z</time>
      </trkpt>
      <trkpt lat="45.64871" lon="1.6463">
        <ele>545.205</ele>
        <time>2015-06-21T16:12:55Z</time>
      </trkpt>
      <trkpt lat="45.64826" lon="1.6463">
        <ele>547.608</ele>
        <time>2015-06-21T16:13:22Z</time>
      </trkpt>
      <trkpt lat="45.64798" lon="1.64587">
        <ele>551.453</ele>
        <time>2015-06-21T16:13:55Z</time>
      </trkpt>
      <trkpt lat="45.648" lon="1.64518">
        <ele>553.376</ele>
        <time>2015-06-21T16:14:30Z</time>
      </trkpt>
      <trkpt lat="45.64783" lon="1.64445">
        <ele>559.625</ele>
        <time>2015-06-21T16:15:01Z</time>
      </trkpt>
      <trkpt lat="45.64744" lon="1.644">
        <ele>564.431</ele>
        <time>2015-06-21T16:15:29Z</time>
      </trkpt>
      <trkpt lat="45.64701" lon="1.64376">
        <ele>573.083</ele>
        <time>2015-06-21T16:16:03Z</time>
      </trkpt>
      <trkpt lat="45.6465" lon="1.64366">
        <ele>574.044</ele>
        <time>2015-06-21T16:16:33Z</time>
      </trkpt>
      <trkpt lat="45.64613" lon="1.64329">
        <ele>575.967</ele>
        <time>2015-06-21T16:17:13Z</time>
      </trkpt>
      <trkpt lat="45.64566" lon="1.64314">
        <ele>581.735</ele>
        <time>2015-06-21T16:17:54Z</time>
      </trkpt>
      <trkpt lat="45.64517" lon="1.64299">
        <ele>586.061</ele>
        <time>2015-06-21T16:18:35Z</time>
      </trkpt>
      <trkpt lat="45.64472" lon="1.6428">
        <ele>587.022</ele>
        <time>2015-06-21T16:19:16Z</time>
      </trkpt>
      <trkpt lat="45.64431" lon="1.64248">
        <ele>586.542</ele>
        <time>2015-06-21T16:19:58Z</time>
      </trkpt>
      <trkpt lat="45.64397" lon="1.64205">
        <ele>591.829</ele>
        <time>2015-06-21T16:20:27Z</time>
      </trkpt>
      <trkpt lat="45.64364" lon="1.64155">
        <ele>589.906</ele>
        <time>2015-06-21T16:20:38Z</time>
      </trkpt>
      <trkpt lat="45.6433" lon="1.64106">
        <ele>588.464</ele>
        <time>2015-06-21T16:20:47Z</time>
      </trkpt>
      <trkpt lat="45.64291" lon="1.64059">
        <ele>585.58</ele>
        <time>2015-06-21T16:20:56Z</time>
      </trkpt>
      <trkpt lat="45.64249" lon="1.6402">
        <ele>583.177</ele>
        <time>2015-06-21T16:21:05Z</time>
      </trkpt>
      <trkpt lat="45.64199" lon="1.64003">
        <ele>581.735</ele>
        <time>2015-06-21T16:21:14Z</time>
      </trkpt>
      <trkpt lat="45.6415" lon="1.63992">
        <ele>580.774</ele>
        <time>2015-06-21T16:21:23Z</time>
      </trkpt>
      <trkpt lat="45.64098" lon="1.63986">
        <ele>580.293</ele>
        <time>2015-06-21T16:21:31Z</time>
      </trkpt>
      <trkpt lat="45.64053" lon="1.63984">
        <ele>580.293</ele>
        <time>2015-06-21T16:21:37Z</time>
      </trkpt>
      <trkpt lat="45.64002" lon="1.63986">
        <ele>579.812</ele>
        <time>2015-06-21T16:21:43Z</time>
      </trkpt>
      <trkpt lat="45.63952" lon="1.6399">
        <ele>579.332</ele>
        <time>2015-06-21T16:21:48Z</time>
      </trkpt>
      <trkpt lat="45.63903" lon="1.63992">
        <ele>576.928</ele>
        <time>2015-06-21T16:21:53Z</time>
      </trkpt>
      <trkpt lat="45.63852" lon="1.63997">
        <ele>573.083</ele>
        <time>2015-06-21T16:21:58Z</time>
      </trkpt>
      <trkpt lat="45.638" lon="1.63999">
        <ele>569.719</ele>
        <time>2015-06-21T16:22:03Z</time>
      </trkpt>
      <trkpt lat="45.63751" lon="1.64001">
        <ele>565.873</ele>
        <time>2015-06-21T16:22:08Z</time>
      </trkpt>
      <trkpt lat="45.63699" lon="1.64003">
        <ele>563.47</ele>
        <time>2015-06-21T16:22:13Z</time>
      </trkpt>
      <trkpt lat="45.6365" lon="1.6401">
        <ele>561.067</ele>
        <time>2015-06-21T16:22:18Z</time>
      </trkpt>
      <trkpt lat="45.63603" lon="1.64012">
        <ele>559.625</ele>
        <time>2015-06-21T16:22:23Z</time>
      </trkpt>
      <trkpt lat="45.63553" lon="1.64016">
        <ele>559.625</ele>
        <time>2015-06-21T16:22:30Z</time>
      </trkpt>
      <trkpt lat="45.63508" lon="1.64014">
        <ele>562.509</ele>
        <time>2015-06-21T16:22:46Z</time>
      </trkpt>
      <trkpt lat="45.63495" lon="1.63975">
        <ele>563.47</ele>
        <time>2015-06-21T16:23:15Z</time>
      </trkpt>
      <trkpt lat="45.63459" lon="1.63945">
        <ele>567.796</ele>
        <time>2015-06-21T16:23:49Z</time>
      </trkpt>
      <trkpt lat="45.63427" lon="1.63902">
        <ele>572.122</ele>
        <time>2015-06-21T16:24:23Z</time>
      </trkpt>
      <trkpt lat="45.63384" lon="1.63883">
        <ele>575.006</ele>
        <time>2015-06-21T16:25:00Z</time>
      </trkpt>
      <trkpt lat="45.63337" lon="1.63872">
        <ele>580.293</ele>
        <time>2015-06-21T16:25:56Z</time>
      </trkpt>
      <trkpt lat="45.63242" lon="1.63846">
        <ele>611.055</ele>
        <time>2015-06-21T16:28:41Z</time>
      </trkpt>
      <trkpt lat="45.63225" lon="1.63741">
        <ele>617.304</ele>
        <time>2015-06-21T16:30:19Z</time>
      </trkpt>
      <trkpt lat="45.63219" lon="1.63645">
        <ele>620.188</ele>
        <time>2015-06-21T16:31:42Z</time>
      </trkpt>
      <trkpt lat="45.63193" lon="1.63568">
        <ele>634.607</ele>
        <time>2015-06-21T16:32:42Z</time>
      </trkpt>
      <trkpt lat="45.63163" lon="1.63514">
        <ele>639.414</ele>
        <time>2015-06-21T16:33:37Z</time>
      </trkpt>
      <trkpt lat="45.6312" lon="1.63441">
        <ele>642.298</ele>
        <time>2015-06-21T16:34:35Z</time>
      </trkpt>
      <trkpt lat="45.63062" lon="1.63398">
        <ele>645.663</ele>
        <time>2015-06-21T16:35:14Z</time>
      </trkpt>
      <trkpt lat="45.63013" lon="1.6337">
        <ele>647.104</ele>
        <time>2015-06-21T16:35:40Z</time>
      </trkpt>
      <trkpt lat="45.62976" lon="1.63316">
        <ele>650.95</ele>
        <time>2015-06-21T16:36:12Z</time>
      </trkpt>
      <trkpt lat="45.62983" lon="1.63374">
        <ele>650.95</ele>
        <time>2015-06-21T16:38:50Z</time>
      </trkpt>
      <trkpt lat="45.63017" lon="1.63437">
        <ele>655.276</ele>
        <time>2015-06-21T16:39:40Z</time>
      </trkpt>
      <trkpt lat="45.63034" lon="1.63514">
        <ele>660.082</ele>
        <time>2015-06-21T16:40:22Z</time>
      </trkpt>
      <trkpt lat="45.63015" lon="1.63583">
        <ele>661.044</ele>
        <time>2015-06-21T16:41:11Z</time>
      </trkpt>
      <trkpt lat="45.6298" lon="1.63649">
        <ele>654.795</ele>
        <time>2015-06-21T16:41:47Z</time>
      </trkpt>
      <trkpt lat="45.62942" lon="1.63698">
        <ele>651.911</ele>
        <time>2015-06-21T16:43:45Z</time>
      </trkpt>
      <trkpt lat="45.62916" lon="1.63761">
        <ele>656.237</ele>
        <time>2015-06-21T16:44:11Z</time>
      </trkpt>
      <trkpt lat="45.62884" lon="1.63821">
        <ele>656.718</ele>
        <time>2015-06-21T16:44:49Z</time>
      </trkpt>
      <trkpt lat="45.62862" lon="1.63909">
        <ele>672.58</ele>
        <time>2015-06-21T16:45:53Z</time>
      </trkpt>
      <trkpt lat="45.62835" lon="1.63997">
        <ele>674.983</ele>
        <time>2015-06-21T16:46:43Z</time>
      </trkpt>
      <trkpt lat="45.62807" lon="1.64076">
        <ele>679.789</ele>
        <time>2015-06-21T16:47:28Z</time>
      </trkpt>
      <trkpt lat="45.62796" lon="1.64155">
        <ele>687.48</ele>
        <time>2015-06-21T16:48:19Z</time>
      </trkpt>
      <trkpt lat="45.62774" lon="1.64222">
        <ele>700.458</ele>
        <time>2015-06-21T16:49:32Z</time>
      </trkpt>
      <trkpt lat="45.62736" lon="1.64166">
        <ele>711.032</ele>
        <time>2015-06-21T16:50:52Z</time>
      </trkpt>
      <trkpt lat="45.62701" lon="1.641">
        <ele>718.242</ele>
        <time>2015-06-21T16:52:12Z</time>
      </trkpt>
      <trkpt lat="45.62671" lon="1.64046">
        <ele>716.8</ele>
        <time>2015-06-21T16:53:04Z</time>
      </trkpt>
      <trkpt lat="45.62635" lon="1.6401">
        <ele>720.165</ele>
        <time>2015-06-21T16:53:43Z</time>
      </trkpt>
      <trkpt lat="45.62588" lon="1.63986">
        <ele>715.839</ele>
        <time>2015-06-21T16:54:02Z</time>
      </trkpt>
      <trkpt lat="45.62549" lon="1.64022">
        <ele>711.032</ele>
        <time>2015-06-21T16:56:12Z</time>
      </trkpt>
      <trkpt lat="45.62508" lon="1.64059">
        <ele>707.668</ele>
        <time>2015-06-21T16:56:23Z</time>
      </trkpt>
      <trkpt lat="45.62465" lon="1.64093">
        <ele>704.303</ele>
        <time>2015-06-21T16:56:33Z</time>
      </trkpt>
      <trkpt lat="45.62427" lon="1.64128">
        <ele>702.861</ele>
        <time>2015-06-21T16:56:44Z</time>
      </trkpt>
      <trkpt lat="45.62388" lon="1.64166">
        <ele>701.9</ele>
        <time>2015-06-21T16:57:00Z</time>
      </trkpt>
      <trkpt lat="45.62395" lon="1.64216">
        <ele>704.303</ele>
        <time>2015-06-21T16:57:32Z</time>
      </trkpt>
      <trkpt lat="45.6239" lon="1.64267">
        <ele>706.706</ele>
        <time>2015-06-21T16:58:07Z</time>
      </trkpt>
      <trkpt lat="45.62352" lon="1.64295">
        <ele>708.629</ele>
        <time>2015-06-21T16:58:39Z</time>
      </trkpt>
      <trkpt lat="45.62315" lon="1.64334">
        <ele>707.187</ele>
        <time>2015-06-21T16:58:55Z</time>
      </trkpt>
      <trkpt lat="45.62281" lon="1.64376">
        <ele>706.226</ele>
        <time>2015-06-21T16:59:09Z</time>
      </trkpt>
      <trkpt lat="45.62242" lon="1.64413">
        <ele>706.226</ele>
        <time>2015-06-21T16:59:25Z</time>
      </trkpt>
      <trkpt lat="45.62206" lon="1.64452">
        <ele>707.187</ele>
        <time>2015-06-21T16:59:43Z</time>
      </trkpt>
      <trkpt lat="45.62161" lon="1.64471">
        <ele>708.148</ele>
        <time>2015-06-21T17:00:04Z</time>
      </trkpt>
      <trkpt lat="45.62124" lon="1.64503">
        <ele>709.59</ele>
        <time>2015-06-21T17:00:27Z</time>
      </trkpt>
      <trkpt lat="45.6209" lon="1.64544">
        <ele>712.955</ele>
        <time>2015-06-21T17:00:55Z</time>
      </trkpt>
      <trkpt lat="45.62053" lon="1.64582">
        <ele>717.761</ele>
        <time>2015-06-21T17:01:23Z</time>
      </trkpt>
      <trkpt lat="45.62017" lon="1.64619">
        <ele>719.204</ele>
        <time>2015-06-21T17:01:49Z</time>
      </trkpt>
      <trkpt lat="45.61978" lon="1.64655">
        <ele>719.684</ele>
        <time>2015-06-21T17:02:14Z</time>
      </trkpt>
      <trkpt lat="45.6194" lon="1.64692">
        <ele>719.684</ele>
        <time>2015-06-21T17:02:37Z</time>
      </trkpt>
      <trkpt lat="45.61908" lon="1.64739">
        <ele>716.8</ele>
        <time>2015-06-21T17:02:58Z</time>
      </trkpt>
      <trkpt lat="45.61875" lon="1.64786">
        <ele>709.11</ele>
        <time>2015-06-21T17:03:11Z</time>
      </trkpt>
      <trkpt lat="45.61835" lon="1.64834">
        <ele>707.187</ele>
        <time>2015-06-21T17:03:18Z</time>
      </trkpt>
      <trkpt lat="45.61792" lon="1.64881">
        <ele>703.823</ele>
        <time>2015-06-21T17:03:25Z</time>
      </trkpt>
      <trkpt lat="45.61751" lon="1.64922">
        <ele>699.016</ele>
        <time>2015-06-21T17:03:33Z</time>
      </trkpt>
      <trkpt lat="45.61699" lon="1.64943">
        <ele>694.69</ele>
        <time>2015-06-21T17:03:40Z</time>
      </trkpt>
      <trkpt lat="45.61654" lon="1.64962">
        <ele>692.287</ele>
        <time>2015-06-21T17:03:48Z</time>
      </trkpt>
      <trkpt lat="45.61611" lon="1.64979">
        <ele>691.806</ele>
        <time>2015-06-21T17:13:01Z</time>
      </trkpt>
      <trkpt lat="45.61571" lon="1.64962">
        <ele>690.364</ele>
        <time>2015-06-21T17:13:11Z</time>
      </trkpt>
      <trkpt lat="45.61523" lon="1.64969">
        <ele>691.325</ele>
        <time>2015-06-21T17:13:23Z</time>
      </trkpt>
      <trkpt lat="45.61478" lon="1.64977">
        <ele>691.806</ele>
        <time>2015-06-21T17:13:40Z</time>
      </trkpt>
      <trkpt lat="45.61431" lon="1.6499">
        <ele>688.922</ele>
        <time>2015-06-21T17:13:53Z</time>
      </trkpt>
      <trkpt lat="45.61386" lon="1.65018">
        <ele>685.557</ele>
        <time>2015-06-21T17:14:01Z</time>
      </trkpt>
      <trkpt lat="45.61343" lon="1.65055">
        <ele>681.712</ele>
        <time>2015-06-21T17:14:08Z</time>
      </trkpt>
      <trkpt lat="45.61294" lon="1.65082">
        <ele>677.867</ele>
        <time>2015-06-21T17:14:14Z</time>
      </trkpt>
      <trkpt lat="45.61244" lon="1.65108">
        <ele>671.618</ele>
        <time>2015-06-21T17:14:19Z</time>
      </trkpt>
      <trkpt lat="45.61202" lon="1.6513">
        <ele>658.64</ele>
        <time>2015-06-21T17:14:29Z</time>
      </trkpt>
      <trkpt lat="45.61157" lon="1.65155">
        <ele>646.143</ele>
        <time>2015-06-21T17:14:37Z</time>
      </trkpt>
      <trkpt lat="45.61111" lon="1.6519">
        <ele>636.53</ele>
        <time>2015-06-21T17:14:45Z</time>
      </trkpt>
      <trkpt lat="45.61066" lon="1.65222">
        <ele>633.165</ele>
        <time>2015-06-21T17:15:11Z</time>
      </trkpt>
      <trkpt lat="45.61056" lon="1.65158">
        <ele>635.569</ele>
        <time>2015-06-21T17:15:45Z</time>
      </trkpt>
      <trkpt lat="45.61036" lon="1.65102">
        <ele>640.856</ele>
        <time>2015-06-21T17:16:07Z</time>
      </trkpt>
      <trkpt lat="45.60991" lon="1.65123">
        <ele>632.204</ele>
        <time>2015-06-21T17:16:20Z</time>
      </trkpt>
      <trkpt lat="45.60957" lon="1.65173">
        <ele>624.514</ele>
        <time>2015-06-21T17:16:29Z</time>
      </trkpt>
      <trkpt lat="45.60923" lon="1.65218">
        <ele>618.265</ele>
        <time>2015-06-21T17:16:41Z</time>
      </trkpt>
      <trkpt lat="45.60882" lon="1.65194">
        <ele>613.939</ele>
        <time>2015-06-21T17:16:50Z</time>
      </trkpt>
      <trkpt lat="45.60845" lon="1.65155">
        <ele>611.055</ele>
        <time>2015-06-21T17:16:57Z</time>
      </trkpt>
      <trkpt lat="45.60809" lon="1.65108">
        <ele>608.171</ele>
        <time>2015-06-21T17:17:04Z</time>
      </trkpt>
      <trkpt lat="45.60787" lon="1.65048">
        <ele>605.768</ele>
        <time>2015-06-21T17:17:10Z</time>
      </trkpt>
      <trkpt lat="45.6077" lon="1.64988">
        <ele>602.884</ele>
        <time>2015-06-21T17:17:16Z</time>
      </trkpt>
      <trkpt lat="45.60745" lon="1.64928">
        <ele>599.519</ele>
        <time>2015-06-21T17:17:23Z</time>
      </trkpt>
      <trkpt lat="45.60704" lon="1.649">
        <ele>596.635</ele>
        <time>2015-06-21T17:17:30Z</time>
      </trkpt>
      <trkpt lat="45.60663" lon="1.64879">
        <ele>593.751</ele>
        <time>2015-06-21T17:17:39Z</time>
      </trkpt>
      <trkpt lat="45.60627" lon="1.64919">
        <ele>589.426</ele>
        <time>2015-06-21T17:17:50Z</time>
      </trkpt>
      <trkpt lat="45.60596" lon="1.64975">
        <ele>586.542</ele>
        <time>2015-06-21T17:17:59Z</time>
      </trkpt>
      <trkpt lat="45.60564" lon="1.65018">
        <ele>583.177</ele>
        <time>2015-06-21T17:18:07Z</time>
      </trkpt>
      <trkpt lat="45.60545" lon="1.6496">
        <ele>581.735</ele>
        <time>2015-06-21T17:18:19Z</time>
      </trkpt>
      <trkpt lat="45.60504" lon="1.64928">
        <ele>582.216</ele>
        <time>2015-06-21T17:18:32Z</time>
      </trkpt>
      <trkpt lat="45.60459" lon="1.64937">
        <ele>585.1</ele>
        <time>2015-06-21T17:18:47Z</time>
      </trkpt>
      <trkpt lat="45.60416" lon="1.64919">
        <ele>588.464</ele>
        <time>2015-06-21T17:19:08Z</time>
      </trkpt>
      <trkpt lat="45.60375" lon="1.64889">
        <ele>588.945</ele>
        <time>2015-06-21T17:19:26Z</time>
      </trkpt>
      <trkpt lat="45.60333" lon="1.64866">
        <ele>586.061</ele>
        <time>2015-06-21T17:19:38Z</time>
      </trkpt>
      <trkpt lat="45.6029" lon="1.64836">
        <ele>583.657</ele>
        <time>2015-06-21T17:19:45Z</time>
      </trkpt>
      <trkpt lat="45.60245" lon="1.64804">
        <ele>584.138</ele>
        <time>2015-06-21T17:19:53Z</time>
      </trkpt>
      <trkpt lat="45.60202" lon="1.64773">
        <ele>585.58</ele>
        <time>2015-06-21T17:20:05Z</time>
      </trkpt>
      <trkpt lat="45.60167" lon="1.64737">
        <ele>585.58</ele>
        <time>2015-06-21T17:20:20Z</time>
      </trkpt>
      <trkpt lat="45.60137" lon="1.64688">
        <ele>587.983</ele>
        <time>2015-06-21T17:20:40Z</time>
      </trkpt>
      <trkpt lat="45.60103" lon="1.64634">
        <ele>597.597</ele>
        <time>2015-06-21T17:21:04Z</time>
      </trkpt>
      <trkpt lat="45.60062" lon="1.64585">
        <ele>597.116</ele>
        <time>2015-06-21T17:21:22Z</time>
      </trkpt>
      <trkpt lat="45.60021" lon="1.64546">
        <ele>595.193</ele>
        <time>2015-06-21T17:21:38Z</time>
      </trkpt>
      <trkpt lat="45.59981" lon="1.64516">
        <ele>596.635</ele>
        <time>2015-06-21T17:21:53Z</time>
      </trkpt>
      <trkpt lat="45.5994" lon="1.64482">
        <ele>595.193</ele>
        <time>2015-06-21T17:22:05Z</time>
      </trkpt>
      <trkpt lat="45.59897" lon="1.64447">
        <ele>595.674</ele>
        <time>2015-06-21T17:22:17Z</time>
      </trkpt>
      <trkpt lat="45.59856" lon="1.64413">
        <ele>595.674</ele>
        <time>2015-06-21T17:22:30Z</time>
      </trkpt>
      <trkpt lat="45.59811" lon="1.64387">
        <ele>594.232</ele>
        <time>2015-06-21T17:22:43Z</time>
      </trkpt>
      <trkpt lat="45.59768" lon="1.64361">
        <ele>591.829</ele>
        <time>2015-06-21T17:22:51Z</time>
      </trkpt>
      <trkpt lat="45.59723" lon="1.64342">
        <ele>589.426</ele>
        <time>2015-06-21T17:22:58Z</time>
      </trkpt>
      <trkpt lat="45.59678" lon="1.64334">
        <ele>588.464</ele>
        <time>2015-06-21T17:23:05Z</time>
      </trkpt>
      <trkpt lat="45.59631" lon="1.64334">
        <ele>589.906</ele>
        <time>2015-06-21T17:23:16Z</time>
      </trkpt>
      <trkpt lat="45.59584" lon="1.64336">
        <ele>590.867</ele>
        <time>2015-06-21T17:23:32Z</time>
      </trkpt>
      <trkpt lat="45.59539" lon="1.64336">
        <ele>589.426</ele>
        <time>2015-06-21T17:23:41Z</time>
      </trkpt>
      <trkpt lat="45.59496" lon="1.64314">
        <ele>589.426</ele>
        <time>2015-06-21T17:23:51Z</time>
      </trkpt>
      <trkpt lat="45.59459" lon="1.64265">
        <ele>589.426</ele>
        <time>2015-06-21T17:24:04Z</time>
      </trkpt>
      <trkpt lat="45.59412" lon="1.6425">
        <ele>587.983</ele>
        <time>2015-06-21T17:24:13Z</time>
      </trkpt>
      <trkpt lat="45.59376" lon="1.64207">
        <ele>587.503</ele>
        <time>2015-06-21T17:24:20Z</time>
      </trkpt>
      <trkpt lat="45.59335" lon="1.64166">
        <ele>588.945</ele>
        <time>2015-06-21T17:24:28Z</time>
      </trkpt>
      <trkpt lat="45.59294" lon="1.64132">
        <ele>587.983</ele>
        <time>2015-06-21T17:24:36Z</time>
      </trkpt>
      <trkpt lat="45.59277" lon="1.6407">
        <ele>586.542</ele>
        <time>2015-06-21T17:24:45Z</time>
      </trkpt>
      <trkpt lat="45.59242" lon="1.6402">
        <ele>588.464</ele>
        <time>2015-06-21T17:24:57Z</time>
      </trkpt>
      <trkpt lat="45.59197" lon="1.63992">
        <ele>585.1</ele>
        <time>2015-06-21T17:25:06Z</time>
      </trkpt>
      <trkpt lat="45.5915" lon="1.64003">
        <ele>581.254</ele>
        <time>2015-06-21T17:25:15Z</time>
      </trkpt>
      <trkpt lat="45.59109" lon="1.63973">
        <ele>578.851</ele>
        <time>2015-06-21T17:25:28Z</time>
      </trkpt>
      <trkpt lat="45.59073" lon="1.63932">
        <ele>577.89</ele>
        <time>2015-06-21T17:25:41Z</time>
      </trkpt>
      <trkpt lat="45.59032" lon="1.63887">
        <ele>578.851</ele>
        <time>2015-06-21T17:25:55Z</time>
      </trkpt>
      <trkpt lat="45.58998" lon="1.63834">
        <ele>576.448</ele>
        <time>2015-06-21T17:26:01Z</time>
      </trkpt>
      <trkpt lat="45.58966" lon="1.63782">
        <ele>574.044</ele>
        <time>2015-06-21T17:26:07Z</time>
      </trkpt>
      <trkpt lat="45.58933" lon="1.63733">
        <ele>572.122</ele>
        <time>2015-06-21T17:26:14Z</time>
      </trkpt>
      <trkpt lat="45.58906" lon="1.63677">
        <ele>568.757</ele>
        <time>2015-06-21T17:26:21Z</time>
      </trkpt>
      <trkpt lat="45.58899" lon="1.63606">
        <ele>565.393</ele>
        <time>2015-06-21T17:26:28Z</time>
      </trkpt>
      <trkpt lat="45.58912" lon="1.63542">
        <ele>562.028</ele>
        <time>2015-06-21T17:26:34Z</time>
      </trkpt>
      <trkpt lat="45.58918" lon="1.63469">
        <ele>558.663</ele>
        <time>2015-06-21T17:26:41Z</time>
      </trkpt>
      <trkpt lat="45.5891" lon="1.634">
        <ele>555.779</ele>
        <time>2015-06-21T17:26:48Z</time>
      </trkpt>
      <trkpt lat="45.58899" lon="1.63332">
        <ele>552.415</ele>
        <time>2015-06-21T17:26:56Z</time>
      </trkpt>
      <trkpt lat="45.58895" lon="1.63265">
        <ele>548.569</ele>
        <time>2015-06-21T17:27:03Z</time>
      </trkpt>
      <trkpt lat="45.58891" lon="1.63198">
        <ele>545.686</ele>
        <time>2015-06-21T17:27:10Z</time>
      </trkpt>
      <trkpt lat="45.5888" lon="1.63134">
        <ele>543.282</ele>
        <time>2015-06-21T17:27:17Z</time>
      </trkpt>
      <trkpt lat="45.58863" lon="1.63065">
        <ele>542.802</ele>
        <time>2015-06-21T17:27:25Z</time>
      </trkpt>
      <trkpt lat="45.58837" lon="1.63005">
        <ele>542.321</ele>
        <time>2015-06-21T17:27:32Z</time>
      </trkpt>
      <trkpt lat="45.58807" lon="1.62952">
        <ele>542.321</ele>
        <time>2015-06-21T17:27:41Z</time>
      </trkpt>
      <trkpt lat="45.58775" lon="1.62898">
        <ele>544.244</ele>
        <time>2015-06-21T17:27:52Z</time>
      </trkpt>
      <trkpt lat="45.58745" lon="1.62844">
        <ele>543.763</ele>
        <time>2015-06-21T17:28:00Z</time>
      </trkpt>
      <trkpt lat="45.58717" lon="1.62791">
        <ele>539.437</ele>
        <time>2015-06-21T17:28:09Z</time>
      </trkpt>
      <trkpt lat="45.58693" lon="1.62731">
        <ele>537.514</ele>
        <time>2015-06-21T17:28:18Z</time>
      </trkpt>
      <trkpt lat="45.58691" lon="1.62664">
        <ele>540.879</ele>
        <time>2015-06-21T17:28:28Z</time>
      </trkpt>
      <trkpt lat="45.58657" lon="1.62608">
        <ele>539.918</ele>
        <time>2015-06-21T17:28:37Z</time>
      </trkpt>
      <trkpt lat="45.58614" lon="1.62574">
        <ele>538.476</ele>
        <time>2015-06-21T17:28:45Z</time>
      </trkpt>
      <trkpt lat="45.58582" lon="1.62512">
        <ele>536.072</ele>
        <time>2015-06-21T17:28:51Z</time>
      </trkpt>
      <trkpt lat="45.58552" lon="1.62454">
        <ele>533.669</ele>
        <time>2015-06-21T17:28:58Z</time>
      </trkpt>
      <trkpt lat="45.58517" lon="1.62392">
        <ele>530.304</ele>
        <time>2015-06-21T17:29:08Z</time>
      </trkpt>
      <trkpt lat="45.58483" lon="1.62336">
        <ele>532.227</ele>
        <time>2015-06-21T17:29:19Z</time>
      </trkpt>
      <trkpt lat="45.58453" lon="1.62284">
        <ele>530.304</ele>
        <time>2015-06-21T17:29:31Z</time>
      </trkpt>
      <trkpt lat="45.58416" lon="1.62246">
        <ele>525.017</ele>
        <time>2015-06-21T17:29:47Z</time>
      </trkpt>
      <trkpt lat="45.58371" lon="1.62222">
        <ele>525.017</ele>
        <time>2015-06-21T17:30:09Z</time>
      </trkpt>
      <trkpt lat="45.58352" lon="1.62162">
        <ele>529.343</ele>
        <time>2015-06-21T17:30:39Z</time>
      </trkpt>
      <trkpt lat="45.58339" lon="1.62093">
        <ele>531.746</ele>
        <time>2015-06-21T17:31:07Z</time>
      </trkpt>
      <trkpt lat="45.58339" lon="1.62025">
        <ele>529.343</ele>
        <time>2015-06-21T17:31:43Z</time>
      </trkpt>
      <trkpt lat="45.58307" lon="1.61967">
        <ele>536.072</ele>
        <time>2015-06-21T17:32:28Z</time>
      </trkpt>
      <trkpt lat="45.58283" lon="1.61902">
        <ele>543.763</ele>
        <time>2015-06-21T17:33:11Z</time>
      </trkpt>
      <trkpt lat="45.58281" lon="1.61832">
        <ele>542.321</ele>
        <time>2015-06-21T17:33:43Z</time>
      </trkpt>
      <trkpt lat="45.58285" lon="1.61765">
        <ele>543.282</ele>
        <time>2015-06-21T17:33:57Z</time>
      </trkpt>
      <trkpt lat="45.58309" lon="1.61705">
        <ele>546.647</ele>
        <time>2015-06-21T17:34:15Z</time>
      </trkpt>
      <trkpt lat="45.58322" lon="1.61636">
        <ele>551.934</ele>
        <time>2015-06-21T17:34:40Z</time>
      </trkpt>
      <trkpt lat="45.58303" lon="1.61568">
        <ele>555.299</ele>
        <time>2015-06-21T17:34:49Z</time>
      </trkpt>
      <trkpt lat="45.58316" lon="1.61484">
        <ele>552.895</ele>
        <time>2015-06-21T17:34:57Z</time>
      </trkpt>
      <trkpt lat="45.58341" lon="1.61415">
        <ele>548.089</ele>
        <time>2015-06-21T17:35:06Z</time>
      </trkpt>
      <trkpt lat="45.58352" lon="1.61349">
        <ele>546.647</ele>
        <time>2015-06-21T17:35:15Z</time>
      </trkpt>
      <trkpt lat="45.58352" lon="1.61278">
        <ele>543.763</ele>
        <time>2015-06-21T17:35:24Z</time>
      </trkpt>
      <trkpt lat="45.58356" lon="1.61209">
        <ele>541.84</ele>
        <time>2015-06-21T17:35:33Z</time>
      </trkpt>
      <trkpt lat="45.58356" lon="1.61141">
        <ele>538.956</ele>
        <time>2015-06-21T17:35:42Z</time>
      </trkpt>
      <trkpt lat="45.58363" lon="1.61072">
        <ele>537.034</ele>
        <time>2015-06-21T17:35:51Z</time>
      </trkpt>
      <trkpt lat="45.58371" lon="1.61008">
        <ele>535.111</ele>
        <time>2015-06-21T17:36:02Z</time>
      </trkpt>
      <trkpt lat="45.58371" lon="1.60935">
        <ele>536.072</ele>
        <time>2015-06-21T17:36:13Z</time>
      </trkpt>
      <trkpt lat="45.58369" lon="1.60866">
        <ele>533.188</ele>
        <time>2015-06-21T17:36:19Z</time>
      </trkpt>
      <trkpt lat="45.58367" lon="1.60797">
        <ele>530.785</ele>
        <time>2015-06-21T17:36:24Z</time>
      </trkpt>
      <trkpt lat="45.58367" lon="1.60722">
        <ele>526.94</ele>
        <time>2015-06-21T17:36:30Z</time>
      </trkpt>
      <trkpt lat="45.58363" lon="1.60654">
        <ele>522.614</ele>
        <time>2015-06-21T17:36:42Z</time>
      </trkpt>
      <trkpt lat="45.58341" lon="1.60585">
        <ele>531.266</ele>
        <time>2015-06-21T17:37:05Z</time>
      </trkpt>
      <trkpt lat="45.58333" lon="1.60499">
        <ele>532.708</ele>
        <time>2015-06-21T17:37:27Z</time>
      </trkpt>
      <trkpt lat="45.58333" lon="1.60424">
        <ele>529.343</ele>
        <time>2015-06-21T17:37:46Z</time>
      </trkpt>
      <trkpt lat="45.58335" lon="1.60355">
        <ele>525.978</ele>
        <time>2015-06-21T17:38:01Z</time>
      </trkpt>
      <trkpt lat="45.58331" lon="1.60291">
        <ele>525.498</ele>
        <time>2015-06-21T17:38:18Z</time>
      </trkpt>
      <trkpt lat="45.58318" lon="1.60229">
        <ele>525.498</ele>
        <time>2015-06-21T17:38:36Z</time>
      </trkpt>
      <trkpt lat="45.58288" lon="1.60173">
        <ele>522.614</ele>
        <time>2015-06-21T17:38:55Z</time>
      </trkpt>
      <trkpt lat="45.5827" lon="1.60109">
        <ele>521.653</ele>
        <time>2015-06-21T17:39:08Z</time>
      </trkpt>
      <trkpt lat="45.58255" lon="1.60053">
        <ele>520.691</ele>
        <time>2015-06-21T17:39:25Z</time>
      </trkpt>
      <trkpt lat="45.58213" lon="1.60042">
        <ele>517.807</ele>
        <time>2015-06-21T17:39:36Z</time>
      </trkpt>
      <trkpt lat="45.58167" lon="1.60033">
        <ele>517.327</ele>
        <time>2015-06-21T17:39:48Z</time>
      </trkpt>
      <trkpt lat="45.58122" lon="1.60021">
        <ele>520.211</ele>
        <time>2015-06-21T17:40:07Z</time>
      </trkpt>
      <trkpt lat="45.58077" lon="1.60008">
        <ele>521.653</ele>
        <time>2015-06-21T17:40:25Z</time>
      </trkpt>
      <trkpt lat="45.58032" lon="1.59999">
        <ele>523.095</ele>
        <time>2015-06-21T17:40:43Z</time>
      </trkpt>
      <trkpt lat="45.57987" lon="1.59982">
        <ele>523.095</ele>
        <time>2015-06-21T17:41:01Z</time>
      </trkpt>
      <trkpt lat="45.57944" lon="1.59958">
        <ele>525.017</ele>
        <time>2015-06-21T17:41:21Z</time>
      </trkpt>
      <trkpt lat="45.57906" lon="1.59928">
        <ele>527.901</ele>
        <time>2015-06-21T17:41:43Z</time>
      </trkpt>
      <trkpt lat="45.57878" lon="1.59877">
        <ele>526.94</ele>
        <time>2015-06-21T17:42:02Z</time>
      </trkpt>
      <trkpt lat="45.57839" lon="1.59838">
        <ele>529.824</ele>
        <time>2015-06-21T17:42:22Z</time>
      </trkpt>
      <trkpt lat="45.57809" lon="1.59787">
        <ele>532.708</ele>
        <time>2015-06-21T17:42:45Z</time>
      </trkpt>
      <trkpt lat="45.57773" lon="1.59742">
        <ele>532.227</ele>
        <time>2015-06-21T17:43:02Z</time>
      </trkpt>
      <trkpt lat="45.57732" lon="1.59701">
        <ele>529.343</ele>
        <time>2015-06-21T17:43:09Z</time>
      </trkpt>
      <trkpt lat="45.57687" lon="1.59679">
        <ele>525.978</ele>
        <time>2015-06-21T17:43:16Z</time>
      </trkpt>
      <trkpt lat="45.5764" lon="1.59682">
        <ele>523.575</ele>
        <time>2015-06-21T17:43:24Z</time>
      </trkpt>
      <trkpt lat="45.57592" lon="1.59679">
        <ele>522.133</ele>
        <time>2015-06-21T17:44:32Z</time>
      </trkpt>
      <trkpt lat="45.57545" lon="1.59675">
        <ele>522.614</ele>
        <time>2015-06-21T17:44:48Z</time>
      </trkpt>
      <trkpt lat="45.57496" lon="1.59673">
        <ele>521.172</ele>
        <time>2015-06-21T17:45:01Z</time>
      </trkpt>
      <trkpt lat="45.57449" lon="1.5969">
        <ele>520.211</ele>
        <time>2015-06-21T17:45:09Z</time>
      </trkpt>
      <trkpt lat="45.57404" lon="1.59684">
        <ele>519.73</ele>
        <time>2015-06-21T17:45:19Z</time>
      </trkpt>
      <trkpt lat="45.57363" lon="1.59656">
        <ele>519.73</ele>
        <time>2015-06-21T17:45:33Z</time>
      </trkpt>
      <trkpt lat="45.57318" lon="1.59621">
        <ele>518.769</ele>
        <time>2015-06-21T17:45:46Z</time>
      </trkpt>
      <trkpt lat="45.57275" lon="1.59587">
        <ele>518.769</ele>
        <time>2015-06-21T17:46:01Z</time>
      </trkpt>
      <trkpt lat="45.5724" lon="1.59544">
        <ele>520.691</ele>
        <time>2015-06-21T17:46:15Z</time>
      </trkpt>
      <trkpt lat="45.572" lon="1.59514">
        <ele>519.249</ele>
        <time>2015-06-21T17:46:28Z</time>
      </trkpt>
      <trkpt lat="45.57155" lon="1.59488">
        <ele>518.288</ele>
        <time>2015-06-21T17:46:40Z</time>
      </trkpt>
      <trkpt lat="45.57116" lon="1.59456">
        <ele>517.807</ele>
        <time>2015-06-21T17:46:51Z</time>
      </trkpt>
      <trkpt lat="45.57073" lon="1.59424">
        <ele>517.327</ele>
        <time>2015-06-21T17:47:02Z</time>
      </trkpt>
      <trkpt lat="45.57032" lon="1.59392">
        <ele>515.885</ele>
        <time>2015-06-21T17:47:12Z</time>
      </trkpt>
      <trkpt lat="45.56992" lon="1.5936">
        <ele>513.962</ele>
        <time>2015-06-21T17:47:21Z</time>
      </trkpt>
      <trkpt lat="45.56947" lon="1.59336">
        <ele>512.52</ele>
        <time>2015-06-21T17:47:31Z</time>
      </trkpt>
      <trkpt lat="45.56901" lon="1.59364">
        <ele>512.039</ele>
        <time>2015-06-21T17:47:41Z</time>
      </trkpt>
      <trkpt lat="45.56859" lon="1.59396">
        <ele>510.117</ele>
        <time>2015-06-21T17:47:49Z</time>
      </trkpt>
      <trkpt lat="45.56826" lon="1.59446">
        <ele>505.31</ele>
        <time>2015-06-21T17:48:00Z</time>
      </trkpt>
      <trkpt lat="45.56788" lon="1.59493">
        <ele>493.294</ele>
        <time>2015-06-21T17:48:15Z</time>
      </trkpt>
      <trkpt lat="45.56743" lon="1.59529">
        <ele>489.929</ele>
        <time>2015-06-21T17:48:30Z</time>
      </trkpt>
      <trkpt lat="45.56708" lon="1.59583">
        <ele>489.448</ele>
        <time>2015-06-21T17:48:45Z</time>
      </trkpt>
      <trkpt lat="45.56663" lon="1.59604">
        <ele>484.161</ele>
        <time>2015-06-21T17:48:54Z</time>
      </trkpt>
      <trkpt lat="45.56614" lon="1.59617">
        <ele>483.68</ele>
        <time>2015-06-21T17:49:02Z</time>
      </trkpt>
      <trkpt lat="45.56571" lon="1.59647">
        <ele>482.239</ele>
        <time>2015-06-21T17:49:10Z</time>
      </trkpt>
      <trkpt lat="45.56517" lon="1.5966">
        <ele>479.835</ele>
        <time>2015-06-21T17:49:18Z</time>
      </trkpt>
      <trkpt lat="45.56464" lon="1.59686">
        <ele>482.239</ele>
        <time>2015-06-21T17:49:26Z</time>
      </trkpt>
      <trkpt lat="45.56414" lon="1.59669">
        <ele>483.2</ele>
        <time>2015-06-21T17:49:33Z</time>
      </trkpt>
      <trkpt lat="45.56369" lon="1.59656">
        <ele>482.239</ele>
        <time>2015-06-21T17:49:39Z</time>
      </trkpt>
      <trkpt lat="45.56337" lon="1.59709">
        <ele>481.758</ele>
        <time>2015-06-21T17:49:45Z</time>
      </trkpt>
      <trkpt lat="45.56324" lon="1.59778">
        <ele>480.316</ele>
        <time>2015-06-21T17:49:51Z</time>
      </trkpt>
      <trkpt lat="45.56316" lon="1.59849">
        <ele>479.354</ele>
        <time>2015-06-21T17:49:57Z</time>
      </trkpt>
      <trkpt lat="45.56296" lon="1.5992">
        <ele>478.393</ele>
        <time>2015-06-21T17:50:03Z</time>
      </trkpt>
      <trkpt lat="45.56283" lon="1.59982">
        <ele>476.951</ele>
        <time>2015-06-21T17:50:08Z</time>
      </trkpt>
      <trkpt lat="45.56296" lon="1.60042">
        <ele>477.432</ele>
        <time>2015-06-21T17:50:13Z</time>
      </trkpt>
      <trkpt lat="45.56303" lon="1.60113">
        <ele>477.432</ele>
        <time>2015-06-21T17:50:19Z</time>
      </trkpt>
      <trkpt lat="45.56301" lon="1.60182">
        <ele>476.951</ele>
        <time>2015-06-21T17:50:26Z</time>
      </trkpt>
      <trkpt lat="45.56298" lon="1.6025">
        <ele>477.912</ele>
        <time>2015-06-21T17:50:35Z</time>
      </trkpt>
      <trkpt lat="45.56275" lon="1.6031">
        <ele>479.354</ele>
        <time>2015-06-21T17:50:45Z</time>
      </trkpt>
      <trkpt lat="45.56238" lon="1.60357">
        <ele>477.912</ele>
        <time>2015-06-21T17:50:55Z</time>
      </trkpt>
      <trkpt lat="45.56208" lon="1.60415">
        <ele>474.067</ele>
        <time>2015-06-21T17:51:04Z</time>
      </trkpt>
      <trkpt lat="45.56176" lon="1.60463">
        <ele>472.625</ele>
        <time>2015-06-21T17:51:12Z</time>
      </trkpt>
      <trkpt lat="45.56133" lon="1.6048">
        <ele>474.548</ele>
        <time>2015-06-21T17:51:21Z</time>
      </trkpt>
      <trkpt lat="45.56086" lon="1.60471">
        <ele>476.951</ele>
        <time>2015-06-21T17:51:32Z</time>
      </trkpt>
      <trkpt lat="45.56045" lon="1.6045">
        <ele>481.277</ele>
        <time>2015-06-21T17:51:42Z</time>
      </trkpt>
      <trkpt lat="45.55998" lon="1.60456">
        <ele>482.239</ele>
        <time>2015-06-21T17:51:56Z</time>
      </trkpt>
      <trkpt lat="45.55957" lon="1.6042">
        <ele>480.316</ele>
        <time>2015-06-21T17:52:04Z</time>
      </trkpt>
      <trkpt lat="45.55934" lon="1.60362">
        <ele>478.393</ele>
        <time>2015-06-21T17:52:10Z</time>
      </trkpt>
      <trkpt lat="45.55944" lon="1.60295">
        <ele>475.99</ele>
        <time>2015-06-21T17:52:15Z</time>
      </trkpt>
      <trkpt lat="45.55955" lon="1.60227">
        <ele>472.625</ele>
        <time>2015-06-21T17:52:20Z</time>
      </trkpt>
      <trkpt lat="45.55936" lon="1.60164">
        <ele>469.261</ele>
        <time>2015-06-21T17:52:25Z</time>
      </trkpt>
      <trkpt lat="45.55893" lon="1.60128">
        <ele>467.819</ele>
        <time>2015-06-21T17:52:31Z</time>
      </trkpt>
      <trkpt lat="45.55852" lon="1.60094">
        <ele>468.78</ele>
        <time>2015-06-21T17:52:39Z</time>
      </trkpt>
      <trkpt lat="45.55811" lon="1.60059">
        <ele>470.222</ele>
        <time>2015-06-21T17:52:49Z</time>
      </trkpt>
      <trkpt lat="45.55777" lon="1.6001">
        <ele>471.183</ele>
        <time>2015-06-21T17:53:00Z</time>
      </trkpt>
      <trkpt lat="45.55758" lon="1.59954">
        <ele>471.183</ele>
        <time>2015-06-21T17:53:11Z</time>
      </trkpt>
      <trkpt lat="45.5576" lon="1.59888">
        <ele>471.183</ele>
        <time>2015-06-21T17:53:21Z</time>
      </trkpt>
      <trkpt lat="45.55764" lon="1.59823">
        <ele>471.183</ele>
        <time>2015-06-21T17:53:31Z</time>
      </trkpt>
      <trkpt lat="45.55758" lon="1.59757">
        <ele>471.183</ele>
        <time>2015-06-21T17:53:41Z</time>
      </trkpt>
      <trkpt lat="45.55726" lon="1.59707">
        <ele>472.145</ele>
        <time>2015-06-21T17:53:51Z</time>
      </trkpt>
      <trkpt lat="45.55689" lon="1.59662">
        <ele>476.471</ele>
        <time>2015-06-21T17:54:01Z</time>
      </trkpt>
      <trkpt lat="45.5567" lon="1.59604">
        <ele>477.432</ele>
        <time>2015-06-21T17:54:14Z</time>
      </trkpt>
      <trkpt lat="45.55663" lon="1.59583">
        <ele>477.432</ele>
        <time>2015-06-21T17:54:47Z</time>
      </trkpt>
    </trkseg>
  </trk>
</gpx>